[[{"header":{"parameterUnit":"m.s-1","parameterCategory":1,"la1":31.0,"la2":29.5877,"lo1":-88.7671,"lo2":-86.6584,"dx":0.0162,"dy":0.0185,"nx":115,"ny":88,"refTime":"2023-02-05T00:00:00:Z","depth":0,"parameterNumber":2,"parameterNumberName":"U-component_of_WINDS"},"data":[0.0,0.0,0.0,0.0,0.0,0.0,0.0,0.0,0.0,0.0,0.0,0.0,0.0,0.0,0.0,0.0,0.0,0.0,0.0,0.0,0.0,0.0,0.0,0.0,0.0,0.0,0.0,0.0,0.0,0.0,0.0,0.0,0.0,0.0,0.0,0.0,0.0,0.0,0.0,0.0,0.0,0.0,0.0,0.0,0.0,0.0,0.0,0.0,0.0,0.0,0.0,0.0,0.0,0.0,0.0,0.0,0.0,0.0,0.0,0.0,0.0,0.0,0.0,0.0,0.0,0.0,0.0,0.0,0.0,0.0,0.0,0.0,0.0,0.0,0.0,0.0,0.0,0.0,0.0,0.0,0.0,0.0,0.0,0.0,0.0,0.0,0.0,0.0,0.0,0.0,0.0,0.0,0.0,0.0,0.0,0.0,0.0,0.0,0.0,0.0,0.0,0.0,0.0,0.0,0.0,0.0,0.0,0.0,0.0,0.0,0.0,0.0,0.0,0.0,0.0,0.0,0.0,0.0,0.0,0.0,0.0,0.0,0.0,0.0,0.0,0.0,0.0,0.0,0.0,0.0,0.0,0.0,0.0,0.0,0.0,0.0,0.0,0.0,0.0,0.0,0.0,0.0,0.0,0.0,0.0,0.0,0.0,0.0,0.0,0.0,0.0,0.0,0.0,0.0,0.0,0.0,0.0,0.0,0.0,0.0,0.0,0.0,0.0,0.0,0.0,0.0,0.0,0.0,0.0,0.0,0.0,0.0,0.0,0.0,0.0,0.0,0.0,0.0,0.0,0.0,0.0,0.0,0.0,0.0,0.0,0.0,0.0,0.0,0.0,0.0,0.0,0.0,0.0,0.0,0.0,0.0,0.0,0.0,0.0,0.0,0.0,0.0,0.0,0.0,0.0,0.0,0.0,0.0,0.0,0.0,0.0,0.0,0.0,0.0,0.0,0.0,0.0,0.0,0.0,0.0,0.0,0.0,0.0,0.0,0.0,0.0,0.0,0.0,0.0,0.0,0.0,0.0,0.0,0.0,0.0,0.0,0.0,0.0,0.0,0.0,0.0,0.0,0.0,0.0,0.0,0.0,0.0,0.0,0.0,0.0,0.0,0.0,0.0,0.0,0.0,0.0,0.0,0.0,0.0,0.0,0.0,0.0,0.0,0.0,0.0,0.0,0.0,0.0,0.0,0.0,0.0,0.0,0.0,0.0,0.0,0.0,0.0,0.0,0.0,0.0,0.0,0.0,0.0,0.0,0.0,0.0,0.0,0.0,0.0,0.0,0.0,0.0,0.0,0.0,0.0,0.0,0.0,0.0,0.0,0.0,0.0,0.0,0.0,0.0,0.0,0.0,0.0,0.0,0.0,0.0,0.0,0.0,0.0,0.0,0.0,0.0,0.0,0.0,0.0,0.0,0.0,0.0,0.0,0.0,0.0,0.0,0.0,0.0,0.0,0.0,0.0,0.0,0.0,0.0,0.0,0.0,0.0,0.0,0.0,0.0,0.0,0.0,0.0,0.0,0.0,0.0,0.0,0.0,0.0,0.0,0.0,0.0,0.0,0.0,0.0,0.0,0.0,0.0,0.0,0.0,0.0,0.0,0.0,0.0,0.0,0.0,0.0,0.0,0.0,0.0,0.0,0.0,0.0,0.0,0.0,0.0,0.0,0.0,0.0,0.0,0.0,0.0,0.0,0.0,0.0,0.0,0.0,0.0,0.0,0.0,0.0,0.0,0.0,0.0,0.0,0.0,0.0,0.0,0.0,0.0,0.0,0.0,0.0,0.0,0.0,0.0,0.0,0.0,0.0,0.0,0.0,0.0,0.0,0.0,0.0,0.0,0.0,0.0,0.0,0.0,0.0,0.0,0.0,0.0,0.0,0.0,0.0,0.0,0.0,0.0,0.0,0.0,0.0,0.0,0.0,0.0,0.0,0.0,0.0,0.0,0.0,0.0,0.0,0.0,0.0,0.0,0.0,0.0,0.0,0.0,0.0,0.0,0.0,0.0,0.0,0.0,0.0,0.0,0.0,0.0,0.0,0.0,0.0,0.0,0.0,0.0,0.0,0.0,0.0,0.0,0.0,0.0,0.0,0.0,0.0,0.0,0.0,0.0,0.0,0.0,0.0,0.0,0.0,0.0,0.0,0.0,0.0,0.0,0.0,0.0,0.0,0.0,0.0,0.0,0.0,0.0,0.0,0.0,0.0,0.0,0.0,0.0,0.0,0.0,0.0,0.0,0.0,0.0,0.0,0.0,0.0,0.0,0.0,0.0,0.0,0.0,0.0,0.0,0.0,0.0,0.0,0.0,0.0,0.0,0.0,0.0,0.0,0.0,0.0,0.0,0.0,0.0,0.0,0.0,0.0,0.0,0.0,0.0,0.0,0.0,0.0,0.0,0.0,0.0,0.0,0.0,0.0,0.0,0.0,0.0,0.0,0.0,0.0,0.0,0.0,0.0,0.0,0.0,0.0,0.0,0.0,0.0,0.0,0.0,0.0,0.0,0.0,0.0,0.0,0.0,0.0,0.0,0.0,0.0,0.0,0.0,0.0,0.0,0.0,0.0,0.0,0.0,0.0,0.0,0.0,0.0,0.0,0.0,0.0,0.0,0.0,0.0,0.0,0.0,0.0,0.0,0.0,0.0,0.0,0.0,0.0,0.0,0.0,0.0,0.0,0.0,0.0,0.0,0.0,0.0,0.0,0.0,0.0,0.0,0.0,0.0,0.0,0.0,0.0,0.0,0.0,0.0,0.0,0.0,0.0,0.0,0.0,0.0,0.0,0.0,0.0,0.0,0.0,0.0,0.0,0.0,0.0,0.0,0.0,0.0,0.0,0.0,0.0,0.0,0.0,0.0,0.0,0.0,0.0,0.0,0.0,0.0,0.0,0.0,0.0,0.0,0.0,0.0,0.0,0.0,0.0,0.0,0.0,0.0,0.0,0.0,0.0,0.0,0.0,0.0,0.0,0.0,0.0,0.0,0.0,0.0,0.0,0.0,0.0,0.0,0.0,0.0,0.0,0.0,0.0,0.0,0.0,0.0,0.0,0.0,0.0,0.0,0.0,0.0,0.0,0.0,0.0,0.0,0.0,0.0,0.0,0.0,0.0,0.0,0.0,0.0,0.0,0.0,0.0,0.0,0.0,0.0,0.0,0.0,0.0,0.0,0.0,0.0,0.0,0.0,0.0,0.0,0.0,0.0,0.0,0.0,0.0,0.0,0.0,0.0,0.0,0.0,0.0,0.0,0.0,0.0,0.0,0.0,0.0,0.0,0.0,0.0,0.0,0.0,0.0,0.0,0.0,0.0,0.0,0.0,0.0,0.0,0.0,0.0,0.0,0.0,0.0,0.0,0.0,0.0,0.0,0.0,0.0,0.0,0.0,0.0,0.0,0.0,0.0,0.0,0.0,0.0,0.0,0.0,0.0,0.0,0.0,0.0,0.0,0.0,0.0,0.0,0.0,0.0,0.0,0.0,0.0,0.0,0.0,0.0,0.0,0.0,0.0,0.0,0.0,0.0,0.0,0.0,0.0,0.0,0.0,0.0,0.0,0.0,0.0,0.0,0.0,0.0,0.0,0.0,0.0,0.0,0.0,0.0,0.0,0.0,0.0,0.0,0.0,0.0,0.0,0.0,0.0,0.0,0.0,0.0,0.0,0.0,0.0,0.0,0.0,0.0,0.0,0.0,0.0,0.0,0.0,0.0,0.0,0.0,0.0,0.0,0.0,0.0,0.0,0.0,0.0,0.0,0.0,0.0,0.0,0.0,0.0,0.0,0.0,0.0,0.0,0.0,0.0,0.0,0.0,0.0,0.0,0.0,0.0,0.0,0.0,0.0,0.0,0.0,0.0,0.0,0.0,0.0,0.0,0.0,0.0,0.0,0.0,0.0,0.0,0.0,0.0,0.0,0.0,0.0,0.0,0.0,0.0,0.0,0.0,0.0,0.0,0.0,0.0,0.0,0.0,0.0,0.0,0.0,0.0,0.0,0.0,0.0,0.0,0.0,0.0,0.0,0.0,0.0,0.0,0.0,0.0,0.0,0.0,0.0,0.0,0.0,0.0,0.0,0.0,0.0,0.0,0.0,0.0,0.0,0.0,0.0,0.0,0.0,0.0,0.0,0.0,0.0,0.0,0.0,0.0,0.0,0.0,0.0,0.0,0.0,0.0,0.0,0.0,0.0,0.0,0.0,0.0,0.0,0.0,0.0,0.0,0.0,0.0,0.0,0.0,0.0,0.0,0.0,0.0,0.0,0.0,0.0,0.0,0.0,-1.7582,0.0,0.0,0.0,0.0,0.0,0.0,0.0,0.0,0.0,0.0,0.0,0.0,0.0,0.0,0.0,0.0,0.0,0.0,0.0,0.0,0.0,0.0,0.0,0.0,0.0,0.0,0.0,0.0,0.0,0.0,0.0,0.0,0.0,0.0,0.0,0.0,0.0,0.0,0.0,0.0,0.0,0.0,0.0,0.0,0.0,0.0,0.0,0.0,0.0,0.0,0.0,0.0,0.0,0.0,0.0,0.0,0.0,0.0,0.0,0.0,0.0,0.0,0.0,0.0,0.0,0.0,0.0,0.0,0.0,0.0,0.0,0.0,0.0,0.0,0.0,0.0,0.0,0.0,0.0,0.0,0.0,0.0,0.0,0.0,0.0,0.0,0.0,0.0,0.0,0.0,0.0,0.0,0.0,0.0,0.0,0.0,0.0,0.0,0.0,0.0,0.0,0.0,0.0,0.0,0.0,0.0,0.0,0.0,0.0,0.0,-1.7582,-1.7582,-1.7582,-1.7582,-1.7582,0.0,0.0,0.0,0.0,0.0,0.0,0.0,0.0,0.0,0.0,0.0,0.0,0.0,0.0,0.0,0.0,0.0,0.0,0.0,0.0,0.0,0.0,0.0,0.0,0.0,0.0,0.0,0.0,0.0,0.0,0.0,0.0,0.0,0.0,0.0,0.0,0.0,0.0,0.0,0.0,0.0,0.0,0.0,0.0,0.0,0.0,0.0,0.0,0.0,0.0,0.0,0.0,0.0,0.0,0.0,0.0,0.0,0.0,0.0,0.0,0.0,0.0,0.0,0.0,0.0,0.0,0.0,0.0,0.0,0.0,0.0,0.0,0.0,0.0,0.0,0.0,0.0,0.0,0.0,0.0,0.0,0.0,0.0,0.0,0.0,0.0,0.0,0.0,0.0,0.0,0.0,0.0,0.0,0.0,0.0,0.0,0.0,0.0,0.0,0.0,0.0,0.0,0.0,0.0,0.0,0.0,0.0,0.0,0.0,0.0,0.0,0.0,-1.7582,-1.7582,-1.7582,0.0,0.0,0.0,0.0,0.0,0.0,0.0,0.0,0.0,0.0,0.0,0.0,0.0,0.0,0.0,0.0,0.0,0.0,0.0,0.0,0.0,0.0,0.0,0.0,0.0,0.0,0.0,0.0,0.0,0.0,0.0,0.0,0.0,0.0,0.0,0.0,0.0,0.0,0.0,0.0,0.0,0.0,0.0,0.0,0.0,0.0,0.0,0.0,0.0,0.0,0.0,0.0,0.0,0.0,0.0,0.0,0.0,0.0,0.0,0.0,0.0,0.0,0.0,0.0,0.0,0.0,0.0,0.0,0.0,0.0,0.0,0.0,0.0,0.0,0.0,0.0,0.0,0.0,0.0,0.0,0.0,0.0,0.0,0.0,0.0,0.0,0.0,0.0,0.0,0.0,0.0,0.0,0.0,0.0,0.0,0.0,0.0,0.0,0.0,0.0,0.0,0.0,0.0,0.0,0.0,0.0,0.0,0.0,0.0,0.0,-1.7582,-1.7582,-1.7582,0.0,-1.7582,0.0,0.0,0.0,0.0,0.0,0.0,0.0,0.0,0.0,0.0,0.0,0.0,0.0,0.0,0.0,0.0,0.0,0.0,0.0,0.0,0.0,0.0,0.0,0.0,0.0,0.0,0.0,0.0,0.0,0.0,0.0,0.0,0.0,0.0,0.0,0.0,0.0,0.0,0.0,0.0,0.0,0.0,0.0,0.0,0.0,0.0,0.0,0.0,0.0,0.0,0.0,0.0,0.0,0.0,0.0,0.0,0.0,0.0,0.0,0.0,0.0,0.0,0.0,0.0,0.0,0.0,0.0,0.0,0.0,0.0,0.0,0.0,0.0,0.0,0.0,0.0,0.0,0.0,0.0,0.0,0.0,0.0,0.0,0.0,0.0,0.0,0.0,0.0,0.0,0.0,0.0,0.0,0.0,0.0,0.0,0.0,0.0,0.0,0.0,0.0,0.0,0.0,0.0,0.0,0.0,0.0,0.0,0.0,0.0,0.0,-1.7582,-1.7582,-1.7582,-1.7582,0.0,0.0,0.0,0.0,0.0,0.0,0.0,0.0,0.0,0.0,0.0,0.0,0.0,0.0,0.0,0.0,0.0,0.0,0.0,0.0,0.0,0.0,0.0,0.0,0.0,0.0,0.0,0.0,0.0,0.0,0.0,0.0,0.0,0.0,0.0,0.0,0.0,0.0,0.0,0.0,0.0,0.0,0.0,0.0,0.0,0.0,0.0,0.0,0.0,0.0,0.0,0.0,0.0,0.0,0.0,0.0,0.0,0.0,0.0,0.0,0.0,0.0,0.0,0.0,0.0,0.0,0.0,0.0,0.0,0.0,0.0,0.0,0.0,0.0,0.0,0.0,0.0,0.0,0.0,0.0,0.0,0.0,0.0,0.0,0.0,0.0,0.0,0.0,0.0,0.0,0.0,0.0,0.0,0.0,0.0,0.0,0.0,0.0,0.0,0.0,0.0,0.0,0.0,0.0,0.0,0.0,0.0,0.0,0.0,0.0,-1.7582,-1.7582,-1.7582,-1.7582,-1.7582,-1.7582,0.0,0.0,0.0,0.0,0.0,0.0,0.0,0.0,0.0,0.0,0.0,0.0,0.0,0.0,0.0,0.0,0.0,0.0,0.0,0.0,0.0,0.0,0.0,0.0,0.0,0.0,0.0,0.0,0.0,0.0,0.0,0.0,0.0,0.0,0.0,0.0,0.0,0.0,0.0,0.0,0.0,0.0,0.0,0.0,0.0,0.0,0.0,0.0,0.0,0.0,0.0,0.0,0.0,0.0,0.0,0.0,0.0,0.0,0.0,0.0,0.0,0.0,0.0,0.0,0.0,0.0,0.0,0.0,0.0,0.0,0.0,0.0,0.0,0.0,0.0,0.0,0.0,0.0,0.0,0.0,0.0,0.0,0.0,0.0,0.0,0.0,0.0,0.0,0.0,0.0,0.0,0.0,0.0,0.0,0.0,0.0,0.0,0.0,0.0,0.0,0.0,0.0,0.0,0.0,0.0,0.0,0.0,0.0,-1.7582,-1.7582,-1.7582,-1.7582,-1.7582,-1.7582,0.0,0.0,0.0,0.0,0.0,0.0,0.0,0.0,0.0,0.0,0.0,0.0,0.0,0.0,0.0,0.0,0.0,0.0,0.0,0.0,0.0,0.0,0.0,0.0,0.0,0.0,0.0,0.0,0.0,0.0,0.0,0.0,0.0,0.0,0.0,0.0,0.0,0.0,0.0,0.0,0.0,0.0,0.0,0.0,0.0,0.0,0.0,0.0,0.0,0.0,0.0,0.0,0.0,0.0,0.0,0.0,0.0,0.0,0.0,0.0,0.0,0.0,0.0,0.0,0.0,0.0,0.0,0.0,0.0,0.0,0.0,0.0,0.0,0.0,0.0,0.0,0.0,0.0,0.0,0.0,0.0,0.0,0.0,0.0,0.0,0.0,0.0,0.0,0.0,0.0,0.0,0.0,0.0,0.0,0.0,0.0,0.0,0.0,0.0,0.0,0.0,0.0,0.0,0.0,0.0,0.0,0.0,0.0,0.0,-1.7582,-1.7582,-1.7582,-1.7582,-1.7582,-1.7582,0.0,0.0,0.0,0.0,0.0,0.0,0.0,0.0,0.0,0.0,0.0,0.0,0.0,0.0,0.0,0.0,0.0,0.0,0.0,0.0,0.0,0.0,0.0,0.0,0.0,0.0,0.0,0.0,0.0,0.0,0.0,0.0,0.0,0.0,0.0,0.0,0.0,0.0,0.0,0.0,0.0,0.0,0.0,0.0,0.0,0.0,0.0,0.0,0.0,0.0,0.0,0.0,0.0,0.0,0.0,0.0,0.0,0.0,0.0,0.0,0.0,0.0,0.0,0.0,0.0,0.0,0.0,0.0,0.0,0.0,0.0,0.0,0.0,0.0,0.0,0.0,0.0,0.0,0.0,0.0,0.0,0.0,0.0,0.0,0.0,0.0,0.0,0.0,0.0,0.0,0.0,0.0,0.0,0.0,0.0,0.0,0.0,0.0,0.0,0.0,0.0,0.0,0.0,0.0,0.0,0.0,0.0,0.0,0.0,-1.7582,0.0,-1.7582,-1.7582,-1.7582,-1.7582,0.0,0.0,0.0,0.0,0.0,0.0,0.0,0.0,0.0,0.0,0.0,0.0,0.0,0.0,0.0,0.0,0.0,0.0,0.0,0.0,0.0,0.0,0.0,0.0,0.0,0.0,0.0,0.0,0.0,0.0,0.0,0.0,0.0,0.0,0.0,0.0,0.0,0.0,0.0,0.0,0.0,0.0,0.0,0.0,0.0,0.0,0.0,0.0,0.0,0.0,0.0,0.0,0.0,0.0,0.0,0.0,0.0,0.0,0.0,0.0,0.0,0.0,0.0,0.0,0.0,0.0,0.0,0.0,0.0,0.0,0.0,0.0,0.0,0.0,0.0,0.0,0.0,0.0,0.0,0.0,0.0,0.0,0.0,0.0,0.0,0.0,0.0,0.0,0.0,0.0,0.0,0.0,0.0,0.0,0.0,0.0,0.0,0.0,0.0,0.0,0.0,0.0,0.0,0.0,0.0,0.0,0.0,0.0,-1.7582,-1.7582,-1.7582,-1.7582,-1.7582,-1.7582,-1.7582,0.0,0.0,0.0,0.0,0.0,0.0,0.0,0.0,0.0,0.0,0.0,0.0,0.0,0.0,0.0,0.0,0.0,0.0,0.0,0.0,0.0,0.0,0.0,0.0,0.0,0.0,0.0,0.0,0.0,0.0,0.0,0.0,0.0,0.0,0.0,0.0,0.0,0.0,0.0,0.0,0.0,0.0,0.0,0.0,0.0,0.0,0.0,0.0,0.0,0.0,0.0,0.0,0.0,0.0,0.0,0.0,0.0,0.0,0.0,0.0,0.0,0.0,0.0,0.0,0.0,0.0,0.0,0.0,0.0,0.0,0.0,0.0,0.0,0.0,0.0,0.0,0.0,0.0,0.0,0.0,0.0,0.0,0.0,0.0,0.0,0.0,0.0,0.0,0.0,0.0,0.0,0.0,0.0,0.0,0.0,0.0,0.0,0.0,0.0,0.0,0.0,0.0,0.0,0.0,0.0,0.0,0.0,0.0,0.0,-1.7582,-1.7582,-1.7582,-1.7582,-1.7582,-1.7582,0.0,0.0,0.0,0.0,0.0,0.0,0.0,0.0,0.0,0.0,0.0,0.0,0.0,0.0,0.0,0.0,0.0,0.0,0.0,0.0,0.0,0.0,0.0,0.0,0.0,0.0,0.0,0.0,0.0,0.0,0.0,0.0,0.0,0.0,0.0,0.0,0.0,0.0,0.0,0.0,0.0,0.0,0.0,0.0,0.0,0.0,0.0,0.0,0.0,0.0,0.0,0.0,0.0,0.0,0.0,0.0,0.0,0.0,0.0,0.0,0.0,0.0,0.0,0.0,0.0,0.0,0.0,0.0,0.0,0.0,0.0,0.0,0.0,0.0,0.0,0.0,0.0,0.0,0.0,0.0,0.0,0.0,0.0,0.0,0.0,0.0,0.0,0.0,0.0,0.0,0.0,0.0,0.0,0.0,0.0,0.0,0.0,0.0,0.0,0.0,0.0,0.0,0.0,0.0,0.0,0.0,0.0,0.0,0.0,-1.7582,-1.7582,-1.7582,-1.7582,-1.7582,-1.7582,-1.7582,0.0,0.0,0.0,0.0,0.0,0.0,0.0,0.0,0.0,0.0,0.0,0.0,0.0,0.0,0.0,0.0,0.0,0.0,0.0,0.0,0.0,0.0,0.0,0.0,0.0,0.0,0.0,0.0,0.0,0.0,0.0,0.0,0.0,0.0,0.0,0.0,0.0,0.0,0.0,0.0,0.0,0.0,0.0,0.0,0.0,0.0,0.0,0.0,0.0,0.0,0.0,0.0,0.0,0.0,0.0,0.0,0.0,0.0,0.0,0.0,0.0,0.0,0.0,0.0,0.0,0.0,0.0,0.0,0.0,0.0,0.0,0.0,0.0,0.0,0.0,0.0,0.0,0.0,0.0,0.0,0.0,0.0,0.0,0.0,0.0,0.0,0.0,0.0,0.0,0.0,0.0,0.0,0.0,0.0,0.0,0.0,0.0,0.0,0.0,0.0,0.0,0.0,0.0,0.0,0.0,0.0,0.0,0.0,-1.7582,-1.7582,-1.7582,-1.7582,-1.7582,-1.7582,0.0,0.0,0.0,0.0,0.0,0.0,0.0,0.0,0.0,0.0,0.0,0.0,0.0,0.0,0.0,0.0,0.0,0.0,0.0,0.0,0.0,0.0,0.0,0.0,0.0,0.0,0.0,0.0,0.0,0.0,0.0,0.0,0.0,0.0,0.0,0.0,0.0,0.0,0.0,0.0,0.0,0.0,0.0,0.0,0.0,0.0,0.0,0.0,0.0,0.0,0.0,0.0,0.0,0.0,0.0,0.0,0.0,0.0,0.0,0.0,0.0,0.0,0.0,0.0,0.0,0.0,0.0,0.0,0.0,0.0,0.0,0.0,0.0,0.0,0.0,0.0,0.0,0.0,0.0,0.0,0.0,0.0,0.0,0.0,0.0,0.0,0.0,0.0,0.0,0.0,0.0,0.0,0.0,0.0,0.0,0.0,0.0,0.0,0.0,0.0,0.0,0.0,0.0,0.0,0.0,0.0,0.0,0.0,0.0,-1.7582,-1.7582,-1.7582,-1.7582,-1.7582,-1.7582,0.0,0.0,0.0,0.0,0.0,0.0,0.0,0.0,0.0,0.0,0.0,0.0,0.0,0.0,0.0,0.0,0.0,0.0,0.0,0.0,0.0,0.0,0.0,0.0,0.0,0.0,0.0,0.0,0.0,0.0,0.0,0.0,0.0,0.0,0.0,0.0,0.0,0.0,0.0,0.0,0.0,0.0,0.0,0.0,0.0,0.0,0.0,0.0,0.0,0.0,0.0,0.0,0.0,0.0,0.0,0.0,0.0,0.0,0.0,0.0,0.0,0.0,0.0,0.0,0.0,0.0,0.0,0.0,0.0,0.0,0.0,0.0,0.0,0.0,0.0,0.0,0.0,0.0,0.0,0.0,0.0,0.0,0.0,0.0,0.0,0.0,0.0,0.0,0.0,0.0,0.0,0.0,0.0,0.0,0.0,0.0,0.0,0.0,0.0,0.0,0.0,0.0,0.0,0.0,0.0,0.0,0.0,0.0,-1.7836,-1.7956,-1.7969,-1.7969,-1.7969,-1.7716,-1.7582,0.0,0.0,0.0,0.0,0.0,0.0,0.0,0.0,0.0,0.0,0.0,0.0,0.0,0.0,0.0,0.0,0.0,0.0,0.0,0.0,0.0,0.0,0.0,0.0,0.0,0.0,0.0,0.0,0.0,0.0,0.0,0.0,0.0,0.0,0.0,0.0,0.0,0.0,0.0,0.0,0.0,0.0,0.0,0.0,0.0,0.0,0.0,0.0,0.0,0.0,0.0,0.0,0.0,0.0,0.0,0.0,0.0,0.0,0.0,0.0,0.0,0.0,0.0,0.0,0.0,0.0,0.0,0.0,0.0,0.0,0.0,0.0,0.0,0.0,0.0,0.0,0.0,0.0,0.0,0.0,0.0,0.0,0.0,0.0,0.0,0.0,0.0,0.0,0.0,0.0,0.0,0.0,0.0,0.0,0.0,0.0,0.0,0.0,0.0,0.0,0.0,0.0,0.0,0.0,0.0,0.0,0.0,0.0,-1.8223,-1.849,-1.849,-1.849,-1.8477,-1.7956,-1.7675,0.0,0.0,0.0,0.0,0.0,0.0,0.0,0.0,0.0,0.0,0.0,0.0,0.0,0.0,0.0,0.0,0.0,0.0,0.0,0.0,0.0,0.0,0.0,0.0,0.0,0.0,0.0,0.0,0.0,0.0,0.0,0.0,0.0,0.0,0.0,0.0,0.0,0.0,0.0,0.0,0.0,0.0,0.0,0.0,0.0,0.0,0.0,0.0,0.0,0.0,0.0,0.0,0.0,0.0,0.0,0.0,0.0,0.0,0.0,0.0,0.0,0.0,0.0,0.0,0.0,0.0,0.0,0.0,0.0,0.0,0.0,0.0,0.0,0.0,0.0,0.0,0.0,0.0,0.0,0.0,0.0,0.0,0.0,0.0,0.0,0.0,0.0,0.0,0.0,0.0,0.0,0.0,0.0,0.0,0.0,0.0,0.0,0.0,0.0,0.0,0.0,0.0,0.0,0.0,0.0,0.0,0.0,0.0,-1.8424,-1.849,-1.849,-1.849,-1.849,-1.837,-1.8303,0.0,0.0,0.0,0.0,0.0,0.0,0.0,0.0,0.0,0.0,0.0,0.0,0.0,0.0,0.0,0.0,0.0,0.0,0.0,0.0,0.0,0.0,0.0,0.0,0.0,0.0,0.0,0.0,0.0,0.0,0.0,0.0,0.0,0.0,0.0,0.0,0.0,0.0,0.0,0.0,0.0,0.0,0.0,0.0,0.0,0.0,0.0,0.0,-1.3588,0.0,0.0,0.0,0.0,0.0,0.0,0.0,0.0,0.0,0.0,0.0,0.0,0.0,0.0,0.0,0.0,0.0,0.0,0.0,0.0,0.0,0.0,0.0,0.0,0.0,0.0,0.0,0.0,0.0,0.0,0.0,0.0,0.0,0.0,0.0,0.0,0.0,0.0,0.0,0.0,0.0,0.0,0.0,0.0,0.0,0.0,0.0,0.0,0.0,0.0,0.0,0.0,0.0,0.0,0.0,0.0,0.0,0.0,0.0,-1.8758,-1.8948,-1.8905,-1.8905,-1.8905,-1.8905,-1.8771,0.0,0.0,0.0,0.0,0.0,0.0,0.0,0.0,0.0,0.0,0.0,0.0,0.0,0.0,0.0,0.0,0.0,0.0,0.0,0.0,0.0,0.0,0.0,0.0,0.0,0.0,0.0,0.0,0.0,0.0,0.0,0.0,0.0,0.0,0.0,0.0,0.0,0.0,0.0,0.0,0.0,0.0,0.0,0.0,0.0,0.0,0.0,0.0,0.0,0.0,0.0,0.0,0.0,0.0,0.0,0.0,0.0,0.0,0.0,0.0,0.0,0.0,0.0,0.0,0.0,0.0,0.0,0.0,0.0,0.0,0.0,0.0,0.0,0.0,0.0,0.0,0.0,0.0,0.0,0.0,0.0,0.0,0.0,0.0,0.0,0.0,0.0,0.0,0.0,0.0,0.0,0.0,0.0,0.0,0.0,0.0,0.0,0.0,0.0,0.0,0.0,0.0,0.0,0.0,0.0,0.0,0.0,-1.8998,-1.9118,-1.9417,-1.943,-1.943,-1.943,-1.943,-1.9189,-1.8651,0.0,0.0,0.0,0.0,0.0,0.0,0.0,0.0,0.0,0.0,0.0,0.0,0.0,0.0,0.0,0.0,0.0,0.0,0.0,0.0,0.0,0.0,0.0,0.0,0.0,0.0,0.0,0.0,0.0,0.0,0.0,0.0,0.0,0.0,0.0,0.0,0.0,0.0,-1.6296,-1.6347,0.0,0.0,0.0,0.0,0.0,0.0,0.0,0.0,-1.5749,0.0,0.0,0.0,0.0,0.0,0.0,0.0,0.0,0.0,0.0,0.0,0.0,0.0,0.0,0.0,0.0,0.0,0.0,0.0,0.0,0.0,0.0,0.0,0.0,0.0,0.0,0.0,0.0,0.0,0.0,0.0,0.0,0.0,0.0,0.0,0.0,0.0,0.0,0.0,0.0,0.0,0.0,0.0,0.0,0.0,0.0,0.0,0.0,0.0,0.0,0.0,0.0,0.0,0.0,0.0,0.0,-1.935,-1.9292,-1.9319,-1.943,-1.943,-1.943,-1.943,-1.943,-1.9377,-1.9239,0.0,0.0,0.0,0.0,0.0,0.0,0.0,0.0,0.0,0.0,0.0,0.0,0.0,0.0,0.0,0.0,0.0,0.0,0.0,0.0,0.0,0.0,0.0,0.0,0.0,0.0,0.0,0.0,0.0,0.0,0.0,0.0,0.0,0.0,0.0,0.0,0.0,0.0,0.0,-1.8063,-1.7742,0.0,0.0,0.0,0.0,0.0,0.0,0.0,0.0,-1.2719,0.0,0.0,0.0,0.0,0.0,0.0,0.0,0.0,0.0,0.0,0.0,0.0,0.0,0.0,0.0,0.0,0.0,0.0,0.0,0.0,0.0,0.0,0.0,0.0,0.0,0.0,0.0,0.0,0.0,0.0,0.0,0.0,0.0,0.0,0.0,0.0,0.0,0.0,0.0,0.0,0.0,0.0,0.0,0.0,0.0,0.0,0.0,0.0,0.0,0.0,0.0,0.0,0.0,0.0,0.0,-1.943,-1.943,-1.943,-1.943,-1.943,-1.943,-1.943,-1.943,-1.943,0.0,0.0,0.0,0.0,0.0,0.0,0.0,0.0,0.0,0.0,0.0,0.0,0.0,0.0,0.0,0.0,0.0,0.0,0.0,0.0,0.0,0.0,0.0,0.0,0.0,0.0,0.0,0.0,0.0,0.0,0.0,0.0,0.0,0.0,0.0,0.0,0.0,0.0,0.0,0.0,-1.8146,-1.7767,-1.7881,0.0,0.0,0.0,0.0,0.0,0.0,-1.5434,-1.503,0.0,0.0,0.0,0.0,0.0,0.0,0.0,0.0,0.0,0.0,0.0,0.0,0.0,0.0,0.0,0.0,0.0,0.0,0.0,0.0,0.0,0.0,0.0,0.0,0.0,0.0,0.0,0.0,0.0,0.0,0.0,0.0,0.0,0.0,0.0,0.0,0.0,0.0,0.0,0.0,0.0,0.0,0.0,0.0,0.0,0.0,0.0,0.0,0.0,0.0,0.0,0.0,0.0,0.0,0.0,-1.943,-1.943,-1.943,-1.943,-1.943,-1.943,-1.943,-1.943,-1.943,0.0,0.0,0.0,0.0,0.0,0.0,0.0,0.0,0.0,0.0,0.0,0.0,0.0,0.0,0.0,0.0,0.0,0.0,0.0,0.0,0.0,0.0,0.0,0.0,0.0,0.0,0.0,0.0,0.0,0.0,0.0,0.0,0.0,0.0,0.0,0.0,0.0,0.0,0.0,0.0,0.0,-1.7923,-1.9243,-1.943,0.0,0.0,0.0,0.0,-1.7689,-1.7208,0.0,0.0,0.0,0.0,0.0,0.0,0.0,0.0,0.0,0.0,0.0,0.0,0.0,0.0,0.0,0.0,0.0,0.0,0.0,0.0,0.0,0.0,0.0,0.0,0.0,0.0,0.0,0.0,0.0,0.0,0.0,0.0,0.0,0.0,0.0,0.0,0.0,0.0,0.0,0.0,0.0,0.0,0.0,0.0,0.0,0.0,0.0,0.0,0.0,0.0,0.0,0.0,0.0,0.0,0.0,0.0,-1.943,-1.943,-1.943,-1.943,-1.943,-1.943,-1.943,-1.943,-1.943,0.0,0.0,0.0,0.0,0.0,0.0,0.0,0.0,0.0,0.0,0.0,0.0,0.0,0.0,0.0,0.0,0.0,0.0,0.0,0.0,0.0,0.0,0.0,0.0,0.0,0.0,0.0,0.0,0.0,0.0,0.0,0.0,0.0,0.0,0.0,0.0,0.0,0.0,0.0,0.0,0.0,-1.9185,-1.9372,-1.943,-1.9359,0.0,0.0,-1.9372,-1.9127,-1.7923,0.0,0.0,0.0,0.0,0.0,0.0,0.0,0.0,0.0,0.0,0.0,0.0,0.0,0.0,0.0,0.0,0.0,0.0,0.0,0.0,0.0,0.0,0.0,0.0,0.0,0.0,0.0,0.0,0.0,0.0,0.0,0.0,0.0,0.0,0.0,0.0,0.0,0.0,0.0,0.0,0.0,0.0,0.0,0.0,0.0,0.0,0.0,0.0,0.0,0.0,0.0,0.0,0.0,0.0,0.0,-1.943,-1.943,-1.943,-1.943,-1.943,-1.943,-1.943,-1.943,-1.943,-1.943,0.0,0.0,0.0,0.0,0.0,0.0,0.0,0.0,0.0,0.0,0.0,0.0,0.0,0.0,0.0,0.0,0.0,0.0,0.0,0.0,0.0,0.0,0.0,0.0,0.0,0.0,0.0,0.0,0.0,0.0,0.0,0.0,0.0,0.0,0.0,0.0,0.0,0.0,0.0,0.0,0.0,0.0,-1.9826,-1.9853,0.0,0.0,0.0,-1.9867,-1.9853,0.0,0.0,0.0,0.0,0.0,0.0,0.0,0.0,0.0,0.0,0.0,0.0,0.0,0.0,0.0,0.0,0.0,0.0,0.0,0.0,0.0,0.0,0.0,0.0,0.0,0.0,0.0,0.0,0.0,0.0,0.0,0.0,0.0,0.0,0.0,0.0,0.0,0.0,0.0,0.0,0.0,0.0,0.0,0.0,0.0,0.0,0.0,0.0,0.0,0.0,0.0,0.0,0.0,0.0,0.0,0.0,0.0,-1.943,-1.943,-1.943,-1.943,-1.943,-1.943,-1.943,-1.943,0.0,0.0,0.0,0.0,0.0,0.0,0.0,0.0,0.0,0.0,0.0,0.0,0.0,0.0,0.0,0.0,0.0,0.0,0.0,0.0,0.0,0.0,0.0,0.0,0.0,0.0,0.0,-1.8952,0.0,0.0,0.0,0.0,0.0,0.0,0.0,0.0,0.0,0.0,0.0,0.0,0.0,0.0,-1.9987,-2.014,-2.018,-2.018,0.0,0.0,-2.018,-2.018,-2.018,-2.018,0.0,0.0,0.0,0.0,0.0,0.0,0.0,0.0,0.0,0.0,0.0,0.0,0.0,0.0,0.0,0.0,0.0,0.0,0.0,0.0,0.0,0.0,0.0,0.0,0.0,0.0,0.0,0.0,0.0,0.0,0.0,0.0,0.0,0.0,0.0,0.0,0.0,0.0,0.0,0.0,0.0,0.0,0.0,0.0,0.0,0.0,0.0,0.0,0.0,0.0,0.0,0.0,0.0,0.0,0.0,-1.943,-1.943,-1.943,-1.943,-1.943,-1.943,-1.943,-1.943,-1.943,0.0,0.0,0.0,0.0,0.0,0.0,0.0,0.0,0.0,0.0,0.0,0.0,0.0,0.0,0.0,0.0,0.0,0.0,0.0,0.0,0.0,0.0,0.0,0.0,0.0,0.0,0.0,0.0,0.0,0.0,0.0,0.0,0.0,0.0,0.0,0.0,0.0,0.0,0.0,0.0,0.0,-2.0201,-2.0227,-2.018,-2.018,0.0,0.0,-2.018,-2.018,-2.0241,-2.018,-2.0241,0.0,0.0,0.0,0.0,0.0,0.0,0.0,0.0,0.0,0.0,0.0,0.0,0.0,0.0,0.0,0.0,0.0,0.0,0.0,0.0,0.0,0.0,0.0,0.0,0.0,0.0,0.0,0.0,0.0,0.0,0.0,0.0,0.0,0.0,0.0,0.0,0.0,0.0,0.0,0.0,0.0,0.0,0.0,0.0,0.0,0.0,0.0,0.0,0.0,0.0,0.0,0.0,0.0,-1.9907,-1.9893,-1.9893,-1.9893,-1.9907,-1.9893,-1.9893,-1.9893,-1.9893,-1.9893,0.0,0.0,0.0,0.0,0.0,0.0,0.0,0.0,0.0,0.0,0.0,0.0,0.0,0.0,0.0,0.0,0.0,0.0,0.0,0.0,0.0,0.0,0.0,0.0,0.0,0.0,0.0,0.0,-1.9893,-1.9947,-2.0054,0.0,0.0,0.0,0.0,0.0,0.0,0.0,0.0,0.0,0.0,-2.0575,-2.0748,-2.0775,0.0,0.0,-2.0775,-2.0775,-2.0775,-2.0775,-2.0775,-2.0775,-2.0775,0.0,0.0,0.0,0.0,0.0,0.0,0.0,0.0,0.0,0.0,0.0,0.0,0.0,0.0,0.0,0.0,0.0,0.0,0.0,0.0,0.0,0.0,0.0,0.0,0.0,0.0,0.0,0.0,0.0,0.0,0.0,0.0,0.0,0.0,0.0,0.0,0.0,0.0,0.0,0.0,0.0,0.0,0.0,0.0,0.0,0.0,0.0,0.0,0.0,0.0,0.0,0.0,-2.018,-2.018,-2.018,-2.018,-2.018,-2.018,-2.018,-2.018,-2.018,-2.018,0.0,0.0,0.0,0.0,0.0,0.0,0.0,0.0,0.0,0.0,0.0,0.0,0.0,0.0,0.0,0.0,0.0,0.0,0.0,0.0,0.0,0.0,0.0,0.0,0.0,0.0,0.0,0.0,-2.0307,-2.0361,-2.0361,0.0,0.0,0.0,0.0,0.0,0.0,0.0,0.0,0.0,0.0,-2.0882,-2.1082,-2.1109,-2.1109,-2.1109,-2.1109,-2.1109,-2.1109,-2.1109,-2.1109,-2.1109,0.0,0.0,0.0,0.0,0.0,0.0,0.0,0.0,0.0,0.0,0.0,0.0,0.0,0.0,0.0,0.0,0.0,0.0,0.0,0.0,0.0,0.0,0.0,0.0,0.0,0.0,0.0,0.0,0.0,0.0,0.0,0.0,0.0,0.0,0.0,0.0,0.0,0.0,0.0,0.0,0.0,0.0,0.0,0.0,0.0,0.0,0.0,0.0,0.0,0.0,0.0,0.0,0.0,-2.0241,-2.018,-2.0254,-2.0254,-2.0193,-2.0241,-2.0254,-2.0193,-2.018,-2.018,-2.0193,0.0,0.0,0.0,0.0,0.0,0.0,0.0,0.0,0.0,0.0,0.0,0.0,0.0,0.0,0.0,0.0,0.0,0.0,0.0,0.0,0.0,0.0,0.0,0.0,0.0,0.0,-2.0254,-2.0494,-2.0668,0.0,0.0,0.0,0.0,0.0,0.0,0.0,0.0,0.0,0.0,-2.1109,-2.1096,-2.1109,-2.1109,-2.1109,-2.1109,-2.1109,-2.1109,-2.1109,-2.1109,-2.1109,0.0,0.0,0.0,0.0,0.0,0.0,0.0,0.0,0.0,0.0,0.0,0.0,0.0,0.0,0.0,0.0,0.0,0.0,0.0,0.0,0.0,0.0,0.0,0.0,0.0,0.0,0.0,-2.0,-2.008,0.0,0.0,0.0,0.0,0.0,0.0,0.0,0.0,0.0,0.0,0.0,-2.1109,-2.1109,0.0,0.0,0.0,0.0,0.0,0.0,0.0,0.0,0.0,0.0,0.0,0.0,-2.0815,-2.0815,-2.0815,-2.0815,-2.0815,-2.0815,-2.0815,-2.0815,-2.0815,-2.0815,-2.0815,0.0,0.0,0.0,0.0,0.0,0.0,0.0,0.0,0.0,0.0,0.0,0.0,0.0,0.0,0.0,0.0,0.0,0.0,0.0,0.0,0.0,0.0,0.0,0.0,0.0,-2.0815,0.0,0.0,0.0,0.0,0.0,0.0,0.0,0.0,0.0,0.0,0.0,-2.1109,-2.1109,-2.1283,-2.1336,-2.1136,-2.1283,-2.1336,0.0,0.0,0.0,0.0,0.0,0.0,0.0,0.0,0.0,0.0,0.0,0.0,0.0,0.0,-2.1109,-2.1109,-2.1109,-2.1109,-2.1109,0.0,0.0,0.0,0.0,0.0,0.0,0.0,0.0,0.0,0.0,0.0,0.0,0.0,0.0,0.0,0.0,-2.0388,0.0,0.0,0.0,0.0,0.0,0.0,0.0,0.0,-2.1109,-2.1109,-2.1109,-2.1109,-2.1109,0.0,-2.1109,-2.1109,0.0,0.0,0.0,0.0,0.0,0.0,0.0,0.0,-2.1109,-2.1109,-2.1109,-2.1109,-2.1109,-2.1109,-2.1109,-2.1109,-2.1109,-2.1109,-2.1109,-2.1109,-2.1109,0.0,0.0,0.0,0.0,0.0,0.0,0.0,0.0,0.0,0.0,0.0,0.0,0.0,0.0,0.0,0.0,0.0,0.0,0.0,0.0,0.0,0.0,0.0,-2.1109,0.0,0.0,0.0,0.0,0.0,0.0,0.0,0.0,0.0,-2.1109,-2.1109,-2.1109,-2.1109,-2.1283,-2.1363,-2.1269,0.0,0.0,0.0,0.0,0.0,0.0,0.0,-2.1643,-2.1443,-2.1577,-2.1643,-2.1443,-2.1416,-2.1416,-2.1416,0.0,0.0,-2.1149,-2.1109,-2.1109,-2.1109,-2.0962,-2.0882,-2.1069,-2.0962,-2.0882,0.0,0.0,0.0,0.0,0.0,0.0,0.0,0.0,-2.0267,-2.0428,0.0,-2.0695,0.0,0.0,0.0,0.0,0.0,0.0,0.0,0.0,-2.1109,-2.1109,-2.1109,-2.1109,-2.1109,-2.1109,-2.1109,-2.1109,-2.1109,-2.1109,0.0,0.0,0.0,0.0,0.0,0.0,-2.1109,-2.1109,-2.1109,-2.1109,-2.1109,-2.1109,-2.1109,-2.1109,-2.1109,-2.1109,-2.1109,-2.1109,-2.1109,-2.1109,-2.1109,0.0,0.0,0.0,0.0,0.0,0.0,0.0,0.0,0.0,0.0,0.0,0.0,0.0,0.0,0.0,0.0,0.0,0.0,0.0,0.0,-2.1109,0.0,0.0,0.0,0.0,0.0,0.0,0.0,0.0,0.0,0.0,-2.1162,-2.1136,-2.1122,-2.1122,0.0,0.0,0.0,0.0,-2.1683,-2.1937,-2.1977,-2.1977,-2.1977,-2.1991,-2.1991,-2.1977,0.0,0.0,-2.1977,-2.1977,-2.1964,-2.1977,-2.1951,-2.1804,-2.1256,-2.1176,-2.1162,-2.1162,-2.1162,-2.1149,-2.1149,-2.1189,-2.1162,-1.9907,0.0,0.0,0.0,0.0,-2.0468,-2.0548,-2.0561,-2.0775,-2.0909,-2.0989,-2.0989,0.0,0.0,0.0,0.0,0.0,0.0,-2.1109,-2.1109,-2.1109,-2.1109,-2.1109,-2.1109,-2.1109,-2.1109,-2.1109,-2.1109,-2.1109,-2.1109,-2.1109,-2.1109,0.0,0.0,0.0,0.0,-2.1109,-2.1109,-2.1109,-2.1109,-2.1109,-2.1109,-2.1109,-2.1109,-2.1109,-2.1109,-2.1109,-2.1109,-2.1109,-2.1109,-2.1109,0.0,0.0,0.0,0.0,0.0,0.0,0.0,0.0,0.0,0.0,0.0,0.0,0.0,0.0,0.0,0.0,0.0,0.0,0.0,-2.1109,-2.1109,-2.1109,0.0,0.0,0.0,0.0,0.0,0.0,0.0,0.0,0.0,-2.1697,-2.155,-2.1494,0.0,0.0,-2.1991,-2.1871,-2.2044,-2.2124,-2.2004,0.0,0.0,0.0,-2.2164,-2.2231,-2.2017,-2.1991,-2.1991,-2.1991,-2.1991,-2.1991,-2.1991,-2.1991,-2.1924,-2.179,-2.1737,-2.1737,-2.1737,-2.1737,-2.1737,-2.1737,-2.1737,-2.1724,-2.0307,-2.016,-2.0334,-2.0481,-2.0601,-2.0775,-2.0855,-2.0855,-2.1042,-2.1109,-2.1109,-2.1109,-2.1109,-2.1109,-2.1109,0.0,0.0,0.0,-2.1109,-2.1109,-2.1109,-2.1109,-2.1109,-2.1109,-2.1109,-2.1109,-2.1109,-2.1109,-2.1109,-2.1109,-2.1109,-2.1109,0.0,0.0,-2.1109,-2.1109,-2.1109,-2.1109,-2.1109,-2.1109,-2.1109,-2.1109,-2.1109,-2.1109,-2.1109,-2.1109,-2.1109,-2.1109,-2.1109,-2.1109,-2.1109,-2.1109,0.0,0.0,0.0,0.0,0.0,0.0,0.0,0.0,0.0,0.0,0.0,-2.1109,-2.1109,0.0,0.0,0.0,-2.1109,-2.1109,-2.1109,-2.1109,0.0,0.0,0.0,0.0,0.0,0.0,0.0,-2.171,-2.1789,-2.179,-2.1964,-2.1937,-2.1857,-2.1802,-2.2031,-2.2231,-2.2164,0.0,-2.2392,-2.2338,-2.2338,-2.2338,-2.2338,-2.2472,-2.2539,-2.2365,-2.2338,-2.2338,-2.2338,-2.2405,-2.2338,-2.2338,-2.2325,-2.2338,-2.2325,-2.2338,-2.2311,-2.2031,-2.1991,-2.1991,-2.1991,-2.1991,-2.1991,-2.0708,-2.0708,-2.0708,-2.0869,-2.1096,-2.1109,-2.1096,-2.1109,-2.1109,-2.1109,-2.1109,-2.1109,-2.1109,-2.1109,-2.1109,0.0,-2.1109,-2.1109,-2.1109,-2.1109,-2.1109,-2.1109,-2.1109,-2.1109,-2.1109,-2.1109,-2.1109,-2.1109,-2.1109,-2.1136,-2.1149,-2.1149,-2.1176,-2.1162,-2.1109,-2.1109,-2.1109,-2.1109,-2.1109,-2.1109,-2.1109,-2.1109,-2.1109,-2.1109,-2.1109,-2.1109,-2.1109,-2.1109,-2.1109,-2.1109,-2.1109,-2.1109,-2.1109,0.0,0.0,0.0,0.0,0.0,0.0,0.0,0.0,0.0,0.0,0.0,0.0,0.0,0.0,0.0,-2.1109,0.0,-2.1149,-2.1149,0.0,0.0,0.0,-2.1655,-2.1655,-2.183,-2.1991,-2.2017,0.0,0.0,-2.2058,0.0,-2.2365,-2.2098,-2.2058,-2.2151,-2.2418,-2.2458,-2.2552,-2.2861,-2.2846,-2.2859,-2.2806,-2.2832,-2.2832,-2.2806,-2.2859,-2.2832,-2.2873,-2.2901,-2.2928,-2.2886,-2.2873,-2.2846,-2.2859,-2.2819,-2.278,-2.2218,-2.2098,-2.2071,-2.2098,-2.2098,-2.2111,-2.1002,-2.1002,-2.1002,-2.1042,-2.1109,-2.1109,-2.1109,-2.1109,-2.1109,-2.1109,-2.1109,-2.1109,-2.1109,-2.1109,-2.1109,-2.1109,-2.1109,-2.1109,-2.1109,-2.1109,-2.1109,-2.1109,-2.1109,-2.1109,-2.1109,-2.1109,-2.1109,-2.1109,-2.1122,-2.1336,-2.1507,-2.1456,-2.167,-2.155,-2.1122,-2.1109,-2.1109,-2.1109,-2.1109,-2.1109,-2.1109,-2.1109,-2.1109,-2.1109,-2.1109,-2.1109,-2.1109,-2.1109,-2.1109,-2.1109,-2.1109,-2.1109,-2.1109,-2.1109,0.0,0.0,0.0,0.0,0.0,0.0,0.0,0.0,0.0,-2.1109,-2.1109,0.0,-2.1349,0.0,-2.1109,-2.1203,-2.1494,-2.1507,0.0,0.0,-2.1844,-2.1884,-2.1884,-2.1951,-2.2071,-2.2285,-2.2325,-2.2405,-2.27,-2.2712,-2.2739,-2.2727,-2.2645,-2.2672,-2.2739,-2.2766,-2.2779,-2.2859,-2.2886,-2.2859,-2.2886,-2.2859,-2.2886,-2.2859,-2.2873,-2.2939,-2.318,-2.3006,-2.2926,-2.314,-2.302,-2.2886,-2.2941,-2.2859,-2.2926,-2.2966,-2.2819,-2.2659,-2.2659,-2.2659,-2.2659,-2.1109,-2.1109,-2.1109,-2.1109,-2.1109,-2.1109,-2.1109,-2.1109,-2.1109,-2.1109,-2.1109,-2.1109,-2.1109,-2.1109,-2.1109,-2.1109,-2.1109,-2.1109,-2.1176,-2.1296,-2.1309,-2.1376,-2.1496,-2.1496,-2.1496,-2.1496,-2.1496,-2.1496,-2.151,-2.1735,-2.1815,-2.175,-2.1911,-2.1817,-2.151,-2.1363,-2.1309,-2.1309,-2.1176,-2.1109,-2.1109,-2.1109,-2.1109,-2.1109,-2.1109,-2.1109,-2.1109,-2.1109,-2.1109,-2.1109,-2.1109,-2.1109,-2.1109,-2.1109,-2.1109,0.0,0.0,0.0,0.0,0.0,0.0,0.0,0.0,0.0,0.0,0.0,-2.1614,-2.1496,-2.1496,-2.1563,-2.1737,-2.1815,-2.1817,-2.1964,-2.2111,-2.2178,-2.2178,-2.2298,-2.2432,-2.2592,-2.2619,-2.2672,-2.2914,-2.2859,-2.2859,-2.2859,-2.2979,-2.302,-2.2899,-2.2979,-2.3073,-2.3073,-2.318,-2.333,-2.326,-2.3273,-2.326,-2.333,-2.3343,-2.3327,-2.3487,-2.338,-2.3327,-2.3474,-2.338,-2.326,-2.3343,-2.326,-2.3327,-2.3434,-2.3394,-2.3356,-2.333,-2.326,-2.3343,-2.1109,-2.1109,-2.1109,-2.1109,-2.1109,-2.1109,-2.1109,-2.1109,-2.1109,-2.1109,-2.1109,-2.1109,-2.1109,-2.1109,-2.1149,-2.1162,-2.1162,-2.1203,-2.1363,-2.1668,-2.1668,-2.1737,-2.1977,-2.1991,-2.1991,-2.1991,-2.1991,-2.1991,-2.1991,-2.2017,-2.2044,-2.2044,-2.2084,-2.2098,-2.2084,-2.1882,-2.1708,-2.1681,-2.1363,-2.1229,-2.1216,-2.1216,-2.1216,-2.1216,-2.1216,-2.1216,-2.1216,-2.1229,-2.1203,-2.1162,-2.1162,-2.1149,-2.1109,-2.1149,-2.1162,0.0,-2.1203,0.0,0.0,0.0,0.0,0.0,0.0,0.0,0.0,-2.1456,-2.1802,-2.2017,-2.2004,-2.2004,-2.2044,-2.2044,-2.2058,-2.2098,-2.2325,-2.2472,-2.2485,-2.2699,-2.2859,-2.2859,-2.2859,-2.2859,-2.2859,-2.2954,-2.2926,-2.2966,-2.3207,-2.3287,-2.3073,-2.322,-2.338,-2.338,-2.3594,-2.3772,-2.3714,-2.3741,-2.3741,-2.3754,-2.3728,-2.3794,-2.3821,-2.3781,-2.3768,-2.3808,-2.3768,-2.3741,-2.3839,-2.3754,-2.3768,-2.3808,-2.3808,-2.3781,-2.3741,-2.3714,-2.3781,-2.1109,-2.1109,-2.1109,-2.1109,-2.1109,-2.1109,-2.1109,-2.1109,-2.1109,-2.1109,-2.1109,-2.1109,-2.1109,-2.1122,-2.1363,-2.1534,-2.1483,-2.171,-2.1857,-2.1963,-2.1897,-2.1937,-2.1991,-2.1991,-2.1991,-2.1991,-2.1991,-2.1991,-2.1991,-2.2218,-2.2338,-2.2338,-2.2579,-2.2767,-2.2686,0.0,0.0,0.0,-2.1844,-2.1817,-2.1817,-2.1817,-2.1817,-2.1817,-2.1817,0.0,-2.1817,-2.1817,-2.171,-2.1547,-2.1534,0.0,0.0,0.0,0.0,0.0,0.0,0.0,0.0,0.0,0.0,0.0,-2.1817,-2.1817,-2.1817,-2.1871,-2.2031,-2.2298,-2.2124,-2.2084,-2.2311,-2.2338,-2.2432,-2.2672,-2.2739,-2.2779,-2.2779,-2.2832,-2.2859,-2.2859,-2.2859,-2.2873,-2.2968,-2.3073,-2.3233,-2.326,-2.35,-2.3647,-2.3607,-2.3647,-2.3688,-2.3701,-2.3781,-2.3794,-2.3781,-2.3794,-2.3834,-2.3781,-2.3781,-2.3875,-2.4062,-2.3928,-2.3888,-2.4062,-2.3928,-2.3794,-2.3794,-2.3781,-2.3875,-2.4075,-2.4115,-2.4048,-2.3821,-2.3781,-2.3781,-2.1109,0.0,-2.1109,-2.1601,0.0,-2.2341,-2.2341,-2.2341,-2.2341,-2.2341,-2.2341,-2.2341,-2.2426,-2.2694,-2.3661,-2.3711,-2.3099,-2.4148,-2.4245,-2.3553,-2.4393,-2.4415,-2.3728,-2.3714,-2.3262,-2.2418,-2.2418,-2.2418,-2.2432,-2.2565,-2.2632,-2.2645,-2.2861,-2.2859,-2.2859,-2.2712,-2.2418,-2.1991,-2.1991,-2.1991,-2.1991,-2.1991,-2.1991,-2.1991,0.0,0.0,0.0,0.0,0.0,0.0,0.0,0.0,0.0,0.0,0.0,-2.1777,-2.1911,-2.1991,-2.1991,-2.1991,-2.2044,-2.2191,-2.2338,-2.2352,-2.2218,-2.2205,-2.2325,-2.2605,-2.2498,-2.2485,-2.2619,-2.2645,-2.2699,-2.2846,-2.2859,-2.2859,-2.2859,-2.2859,-2.2995,-2.306,-2.3086,-2.314,-2.337,-2.3434,-2.3541,-2.3567,-2.3794,-2.3981,-2.3981,-2.3981,-2.4022,-2.4168,-2.4195,-2.4195,-2.4195,-2.4195,-2.4182,-2.4195,-2.4195,-2.4262,-2.4382,-2.4302,-2.4249,-2.4382,-2.4289,-2.4195,-2.4195,-2.4195,-2.4249,-2.4382,-2.4422,-2.4382,-2.4222,-2.4195,-2.4209,-2.1109,-2.1109,-2.1109,-2.2041,-2.3574,-2.3574,-2.3931,-2.4425,0.0,0.0,0.0,-2.4146,-2.4329,-2.4824,-2.621,-2.6198,-2.5252,-2.6728,-2.6794,-2.5708,-2.7133,-2.7147,-2.5972,-2.5972,-2.5248,-2.3856,-2.387,-2.3856,-2.3856,-2.3856,-2.3802,-2.387,-2.387,-2.3665,-2.3393,-2.3065,-2.2686,-2.2164,-2.2138,-2.2138,-2.2138,-2.2138,-2.2138,-2.2138,-2.2138,-2.2138,-2.2138,-2.2138,-2.2124,-2.2071,-2.2058,-2.2044,-2.1991,-2.2031,-2.2058,-2.2058,-2.2111,-2.2138,-2.2138,-2.2138,-2.2245,-2.2485,-2.2726,-2.2752,-2.2512,-2.2498,-2.2592,-2.2914,-2.2859,-2.2859,-2.2859,-2.2859,-2.2859,-2.2859,-2.2913,-2.2953,-2.2953,-2.3075,-2.3153,-2.3354,-2.3407,-2.3487,-2.3714,-2.3808,-2.3848,-2.3888,-2.4102,-2.4275,-2.4275,-2.4275,-2.4356,-2.4543,-2.4556,-2.4609,-2.4623,-2.4596,-2.4636,-2.4583,-2.4596,-2.4636,-2.4636,-2.4636,-2.4636,-2.4596,-2.4636,-2.4609,-2.4623,-2.4596,-2.4636,-2.4636,-2.4636,-2.4636,-2.4636,-2.4623,-2.4609,-2.1109,-2.1109,-2.1109,-2.2041,-2.3574,-2.3574,-2.5146,-2.7452,-2.4794,-2.458,-2.6153,-2.6215,-2.6428,-2.6898,-2.7338,-2.7439,-2.7311,-2.7818,-2.7982,0.0,-2.8032,-2.8048,-2.7834,-2.7834,-2.7701,-2.7437,-2.7437,-2.7437,-2.7437,-2.7387,-2.7437,-2.7437,-2.7437,-2.6655,-2.5113,-2.3665,-2.2819,-2.2807,-2.2807,-2.2807,-2.2739,-2.2739,-2.2739,-2.2807,-2.2726,-2.2807,-2.2739,-2.2726,-2.2619,-2.2365,-2.2365,-2.2245,-2.2017,-2.2231,-2.2352,-2.2365,-2.2605,-2.2739,-2.2807,-2.2739,-2.2752,-2.2792,-2.2901,-2.2846,-2.2806,-2.2806,-2.2887,-2.2859,-2.2873,-2.2859,-2.2859,-2.2886,-2.2899,-2.2899,-2.3113,-2.326,-2.326,-2.3474,-2.3634,-2.3701,-2.3714,-2.3714,-2.3821,-2.4008,-2.4142,-2.4182,-2.4356,-2.4556,-2.4543,-2.4583,-2.4596,-2.4623,-2.4636,-2.4636,-2.4636,-2.4636,-2.4636,-2.4636,-2.4636,-2.4636,-2.4636,-2.4636,-2.4636,-2.4636,-2.4636,-2.4636,-2.4636,-2.4636,-2.4636,-2.4636,-2.4636,-2.4636,-2.4636,-2.4636,-2.4636,-2.2466,-2.2466,-2.2466,-2.3373,-2.4962,-2.5802,-2.7694,-2.9789,-2.7583,-2.7057,-2.7921,-2.8174,-2.855,-2.9042,-2.9996,-3.0066,-2.9409,-3.0506,-3.0531,-2.9735,-3.0595,-3.0531,-2.967,-2.9605,-2.9083,-2.8229,-2.8163,-2.8163,-2.818,-2.8428,-2.8527,-2.8527,-2.8726,-2.7932,-2.6177,-2.5299,-2.4428,-2.341,-2.3033,-2.2859,-2.2859,-2.2859,-2.2859,-2.2859,-2.2859,-2.2859,-2.2859,-2.2859,-2.2792,-2.2659,-2.2659,-2.2592,-2.2472,-2.2592,-2.2659,-2.2659,-2.2779,-2.2859,-2.2859,-2.2859,-2.2859,-2.2873,-2.302,-2.3113,-2.3113,-2.2953,-2.2859,-2.2873,-2.3006,-2.3113,-2.3126,-2.326,-2.3423,-2.3354,-2.3487,-2.3567,-2.3581,-2.3674,-2.3834,-2.3968,-2.4008,-2.4075,-2.4222,-2.4356,-2.4436,-2.4449,-2.4496,-2.4636,-2.4636,-2.4636,-2.4636,-2.4636,-2.4636,-2.4636,-2.4636,-2.4636,-2.4636,-2.4636,-2.4636,-2.4636,-2.4636,-2.4636,-2.4636,-2.4636,-2.4636,-2.4636,-2.4636,-2.4636,-2.4636,-2.4636,-2.4636,-2.4636,-2.4636,-2.4636,-2.4636,-2.4116,-2.4116,-2.4178,-2.5085,-2.6668,-2.8397,-3.0027,-3.1345,-3.0335,-2.9923,-2.9959,-3.0236,-3.0666,-3.1206,-3.2411,-3.2377,-3.167,-3.2765,-3.2638,-3.1625,-3.2765,-3.2702,-3.1515,-3.1525,-3.0851,-2.9695,-2.9616,-2.9668,-2.9702,-2.9961,-3.0099,-3.0133,-3.0054,-2.9237,-2.7862,-2.7447,-2.6504,-2.5116,-2.4579,-2.3997,-2.3142,-2.3073,-2.3142,-2.306,-2.3073,-2.3129,-2.3073,-2.3142,-2.306,-2.3129,-2.3006,-2.2966,-2.2966,-2.2899,-2.2859,-2.2859,-2.2859,-2.2968,-2.2966,-2.3033,-2.3073,-2.3142,-2.3287,-2.3434,-2.3407,-2.3207,-2.3129,-2.31,-2.33,-2.342,-2.3447,-2.3621,-2.3781,-2.3781,-2.3834,-2.3861,-2.3875,-2.3928,-2.4048,-2.4262,-2.4302,-2.4396,-2.4569,-2.4636,-2.4623,-2.4609,-2.4636,-2.4636,-2.4636,-2.4636,-2.4636,-2.4636,-2.4636,-2.4636,-2.4636,-2.4636,-2.4636,-2.4636,-2.4636,-2.4636,-2.4636,-2.4636,-2.4636,-2.4636,-2.4636,-2.4636,-2.4636,-2.4636,-2.4636,-2.4636,-2.4636,-2.4636,-2.4636,-2.4636,-2.4636,-2.5802,-2.5802,-2.5802,-2.6712,-2.8343,-3.0282,-3.1286,-3.1581,-3.2141,-3.249,-3.2347,-3.2529,-3.27,-3.3131,-3.3214,-3.317,-3.3082,-3.3292,-3.3292,-3.3102,-3.3292,-3.3292,-3.316,-3.3572,-3.3682,-3.3443,-3.3685,-3.3688,-3.3688,-3.3915,-3.4104,-3.3953,-3.2648,-3.1747,-3.1393,-2.9936,-2.9048,-2.8894,-2.8829,-2.7162,-2.3958,-2.3688,-2.3688,-2.3688,-2.3688,-2.3688,-2.3647,-2.3688,-2.3688,-2.3661,-2.342,-2.3287,-2.326,-2.302,-2.2873,-2.2886,-2.2873,-2.2979,-2.326,-2.3541,-2.3732,-2.3688,-2.3701,-2.3728,-2.3728,-2.3785,-2.3688,-2.3701,-2.3714,-2.3728,-2.3728,-2.3781,-2.3834,-2.3861,-2.4035,-2.4155,-2.4182,-2.4409,-2.4569,-2.4583,-2.4556,-2.4536,-2.4623,-2.4636,-2.4636,-2.4636,-2.4636,-2.4636,-2.4636,-2.4844,-2.4918,-2.4784,-2.4636,-2.471,-2.4636,-2.4636,-2.4797,-2.4723,-2.4649,-2.475,-2.479,-2.4716,-2.4649,-2.481,-2.4703,-2.473,-2.4703,-2.4636,-2.4676,-2.4756,-2.4743,-2.4676,-2.4649,-2.469,-2.4703,-2.7434,-2.7452,-2.7434,-2.8493,-3.0263,-3.1128,-3.1816,-3.2305,-3.2637,-3.293,-3.3144,-3.3164,-3.3262,-3.3418,-3.3418,-3.3418,-3.3418,-3.3418,-3.3555,-3.3789,-3.3809,-3.3926,-3.418,-3.4355,-3.4453,-3.4453,-3.4629,-3.4687,-3.4746,-3.498,-3.5234,-3.5382,-3.4729,-3.3879,-3.2752,-3.2047,-3.1063,-2.9934,-2.9934,-2.9163,-2.7666,-2.622,-2.4932,-2.391,-2.3781,-2.3781,-2.3781,-2.3781,-2.3781,-2.3768,-2.3647,-2.3594,-2.3594,-2.346,-2.3394,-2.3394,-2.3464,-2.346,-2.3581,-2.3701,-2.3781,-2.3781,-2.3928,-2.4022,-2.4035,-2.4182,-2.4289,-2.4262,-2.4128,-2.4022,-2.4035,-2.4182,-2.4275,-2.4302,-2.4396,-2.4449,-2.4462,-2.4482,-2.4636,-2.4636,-2.4636,-2.4636,-2.4636,-2.4636,-2.4636,-2.4636,-2.4636,-2.477,-2.4697,-2.5566,-2.6284,-2.6312,-2.6426,-2.588,-2.5193,-2.5639,-2.5796,-2.5357,-2.5843,-2.6362,-2.5466,-2.5157,-2.5157,-2.5206,-2.5404,-2.5404,-2.5184,-2.5157,-2.5157,-2.5268,-2.5144,-2.5157,-2.5157,-2.5157,-2.5157,-2.9098,-2.9116,-2.9209,-3.0181,-3.1699,-3.1816,-3.2226,-3.2773,-3.291,-3.3144,-3.3398,-3.3418,-3.3496,-3.3574,-3.3476,-3.3476,-3.3594,-3.3594,-3.3828,-3.4219,-3.4238,-3.4394,-3.4687,-3.4844,-3.4883,-3.4902,-3.5019,-3.5078,-3.5098,-3.5391,-3.5723,-3.5996,-3.6035,-3.5314,-3.4089,-3.3951,-3.3291,-3.2001,-3.1878,-3.1597,-3.0949,-2.9309,-2.7531,-2.5811,-2.5613,-2.5598,-2.5598,-2.5613,-2.5328,-2.4842,-2.4701,-2.4432,-2.3959,-2.3821,-2.3781,-2.3781,-2.3848,-2.3888,-2.3888,-2.3968,-2.4008,-2.4022,-2.4209,-2.4315,-2.4356,-2.4516,-2.4549,-2.4609,-2.4449,-2.4315,-2.4342,-2.4516,-2.4623,-2.4636,-2.4636,-2.4636,-2.4623,-2.4636,-2.4844,-2.5286,-2.5566,-2.5639,-2.6064,-2.6342,-2.6415,-2.6415,-2.6342,-2.6123,-2.6298,-2.7565,-2.8496,-2.8511,-2.87,-2.8248,-2.6763,-2.6982,-2.7232,-2.7644,-2.8266,-2.8564,-2.7395,-2.7273,-2.7212,-2.8134,-2.7456,-2.7258,-2.7834,-2.7517,-2.7074,-2.7074,-2.6847,-2.6558,-2.655,-2.6088,-2.5568,-3.082,-3.084,-3.121,-3.1618,-3.2168,-3.2539,-3.2754,-3.2871,-3.3223,-3.3398,-3.3418,-3.3437,-3.3652,-3.3984,-3.3652,-3.3672,-3.4004,-3.4043,-3.4277,-3.4648,-3.4687,-3.4687,-3.4726,-3.5137,-3.5351,-3.5391,-3.5684,-3.5879,-3.5898,-3.5957,-3.5996,-3.6016,-3.6035,-3.5947,-3.5743,-3.5675,-3.5811,-3.5382,-3.5314,-3.4815,-3.3309,-3.2908,-3.1844,-3.0211,-2.9889,-2.9715,-2.9802,-2.9889,-2.9123,-2.7373,-2.706,-2.6127,-2.4503,-2.4143,-2.4093,-2.4035,-2.4179,-2.4254,-2.4354,-2.4555,-2.4616,-2.4569,-2.4703,-2.4683,-2.4864,-2.5038,-2.5125,-2.477,-2.5098,-2.5011,-2.4937,-2.5024,-2.4844,-2.4844,-2.471,-2.477,-2.4844,-2.4991,-2.5566,-2.6925,-2.736,-2.7924,-2.9527,-3.0026,-2.9686,-2.9631,-2.9829,-2.979,-2.9672,-3.0369,-3.0805,-3.0904,-3.1102,-3.1267,-3.068,-3.0041,-2.9913,-3.0071,-3.0441,-3.1211,-3.1342,-3.1342,-3.1154,-3.1039,-3.0601,-3.0617,-3.1097,-3.117,-3.0792,-3.0304,-2.9228,-2.8762,-2.8655,-2.6842,-2.6503,-3.1465,-3.1719,-3.1875,-3.2187,-3.2559,-3.2734,-3.2949,-3.3203,-3.334,-3.3418,-3.3476,-3.3711,-3.3926,-3.4082,-3.4199,-3.4316,-3.4473,-3.4473,-3.4707,-3.5098,-3.5137,-3.5293,-3.5547,-3.5723,-3.5801,-3.582,-3.5937,-3.6035,-3.6035,-3.6035,-3.6035,-3.6035,-3.6035,-3.6035,-3.6035,-3.6035,-3.6035,-3.6035,-3.6035,-3.5675,-3.5021,-3.5021,-3.459,-3.3882,-3.151,-3.031,-3.031,-3.031,-2.9955,-2.9329,-2.9186,-2.8783,-2.8212,-2.8033,-2.7971,-2.7987,-2.8008,-2.7583,-2.6561,-2.643,-2.5859,-2.4857,-2.5786,-2.643,-2.6707,-2.749,-2.8254,-2.8182,-2.8182,-2.8254,-2.7981,-2.7201,-2.643,-2.643,-2.6502,-2.6925,-2.7692,-2.7273,-2.7215,-2.8757,-2.9329,-2.9615,-3.0272,-3.031,-3.0392,-3.0678,-3.08,-3.0971,-3.1332,-3.2296,-3.3247,-3.33,-3.3564,-3.4158,-3.5443,-3.3603,-3.2548,-3.2328,-3.2446,-3.2672,-3.2855,-3.2682,-3.2434,-3.2608,-3.2682,-3.2814,-3.2855,-3.2797,-3.2797,-3.2516,-3.1485,-3.112,-3.107,-2.964,-2.9519,-3.1992,-3.2344,-3.2383,-3.2617,-3.2969,-3.3008,-3.3164,-3.3437,-3.3574,-3.3633,-3.3711,-3.4082,-3.4355,-3.4531,-3.4805,-3.5019,-3.5098,-3.5,-3.5176,-3.5566,-3.5605,-3.5742,-3.5976,-3.6035,-3.6035,-3.6016,-3.6035,-3.6035,-3.6035,-3.6035,-3.6035,-3.6035,-3.6035,-3.6035,-3.6035,-3.6035,-3.6035,-3.6035,-3.6035,-3.6035,-3.6035,-3.6035,-3.6035,-3.5675,-3.3448,-3.2158,-3.2158,-3.2158,-3.1808,-3.1299,-3.1228,-3.0946,-3.038,-3.031,-3.031,-3.031,-3.0239,-2.9812,-2.8629,-2.8413,-2.7837,-2.6634,-2.7563,-2.8413,-2.8485,-2.9599,-3.0168,-3.031,-3.031,-3.031,-3.0239,-2.9686,-2.9059,-2.8629,-2.8413,-2.8916,-3.0026,-2.9115,-2.9401,-3.0876,-3.1878,-3.2211,-3.2316,-3.2421,-3.2756,-3.3019,-3.3072,-3.3195,-3.3622,-3.4541,-3.5569,-3.5606,-3.5921,-3.6581,-3.7234,-3.6122,-3.5467,-3.5211,-3.4861,-3.4836,-3.4645,-3.4284,-3.4203,-3.4336,-3.4411,-3.4411,-3.4411,-3.4411,-3.4336,-3.4278,-3.3764,-3.3327,-3.3053,-3.2667,-3.2347,-3.2422,-3.2773,-3.2793,-3.3027,-3.334,-3.3359,-3.3398,-3.3535,-3.3867,-3.4023,-3.4121,-3.4512,-3.4922,-3.5273,-3.5351,-3.5605,-3.5781,-3.5547,-3.5586,-3.5937,-3.5976,-3.5976,-3.6035,-3.6035,-3.6035,-3.6035,-3.6035,-3.6035,-3.6035,-3.6035,-3.6035,-3.6035,-3.6035,-3.6035,-3.6035,-3.6035,-3.6035,-3.6035,-3.6035,-3.6035,-3.6035,-3.6035,-3.6035,-3.6035,-3.5675,-3.5519,-3.5724,-3.5655,-3.4796,-3.3448,-3.324,-3.2298,-3.1087,-3.0805,-3.0593,-3.0805,-3.0593,-3.0451,-3.031,-3.031,-3.0239,-2.9741,-3.0168,-3.031,-3.038,-3.0664,-3.0946,-3.1017,-3.0876,-3.0664,-3.1087,-3.2018,-3.2176,-3.0664,-3.031,-3.0451,-3.0664,-3.0539,-3.1104,-3.2997,-3.4564,-3.6025,-3.6405,-3.6085,-3.6029,-3.6355,-3.6559,-3.6617,-3.6608,-3.7091,-3.7676,-3.7773,-3.7658,-3.7943,-3.8331,-3.8555,-3.8482,-3.8336,-3.7874,-3.7547,-3.7253,-3.696,-3.6905,-3.7017,-3.711,-3.711,-3.7073,-3.7073,-3.7389,-3.7203,-3.646,-3.5713,-3.5578,-3.5273,-3.426,-3.2851,-3.3223,-3.3223,-3.3301,-3.3418,-3.3418,-3.3574,-3.3867,-3.4023,-3.4238,-3.4551,-3.498,-3.5273,-3.5449,-3.5684,-3.5898,-3.5996,-3.5879,-3.5898,-3.6016,-3.6035,-3.6035,-3.6035,-3.6035,-3.6035,-3.6035,-3.6035,-3.6035,-3.6035,-3.6035,-3.6035,-3.6035,-3.6035,-3.6035,-3.6035,-3.6035,-3.6035,-3.6035,-3.6035,-3.6035,-3.6035,-3.6035,-3.6035,-3.6035,-3.6035,-3.6035,-3.6035,-3.6035,-3.5743,-3.5089,-3.5089,-3.4796,-3.4314,-3.4227,-3.4227,-3.4227,-3.4227,-3.3586,-3.2455,-3.2246,-3.1738,-3.0946,-3.1527,-3.2246,-3.2455,-3.3448,-3.402,-3.4158,-3.4227,-3.4227,-3.4365,-3.4659,-3.4245,-3.2525,-3.2316,-3.2822,-3.3729,-3.4348,-3.4934,-3.5496,-3.6352,-3.6953,-3.7051,-3.7109,-3.7266,-3.7637,-3.7734,-3.7793,-3.8105,-3.8203,-3.8359,-3.8398,-3.8555,-3.8613,-3.8672,-3.875,-3.8809,-3.8848,-3.8828,-3.8828,-3.8809,-3.8887,-3.8965,-3.9062,-3.9238,-3.9336,-3.9375,-3.9375,-3.9316,-3.9375,-3.8479,-3.8273,-3.8367,-3.7671,-3.6561,-3.3184,-3.3418,-3.3418,-3.3418,-3.3437,-3.3574,-3.3809,-3.4121,-3.4434,-3.4707,-3.5019,-3.543,-3.5625,-3.5684,-3.5898,-3.6016,-3.6035,-3.6035,-3.6035,-3.6035,-3.6035,-3.6035,-3.6035,-3.6035,-3.6035,-3.6035,-3.6035,-3.6035,-3.6035,-3.6035,-3.6035,-3.6035,-3.6035,-3.6035,-3.6035,-3.6035,-3.6035,-3.6035,-3.6035,-3.6035,-3.6035,-3.6035,-3.6035,-3.6035,-3.6035,-3.6035,-3.6035,-3.6035,-3.6035,-3.6035,-3.6035,-3.6035,-3.6035,-3.5947,-3.6035,-3.6035,-3.5947,-3.5382,-3.4383,-3.4227,-3.3812,-3.2943,-3.3586,-3.4245,-3.4452,-3.5519,-3.5947,-3.6035,-3.5879,-3.6035,-3.5947,-3.5967,-3.5508,-3.4677,-3.432,-3.489,-3.6113,-3.6641,-3.6875,-3.6883,-3.7109,-3.7344,-3.748,-3.7539,-3.7715,-3.8047,-3.8164,-3.8203,-3.8516,-3.8555,-3.8574,-3.8574,-3.8574,-3.8672,-3.8809,-3.8926,-3.9023,-3.9082,-3.9121,-3.918,-3.9219,-3.9355,-3.9473,-3.9492,-3.9609,-3.9629,-3.9668,-3.9726,-3.9707,-3.9883,-3.9961,-3.9579,-3.9237,-3.9351,-3.8652,-3.3418,-3.3418,-3.3418,-3.3437,-3.3535,-3.3867,-3.4121,-3.4316,-3.498,-3.5351,-3.5508,-3.5801,-3.5976,-3.6016,-3.6016,-3.6035,-3.6035,-3.6035,-3.6035,-3.6035,-3.6035,-3.6035,-3.6035,-3.6035,-3.6035,-3.6035,-3.6035,-3.6035,-3.6035,-3.6035,-3.6035,-3.6035,-3.6035,-3.6035,-3.6035,-3.6035,-3.6035,-3.6035,-3.6035,-3.6035,-3.6035,-3.6035,-3.6035,-3.6035,-3.6035,-3.6035,-3.6035,-3.6035,-3.6035,-3.6035,-3.6035,-3.6035,-3.6035,-3.6035,-3.6035,-3.6035,-3.6035,-3.5967,-3.5947,-3.5675,-3.5655,-3.5451,-3.5519,-3.6035,-3.5811,-3.5811,-3.6035,-3.6035,-3.6035,-3.6055,-3.6074,-3.6113,-3.622,-3.6582,-3.6081,-3.6249,-3.668,-3.709,-3.7305,-3.7344,-3.7363,-3.7519,-3.791,-3.7949,-3.8144,-3.8398,-3.8516,-3.8535,-3.8574,-3.8613,-3.8633,-3.8691,-3.8789,-3.9004,-3.9238,-3.9277,-3.9414,-3.9648,-3.9629,-3.9609,-3.9648,-3.9785,-4.0039,-4.0039,-4.0019,-4.0,-4.0059,-4.0176,-4.0215,-4.0273,-4.0215,-4.0019,-4.0039,-4.0176,-4.0195,-3.3418,-3.3418,-3.3418,-3.3613,-3.3887,-3.4043,-3.4453,-3.5019,-3.5273,-3.5586,-3.582,-3.5957,-3.6035,-3.6035,-3.6035,-3.6035,-3.6035,-3.6035,-3.6035,-3.6035,-3.6035,-3.6035,-3.6035,-3.6035,-3.6035,-3.6035,-3.6035,-3.6035,-3.6035,-3.6035,-3.6035,-3.6035,-3.6035,-3.6035,-3.6035,-3.6035,-3.6035,-3.6035,-3.6035,-3.6035,-3.6035,-3.6035,-3.6035,-3.6035,-3.6035,-3.6035,-3.6035,-3.6035,-3.6035,-3.6035,-3.6035,-3.6035,-3.6035,-3.6035,-3.6035,-3.6035,-3.6035,-3.6035,-3.6035,-3.6035,-3.6035,-3.6035,-3.6035,-3.6035,-3.6035,-3.6035,-3.6035,-3.6035,-3.6035,-3.6172,-3.6406,-3.6504,-3.6719,-3.7031,-3.7012,-3.6992,-3.7168,-3.75,-3.7754,-3.7773,-3.8027,-3.8223,-3.8301,-3.8379,-3.8418,-3.8535,-3.8613,-3.8613,-3.8691,-3.8926,-3.9062,-3.918,-3.9316,-3.9531,-3.9687,-3.9707,-3.9863,-4.0195,-4.0215,-4.0098,-4.0117,-4.0156,-4.0488,-4.0762,-4.0644,-4.0605,-4.0742,-4.0879,-4.084,-4.0664,-4.0703,-4.0625,-4.0762,-4.0879,-4.084,-3.3418,-3.3437,-3.3613,-3.3848,-3.4121,-3.4453,-3.4922,-3.5371,-3.5586,-3.5781,-3.5996,-3.6035,-3.6035,-3.6035,-3.6035,-3.6035,-3.6035,-3.6035,-3.6035,-3.6035,-3.6035,-3.6035,-3.6035,-3.6035,-3.6035,-3.6035,-3.6035,-3.6035,-3.6035,-3.6035,-3.6035,-3.6035,-3.6035,-3.6035,-3.6035,-3.6035,-3.6035,-3.6035,-3.6035,-3.6035,-3.6035,-3.6035,-3.6035,-3.6035,-3.6035,-3.6035,-3.6035,-3.6035,-3.6035,-3.6035,-3.6035,-3.6035,-3.6035,-3.6035,-3.6035,-3.6035,-3.6035,-3.6035,-3.6035,-3.6035,-3.6035,-3.6035,-3.6035,-3.6035,-3.6035,-3.6035,-3.6055,-3.6289,-3.6289,-3.6523,-3.6855,-3.709,-3.7285,-3.7519,-3.7715,-3.7734,-3.7598,-3.7949,-3.8164,-3.8262,-3.8418,-3.8574,-3.8574,-3.8574,-3.8594,-3.8613,-3.8789,-3.8828,-3.8906,-3.9238,-3.9512,-3.9609,-3.9726,-3.9902,-4.0098,-4.0156,-4.0273,-4.0605,-4.0664,-4.0566,-4.0547,-4.0547,-4.0781,-4.1055,-4.1133,-4.1172,-4.1172,-4.1172,-4.1094,-4.1016,-4.1152,-4.1172,-4.1172,-4.1172,-4.1172,-3.3457,-3.3535,-3.3906,-3.4121,-3.4355,-3.5039,-3.5391,-3.5547,-3.584,-3.5996,-3.6035,-3.6035,-3.6035,-3.6035,-3.6035,-3.6035,-3.6035,-3.6035,-3.6035,-3.6035,-3.6035,-3.6035,-3.6035,-3.6035,-3.6035,-3.6035,-3.6035,-3.6035,-3.6035,-3.6035,-3.6035,-3.6035,-3.6035,-3.6035,-3.6035,-3.6035,-3.6035,-3.6035,-3.6035,-3.6035,-3.6035,-3.6035,-3.6035,-3.6035,-3.6035,-3.6035,-3.6035,-3.6035,-3.6035,-3.6035,-3.6035,-3.6035,-3.6035,-3.6035,-3.6035,-3.6035,-3.6035,-3.6035,-3.6035,-3.6035,-3.6035,-3.6035,-3.6035,-3.6074,-3.6113,-3.6172,-3.6309,-3.6699,-3.6738,-3.6953,-3.7324,-3.7715,-3.793,-3.8027,-3.832,-3.832,-3.8184,-3.834,-3.8574,-3.8574,-3.8574,-3.8574,-3.8594,-3.8613,-3.8672,-3.8848,-3.9023,-3.9258,-3.9394,-3.9687,-3.9883,-3.9961,-4.0098,-4.0234,-4.043,-4.0605,-4.0781,-4.0976,-4.0996,-4.0957,-4.0957,-4.0976,-4.1055,-4.1172,-4.1172,-4.1172,-4.1172,-4.1172,-4.1172,-4.1172,-4.1172,-4.1172,-4.1172,-4.1172,-4.1172,-3.3633,-3.3945,-3.4043,-3.4473,-3.5078,-3.5332,-3.5586,-3.5879,-3.5976,-3.6035,-3.6035,-3.6035,-3.6035,-3.6035,-3.6035,-3.6035,-3.6035,-3.6035,-3.6035,-3.6035,-3.6035,-3.6035,-3.6035,-3.6035,-3.6035,-3.6035,-3.6035,-3.6035,-3.6035,-3.6035,-3.6035,-3.6035,-3.6035,-3.6035,-3.6035,-3.6035,-3.6035,-3.6035,-3.6035,-3.6035,-3.6035,-3.6035,-3.6035,-3.6035,-3.6035,-3.6035,-3.6035,-3.6035,-3.6035,-3.6035,-3.6035,-3.6035,-3.6035,-3.6035,-3.6035,-3.6035,-3.6035,-3.6035,-3.6035,-3.6035,-3.6035,-3.6074,-3.6133,-3.6172,-3.6523,-3.6523,-3.6738,-3.7051,-3.7168,-3.7344,-3.7754,-3.8184,-3.834,-3.8418,-3.8476,-3.8535,-3.8476,-3.8516,-3.8574,-3.8574,-3.8574,-3.8574,-3.8613,-3.8887,-3.9004,-3.9101,-3.9375,-3.9687,-3.9922,-4.0137,-4.0273,-4.0391,-4.0527,-4.0664,-4.0723,-4.0879,-4.0976,-4.1113,-4.1152,-4.1172,-4.1172,-4.1172,-4.1172,-4.1172,-4.1172,-4.1172,-4.1172,-4.1172,-4.1172,-4.1172,-4.1172,-4.1172,-4.1172,-4.1172,-4.1172,-3.3672,-3.4082,-3.4297,-3.4766,-3.5351,-3.5605,-3.5801,-3.5996,-3.6035,-3.6035,-3.6035,-3.6035,-3.6035,-3.6035,-3.6035,-3.6035,-3.6035,-3.6035,-3.6035,-3.6035,-3.6035,-3.6035,-3.6035,-3.6035,-3.6035,-3.6035,-3.6035,-3.6035,-3.6035,-3.6035,-3.6035,-3.6035,-3.6035,-3.6035,-3.6035,-3.6035,-3.6035,-3.6035,-3.6035,-3.6035,-3.6035,-3.6035,-3.6035,-3.6035,-3.6035,-3.6035,-3.6035,-3.6035,-3.6035,-3.6035,-3.6035,-3.6035,-3.6035,-3.6035,-3.6035,-3.6035,-3.6035,-3.6035,-3.6035,-3.6211,-3.6348,-3.6328,-3.6484,-3.6719,-3.6914,-3.6973,-3.7168,-3.7461,-3.7617,-3.7754,-3.8184,-3.8379,-3.8555,-3.8574,-3.8574,-3.8574,-3.8574,-3.8574,-3.8574,-3.8574,-3.8574,-3.8711,-3.8867,-3.916,-3.9375,-3.9492,-3.9883,-4.0195,-4.0293,-4.0508,-4.0723,-4.0879,-4.1016,-4.1094,-4.1094,-4.1113,-4.1094,-4.1152,-4.1152,-4.1172,-4.1172,-4.1172,-4.1172,-4.1172,-4.1172,-4.1172,-4.1172,-4.1172,-4.1172,-4.1172,-4.1172,-4.1172,-4.1172,-4.1172,-4.1172,-3.3711,-3.4199,-3.4551,-3.5,-3.5508,-3.5859,-3.6016,-3.6016,-3.6035,-3.6035,-3.6035,-3.6035,-3.6035,-3.6035,-3.6035,-3.6035,-3.6035,-3.6035,-3.6035,-3.6035,-3.6035,-3.6035,-3.6035,-3.6035,-3.6035,-3.6035,-3.6035,-3.6035,-3.6035,-3.6035,-3.6035,-3.6035,-3.6035,-3.6035,-3.6035,-3.6035,-3.6035,-3.6035,-3.6035,-3.6035,-3.6035,-3.6035,-3.6035,-3.6035,-3.6035,-3.6035,-3.6035,-3.6035,-3.6035,-3.6035,-3.6094,-3.6113,-3.6094,-3.6035,-3.6035,-3.6035,-3.6113,-3.6191,-3.6289,-3.6523,-3.6758,-3.6777,-3.7051,-3.7285,-3.7363,-3.7422,-3.7617,-3.7851,-3.8047,-3.8144,-3.8516,-3.8574,-3.8574,-3.8574,-3.8574,-3.8574,-3.8594,-3.8613,-3.8711,-3.8711,-3.8809,-3.8926,-3.9219,-3.9512,-3.9707,-3.9941,-4.0332,-4.0625,-4.0723,-4.082,-4.0996,-4.1074,-4.1133,-4.1172,-4.1172,-4.1172,-4.1172,-4.1172,-4.1172,-4.1172,-4.1172,-4.1172,-4.1172,-4.1172,-4.1172,-4.1172,-4.1172,-4.1172,-4.1172,-4.1172,-4.1172,-4.1172,-4.1172,-4.1172,-4.1172,-3.3887,-3.4609,-3.4668,-3.5156,-3.5859,-3.5996,-3.6035,-3.6035,-3.6035,-3.6035,-3.6035,-3.6035,-3.6035,-3.6035,-3.6035,-3.6035,-3.6035,-3.6035,-3.6035,-3.6035,-3.6035,-3.6035,-3.6035,-3.6035,-3.6035,-3.6035,-3.6035,-3.6035,-3.6035,-3.6035,-3.6035,-3.6035,-3.6035,-3.6035,-3.6035,-3.6035,-3.6035,-3.6035,-3.6035,-3.6035,-3.6035,-3.6035,-3.6055,-3.6074,-3.6113,-3.6113,-3.6094,-3.6055,-3.6035,-3.6055,-3.6367,-3.6523,-3.6504,-3.6269,-3.6133,-3.6191,-3.6406,-3.6562,-3.6621,-3.6953,-3.7148,-3.7207,-3.7344,-3.7539,-3.7715,-3.7832,-3.8008,-3.8262,-3.8418,-3.8496,-3.8555,-3.8574,-3.8574,-3.8574,-3.8613,-3.8613,-3.8672,-3.8887,-3.9121,-3.9199,-3.9199,-3.9258,-3.9609,-3.9922,-4.0137,-4.0371,-4.0684,-4.0879,-4.0957,-4.1016,-4.1094,-4.1152,-4.1152,-4.1172,-4.1172,-4.1172,-4.1172,-4.1172,-4.1172,-4.1172,-4.1172,-4.1172,-4.1172,-4.1289,-4.123,-4.1172,-4.1172,-4.1172,-4.1172,-4.1172,-4.1172,-4.1172,-4.1172,-4.1172,-4.1172,-3.4121,-3.4707,-3.4961,-3.543,-3.5957,-3.6035,-3.6035,-3.6035,-3.6035,-3.6035,-3.6035,-3.6035,-3.6035,-3.6035,-3.6035,-3.6035,-3.6084,-3.6035,-3.6035,-3.6035,-3.6035,-3.6035,-3.6035,-3.6035,-3.6035,-3.6035,-3.6035,-3.6035,-3.6035,-3.6035,-3.6035,-3.6035,-3.6035,-3.6035,-3.6035,-3.6035,-3.6035,-3.6035,-3.6035,-3.6035,-3.6035,-3.6035,-3.6113,-3.6309,-3.6387,-3.6465,-3.666,-3.668,-3.6699,-3.6738,-3.6894,-3.6973,-3.6934,-3.6836,-3.668,-3.6719,-3.6875,-3.6992,-3.7051,-3.7383,-3.7598,-3.7656,-3.7793,-3.8027,-3.8184,-3.8281,-3.834,-3.8496,-3.8574,-3.8574,-3.8574,-3.8594,-3.8574,-3.8613,-3.875,-3.8887,-3.8984,-3.9316,-3.957,-3.9746,-3.9707,-3.9824,-4.0098,-4.0371,-4.0605,-4.082,-4.1035,-4.1113,-4.1172,-4.1172,-4.1172,-4.1172,-4.1172,-4.1172,-4.1191,-4.125,-4.1269,-4.125,-4.1328,-4.1328,-4.1348,-4.1426,-4.1484,-4.1562,-4.1445,-4.1348,-4.1191,-4.1211,-4.1191,-4.1211,-4.125,-4.1269,-4.1211,-4.1172,-4.1269,-3.4316,-3.4746,-3.5195,-3.5644,-3.5996,-3.6035,-3.6219,-3.6403,-3.6152,-3.6287,-3.6539,-3.6606,-3.6606,-3.6674,-3.6991,-3.7193,-3.6991,-3.6924,-3.6674,-3.6606,-3.6152,-3.6035,-3.6035,-3.6035,-3.6035,-3.6035,-3.6035,-3.6035,-3.6035,-3.6035,-3.6035,-3.6035,-3.6035,-3.6035,-3.6035,-3.6035,-3.6035,-3.6035,-3.6035,-3.6035,-3.6133,-3.625,-3.6426,-3.6758,-3.6797,-3.6953,-3.7168,-3.7187,-3.7187,-3.7246,-3.7344,-3.7422,-3.7441,-3.75,-3.7559,-3.7539,-3.748,-3.7441,-3.7519,-3.7812,-3.8047,-3.8066,-3.8359,-3.8516,-3.8555,-3.8496,-3.8555,-3.8574,-3.8574,-3.8574,-3.8594,-3.8652,-3.8711,-3.8809,-3.9082,-3.9355,-3.9473,-3.9707,-4.0078,-4.0176,-4.0176,-4.0332,-4.0586,-4.0684,-4.0879,-4.0918,-4.1133,-4.1133,-4.1172,-4.1172,-4.1172,-4.1172,-4.1172,-4.1172,-4.123,-4.1367,-4.1406,-4.1445,-4.1621,-4.1738,-4.1738,-4.1758,-4.1836,-4.1933,-4.1816,-4.1699,-4.1484,-4.1426,-4.1621,-4.168,-4.1504,-4.1484,-4.1641,-4.168,-4.1719,-3.4316,-3.4746,-3.5215,-3.5644,-3.6064,-3.6152,-3.6991,-3.8021,-3.6856,-3.6924,-3.8287,-3.8287,-3.8287,-3.8531,-3.9758,-4.0343,-4.0018,-3.8993,-3.8287,-3.8154,-3.7126,-3.6606,-3.6219,-3.6035,-3.6327,-3.6366,-3.6142,-3.6035,-3.6133,-3.6133,-3.6055,-3.6074,-3.6152,-3.6074,-3.6211,-3.623,-3.6035,-3.6055,-3.6074,-3.625,-3.6582,-3.6894,-3.709,-3.7187,-3.7226,-3.7305,-3.7441,-3.7461,-3.7441,-3.7441,-3.7695,-3.7832,-3.791,-3.8242,-3.8379,-3.8301,-3.8105,-3.7851,-3.793,-3.8203,-3.8418,-3.8398,-3.8535,-3.8574,-3.8574,-3.8574,-3.8574,-3.8574,-3.8594,-3.8633,-3.873,-3.8945,-3.9082,-3.9277,-3.9531,-3.9746,-3.9883,-4.0176,-4.0508,-4.0605,-4.0605,-4.0801,-4.1016,-4.1074,-4.1133,-4.1152,-4.1172,-4.1172,-4.1172,-4.1172,-4.1172,-4.1172,-4.1328,-4.1348,-4.1465,-4.1562,-4.168,-4.1719,-4.1894,-4.209,-4.2109,-4.2129,-4.2285,-4.2324,-4.2226,-4.2266,-4.2266,-4.2266,-4.2266,-4.2129,-4.1953,-4.207,-4.2285,-4.2246,-4.2109,-3.5626,-3.5269,-3.6642,-3.7325,-3.7554,-3.8465,-3.9387,-3.9758,-3.9322,-3.9387,-3.9953,-4.0083,-4.0083,-4.0343,-4.0988,-4.1117,-4.1052,-4.0408,-4.0083,-4.0018,-3.9256,-3.8861,-3.8795,-3.8042,-3.7522,-3.7584,-3.6955,-3.6601,-3.6651,-3.6622,-3.6406,-3.6426,-3.6621,-3.6777,-3.666,-3.6738,-3.6758,-3.6758,-3.6777,-3.6855,-3.7031,-3.7226,-3.7422,-3.7637,-3.7656,-3.7773,-3.793,-3.8027,-3.8027,-3.8047,-3.8242,-3.8281,-3.832,-3.8457,-3.8555,-3.8535,-3.8398,-3.8301,-3.832,-3.8476,-3.8555,-3.8574,-3.8574,-3.8574,-3.8574,-3.8594,-3.8594,-3.8574,-3.8809,-3.8906,-3.9004,-3.9336,-3.9512,-3.9707,-4.0,-4.0137,-4.0332,-4.0664,-4.0918,-4.0976,-4.1016,-4.1113,-4.1172,-4.1152,-4.1152,-4.1152,-4.1172,-4.1172,-4.1172,-4.1172,-4.1172,-4.1172,-4.1387,-4.1582,-4.1738,-4.1894,-4.209,-4.2168,-4.2187,-4.2363,-4.2422,-4.2519,-4.2695,-4.291,-4.2988,-4.3027,-4.3066,-4.2793,-4.2519,-4.2441,-4.2402,-4.2519,-4.2617,-4.2461,-4.2344,-3.7097,-3.7039,-3.8582,-3.9256,-3.9366,-4.0666,-4.1437,-4.182,-4.1245,-4.1373,-4.1756,-4.1884,-4.2011,-4.2477,-4.2667,-4.2855,-4.258,-4.2011,-4.1884,-4.1756,-4.146,-4.1142,-4.0735,-3.993,-3.9683,-4.011,-3.9255,-3.8856,-3.8815,-3.856,-3.83,-3.7044,-3.7778,-3.7608,-3.7336,-3.7226,-3.7187,-3.7187,-3.7324,-3.7422,-3.748,-3.7598,-3.7832,-3.7988,-3.8125,-3.8242,-3.8516,-3.8535,-3.8535,-3.8535,-3.8516,-3.8516,-3.8535,-3.8555,-3.8574,-3.8574,-3.8516,-3.8516,-3.8516,-3.8574,-3.8574,-3.8574,-3.8574,-3.8574,-3.8594,-3.8633,-3.873,-3.8789,-3.916,-3.9336,-3.9473,-3.9785,-3.998,-4.0176,-4.043,-4.0566,-4.0703,-4.0918,-4.1074,-4.1074,-4.1094,-4.1133,-4.1172,-4.1172,-4.1172,-4.1172,-4.1172,-4.1191,-4.123,-4.1269,-4.1367,-4.1426,-4.1719,-4.1953,-4.207,-4.2246,-4.2441,-4.2617,-4.2637,-4.2754,-4.2891,-4.3008,-4.3183,-4.3398,-4.3535,-4.3496,-4.3379,-4.3047,-4.2754,-4.291,-4.2988,-4.2891,-4.2832,-4.2715,-4.2715,-3.8679,-4.0815,-4.0966,-4.1052,-4.1052,-4.1117,-4.2201,-4.3419,-4.2011,-4.2328,-4.3482,-4.3606,-4.4374,-4.5342,-4.5342,-4.5403,-4.5671,-4.4251,-4.3669,-4.302,-4.2161,-4.218,-4.2169,-4.2178,-4.2034,-4.2437,-4.1704,-4.1748,-4.2349,-4.223,-4.0351,-3.8027,-3.9522,-3.8726,-3.8347,-3.8538,-3.8377,-3.8367,-3.8354,-3.8228,-3.8184,-3.8308,-3.8418,-3.8457,-3.8516,-3.8555,-3.8574,-3.8574,-3.8574,-3.8574,-3.8574,-3.8574,-3.8574,-3.8574,-3.8574,-3.8574,-3.8574,-3.8574,-3.8574,-3.8574,-3.8574,-3.8574,-3.8613,-3.8672,-3.8691,-3.9004,-3.9121,-3.9219,-3.959,-3.9805,-3.9961,-4.0195,-4.0449,-4.0566,-4.0742,-4.0879,-4.0957,-4.1016,-4.1133,-4.1152,-4.1172,-4.1172,-4.1172,-4.1172,-4.1172,-4.1172,-4.1348,-4.1367,-4.1465,-4.1523,-4.1699,-4.1855,-4.2168,-4.2363,-4.2422,-4.2637,-4.293,-4.3086,-4.3144,-4.3301,-4.3476,-4.3594,-4.3516,-4.3574,-4.3633,-4.3672,-4.3691,-4.3398,-4.3281,-4.3516,-4.3555,-4.332,-4.3281,-4.3262,-4.332,-4.1621,-4.2832,-4.3855,-4.3731,-4.2832,-4.3855,-4.4706,-4.5159,-4.4645,-4.462,-4.522,-4.5342,-4.5671,-4.618,-4.6326,-4.6326,-4.624,-4.5707,-4.5281,-4.5282,-4.496,-4.4977,-4.4966,-4.4472,-4.4324,-4.4457,-4.3954,-4.3422,-4.3578,-4.4817,-4.3962,-4.2554,-4.2376,-4.212,-4.1636,-4.0996,-4.1156,-4.0941,-4.0456,-4.0034,-3.981,-3.8925,-3.8574,-3.8574,-3.8574,-3.8574,-3.8574,-3.8574,-3.8574,-3.8574,-3.8574,-3.8574,-3.8574,-3.8574,-3.8574,-3.8574,-3.8574,-3.8594,-3.8613,-3.8594,-3.8574,-3.8633,-3.8789,-3.8965,-3.8984,-3.9375,-3.957,-3.9766,-4.0019,-4.0273,-4.0332,-4.0644,-4.0937,-4.0976,-4.1035,-4.1133,-4.1172,-4.1172,-4.1172,-4.1172,-4.1172,-4.1172,-4.1172,-4.1172,-4.1172,-4.1191,-4.1387,-4.1582,-4.1699,-4.1875,-4.209,-4.2285,-4.2578,-4.2773,-4.2851,-4.3125,-4.3437,-4.3516,-4.3594,-4.3633,-4.3691,-4.3691,-4.3633,-4.3691,-4.3691,-4.3691,-4.3691,-4.3691,-4.3691,-4.3691,-4.3691,-4.3633,-4.3652,-4.3691,-4.3691,-4.3647,-4.4596,-4.5793,-4.5586,-4.4682,-4.5793,-4.6326,-4.6326,-4.618,-4.6326,-4.6326,-4.6326,-4.6326,-4.6326,-4.6326,-4.6326,-4.6326,-4.6205,-4.6366,-4.6445,-4.6659,-4.7244,-4.7172,-4.7016,-4.6666,-4.6662,-4.6191,-4.5692,-4.6104,-4.7064,-4.6684,-4.5993,-4.5615,-4.5275,-4.3843,-4.4094,-4.4094,-4.368,-4.2988,-4.2171,-4.189,-4.1134,-4.0443,-4.032,-4.0033,-3.9622,-3.9405,-3.9136,-3.8574,-3.8574,-3.8574,-3.8574,-3.8574,-3.8574,-3.8574,-3.8574,-3.8594,-3.8633,-3.873,-3.8769,-3.8769,-3.8848,-3.9199,-3.9355,-3.9512,-3.9805,-4.0059,-4.0117,-4.0449,-4.0703,-4.0703,-4.0976,-4.1094,-4.1094,-4.1094,-4.1172,-4.1172,-4.1172,-4.1172,-4.1172,-4.1172,-4.123,-4.1523,-4.1582,-4.1601,-4.1621,-4.1797,-4.1973,-4.207,-4.2285,-4.2558,-4.2773,-4.2988,-4.3144,-4.3281,-4.3437,-4.3555,-4.3594,-4.3652,-4.3672,-4.3691,-4.3691,-4.3691,-4.3691,-4.3691,-4.3691,-4.3691,-4.3691,-4.3691,-4.3691,-4.3691,-4.3691,-4.3691,-4.3691,-4.3691,-4.4366,-4.6155,-4.624,-4.624,-4.6059,-4.624,-4.6326,-4.6326,-4.6326,-4.6326,-4.6326,-4.6326,-4.6326,-4.6326,-4.6326,-4.6326,-4.6351,-4.6376,-4.6577,-4.6918,-4.733,-4.7832,-4.8272,-4.8419,-4.8362,-4.9311,-4.8754,-4.8379,-4.8958,-4.8893,-4.8893,-4.8893,-4.8281,-4.7443,-4.4505,-4.4253,-4.4185,-4.4162,-4.4253,-4.4025,-4.3956,-4.3473,-4.3079,-4.2312,-4.1418,-4.0708,-3.9962,-3.9136,-3.8647,-3.8574,-3.8574,-3.8574,-3.8574,-3.8633,-3.8652,-3.8652,-3.8672,-3.8848,-3.9141,-3.918,-3.9238,-3.9277,-3.9609,-3.9844,-3.9961,-4.0234,-4.0508,-4.0547,-4.084,-4.1055,-4.1133,-4.1152,-4.1172,-4.1172,-4.1172,-4.1172,-4.1172,-4.1172,-4.1172,-4.1328,-4.1308,-4.1348,-4.1777,-4.2051,-4.207,-4.2148,-4.2266,-4.2363,-4.2461,-4.2715,-4.3008,-4.3125,-4.332,-4.3398,-4.3496,-4.3594,-4.3672,-4.3691,-4.3691,-4.3691,-4.3691,-4.3691,-4.3691,-4.3691,-4.3691,-4.3691,-4.3691,-4.3691,-4.3691,-4.3691,-4.3691,-4.3691,-4.3691,-4.3691,-4.3691,-4.5619,-4.6326,-4.6326,-4.6326,-4.6326,-4.6326,-4.6326,-4.6326,-4.6326,-4.6326,-4.6326,-4.6326,-4.6326,-4.6326,-4.6326,-4.6326,-4.6376,-4.6778,-4.6993,-4.7143,-4.7782,-4.8335,-4.8812,-4.9138,-4.9389,-4.954,-4.959,-4.959,-4.9461,-4.959,-4.959,-4.959,-4.9525,-4.8983,-4.8084,-4.7731,-4.7797,-4.7533,-4.6756,-4.5862,-4.5727,-4.4846,-4.3749,-4.2779,-4.2031,-4.1184,-4.0371,-3.955,-3.9156,-3.9103,-3.9195,-3.9123,-3.9129,-3.9155,-3.9131,-3.9156,-3.9254,-3.9492,-3.9726,-3.9844,-3.9922,-3.9922,-4.0039,-4.0312,-4.0351,-4.0723,-4.0898,-4.0937,-4.1055,-4.1172,-4.1172,-4.1172,-4.1172,-4.1172,-4.1172,-4.1172,-4.1172,-4.1172,-4.123,-4.1523,-4.1621,-4.1836,-4.2168,-4.2558,-4.2656,-4.2676,-4.2773,-4.2812,-4.2871,-4.3183,-4.3476,-4.3496,-4.3594,-4.3633,-4.3691,-4.3691,-4.3691,-4.3691,-4.3691,-4.3691,-4.3691,-4.3691,-4.3691,-4.3691,-4.3691,-4.3691,-4.3691,-4.3691,-4.3691,-4.3691,-4.3691,-4.3691,-4.3691,-4.3691,-4.3691,-4.6326,-4.6326,-4.6326,-4.6326,-4.6326,-4.6326,-4.6326,-4.6326,-4.6326,-4.6326,-4.6326,-4.6326,-4.6326,-4.6326,-4.6326,-4.6502,-4.6602,-4.6928,-4.7581,-4.7707,-4.836,-4.8812,-4.9138,-4.9389,-4.9515,-4.959,-4.959,-4.959,-4.959,-4.959,-4.959,-4.959,-4.959,-4.9461,-4.9307,-4.9242,-4.9332,-4.8918,-4.815,-4.7797,-4.7509,-4.6756,-4.5659,-4.4778,-4.3796,-4.2896,-4.1749,-4.0942,-4.0525,-4.0627,-4.0689,-4.0751,-4.0863,-4.063,-4.0559,-4.0552,-4.0105,-4.021,-4.0195,-4.0508,-4.0527,-4.043,-4.0625,-4.0723,-4.0762,-4.0976,-4.1094,-4.1133,-4.1172,-4.1172,-4.1172,-4.1172,-4.1211,-4.1211,-4.123,-4.125,-4.1426,-4.1445,-4.1582,-4.1855,-4.209,-4.2324,-4.2598,-4.2949,-4.3242,-4.3262,-4.3301,-4.3281,-4.3262,-4.3496,-4.3691,-4.3691,-4.3691,-4.3691,-4.3691,-4.3691,-4.3691,-4.3691,-4.3691,-4.3691,-4.3691,-4.3691,-4.3691,-4.3691,-4.3691,-4.3691,-4.3691,-4.3691,-4.3691,-4.3691,-4.3691,-4.3691,-4.3691,-4.3691,-4.3691,-4.6326,-4.6326,-4.6326,-4.6326,-4.6326,-4.6326,-4.6326,-4.6326,-4.6326,-4.6326,-4.6326,-4.6326,-4.6326,-4.6326,-4.6326,-4.6602,-4.6968,-4.7093,-4.7807,-4.8435,-4.8812,-4.9163,-4.9389,-4.9565,-4.959,-4.959,-4.959,-4.959,-4.959,-4.959,-4.959,-4.959,-4.959,-4.959,-4.959,-4.959,-4.959,-4.9396,-4.9307,-4.8983,-4.8763,-4.8983,-4.815,-4.7335,-4.656,-4.5799,-4.4869,-4.4249,-4.4055,-4.4162,-4.4505,-4.4913,-4.471,-4.3853,-4.3243,-4.2405,-4.1374,-4.0698,-4.0605,-4.0937,-4.1035,-4.0937,-4.1035,-4.1152,-4.1133,-4.1113,-4.1152,-4.1172,-4.1172,-4.1172,-4.1172,-4.123,-4.1289,-4.1308,-4.1367,-4.1523,-4.1758,-4.1914,-4.207,-4.2285,-4.25,-4.2734,-4.3027,-4.3379,-4.3516,-4.3535,-4.3516,-4.3535,-4.3516,-4.3535,-4.3691,-4.3691,-4.3691,-4.3691,-4.3691,-4.3691,-4.3691,-4.3691,-4.3691,-4.3691,-4.3691,-4.3691,-4.3691,-4.3691,-4.3691,-4.3691,-4.3691,-4.3691,-4.3691,-4.3691,-4.3691,-4.3691,-4.3691,-4.3691,-4.3691,-4.6326,-4.6326,-4.6326,-4.6326,-4.6326,-4.6326,-4.6326,-4.6326,-4.6326,-4.6326,-4.6326,-4.6326,-4.6326,-4.6326,-4.6326,-4.6677,-4.7104,-4.7556,-4.8109,-4.8636,-4.9138,-4.9389,-4.954,-4.959,-4.959,-4.959,-4.959,-4.959,-4.959,-4.959,-4.959,-4.959,-4.959,-4.959,-4.964,-4.9615,-4.9665,-4.969,-4.9715,-4.969,-4.969,-4.9715,-4.9147,-4.8255,-4.8101,-4.7211,-4.6171,-4.5874,-4.5708,-4.5703,-4.5608,-4.5673,-4.5554,-4.5384,-4.5092,-4.3602,-4.2165,-4.0996,-4.1016,-4.1094,-4.1327,-4.1385,-4.1385,-4.125,-4.1172,-4.1327,-4.125,-4.1172,-4.125,-4.1289,-4.1387,-4.1465,-4.1562,-4.1641,-4.1738,-4.1973,-4.2187,-4.2305,-4.248,-4.2773,-4.2988,-4.3144,-4.3437,-4.3516,-4.3633,-4.3672,-4.3691,-4.3691,-4.3691,-4.3691,-4.3691,-4.3691,-4.3691,-4.3691,-4.3691,-4.3691,-4.3691,-4.3691,-4.3691,-4.3691,-4.3691,-4.3691,-4.3691,-4.3691,-4.3691,-4.3691,-4.3691,-4.3691,-4.3691,-4.3691,-4.3691,-4.3691,-4.3691,-4.3691,-4.3691,-4.6326,-4.6326,-4.6326,-4.6326,-4.6326,-4.6326,-4.6326,-4.6326,-4.6326,-4.6326,-4.6326,-4.6326,-4.6326,-4.6351,-4.6552,-4.6954,-4.7506,-4.8033,-4.8586,-4.9113,-4.9414,-4.9515,-4.959,-4.959,-4.959,-4.959,-4.959,-4.959,-4.9615,-4.959,-4.959,-4.959,-4.959,-4.9766,-4.9891,-5.0017,-5.0142,-5.0142,-5.0117,-4.9967,-4.9967,-5.0117,-4.9405,-4.8876,-4.8926,-4.8188,-4.7553,-4.7676,-4.791,-4.8144,-4.8191,-4.8402,-4.8006,-4.7643,-4.5772,-4.4088,-4.2289,-4.1346,-4.1133,-4.1133,-4.1618,-4.2139,-4.235,-4.2427,-4.2042,-4.183,-4.1463,-4.1172,-4.1328,-4.1465,-4.1621,-4.1758,-4.1914,-4.2051,-4.2266,-4.248,-4.2578,-4.2656,-4.293,-4.3262,-4.3457,-4.3574,-4.3672,-4.3774,-4.3691,-4.3691,-4.3691,-4.3691,-4.3691,-4.3691,-4.3691,-4.3691,-4.3691,-4.3691,-4.3691,-4.3691,-4.3691,-4.3691,-4.3691,-4.3691,-4.3691,-4.3691,-4.3691,-4.3691,-4.3691,-4.3691,-4.3691,-4.3691,-4.3691,-4.3691,-4.3691,-4.3691,-4.3691,-4.3691,-4.3691,-4.6326,-4.6326,-4.6326,-4.6326,-4.6326,-4.6326,-4.6326,-4.6326,-4.6326,-4.6326,-4.6326,-4.6326,-4.6351,-4.6552,-4.6792,-4.7405,-4.7933,-4.846,-4.8912,-4.9565,-4.9565,-4.959,-4.959,-4.959,-4.959,-4.959,-4.959,-4.959,-4.9615,-4.9715,-4.9791,-4.9665,-4.9841,-5.0092,-5.0444,-5.0494,-5.0645,-5.0845,-5.077,-5.0645,-5.0645,-5.0921,-5.1272,-5.113,-5.1139,-5.1055,-5.108,-5.1339,-5.1649,-5.1933,-5.2022,-5.1992,-5.1104,-4.9345,-4.6764,-4.518,-4.3587,-4.2866,-4.2637,-4.2713,-4.3228,-4.389,-4.4344,-4.4146,-4.3621,-4.2819,-4.2396,-4.1602,-4.1621,-4.1797,-4.1953,-4.2903,-4.3419,-4.332,-4.3339,-4.3234,-4.3148,-4.3288,-4.365,-4.3906,-4.3821,-4.4166,-4.5596,-4.5839,-4.5596,-4.472,-4.4248,-4.433,-4.4021,-4.4021,-4.3774,-4.3774,-4.3691,-4.3691,-4.3691,-4.3691,-4.3691,-4.3691,-4.3691,-4.3691,-4.3691,-4.3691,-4.3691,-4.3691,-4.3691,-4.3691,-4.3691,-4.3691,-4.3691,-4.3691,-4.3691,-4.3691,-4.3691,-4.3691,-4.3691,-4.6326,-4.6326,-4.6326,-4.6326,-4.6326,-4.6326,-4.6326,-4.6326,-4.6326,-4.6326,-4.6326,-4.6351,-4.6552,-4.6903,-4.7018,-4.7631,-4.8435,-4.8761,-4.9113,-4.9439,-4.959,-4.959,-4.959,-4.959,-4.959,-4.959,-4.959,-4.9665,-4.9766,-4.9967,-5.0243,-5.0293,-5.0494,-5.0845,-5.1046,-5.1071,-5.1197,-5.1498,-5.1599,-5.1398,-5.1247,-5.1172,-5.1297,-5.1448,-5.1599,-5.1875,-5.2,-5.2302,-5.2477,-5.266,-5.266,-5.2735,-5.2698,-5.0481,-4.9224,-4.8289,-4.6315,-4.5276,-4.502,-4.5041,-4.5586,-4.6142,-4.6453,-4.5729,-4.4981,-4.4315,-4.3473,-4.2544,-4.2171,-4.2447,-4.2982,-4.4117,-4.4859,-4.4602,-4.4402,-4.4116,-4.3824,-4.409,-4.4457,-4.4578,-4.4474,-4.5515,-4.7086,-4.7565,-4.7406,-4.7006,-4.6384,-4.6001,-4.519,-4.4883,-4.4186,-4.4021,-4.3774,-4.3691,-4.3691,-4.3691,-4.3691,-4.3691,-4.3691,-4.3691,-4.3691,-4.3691,-4.3691,-4.3691,-4.3691,-4.3691,-4.3691,-4.3691,-4.3691,-4.3691,-4.3691,-4.3691,-4.3691,-4.3691,-4.3691,-4.6326,-4.6326,-4.6326,-4.6326,-4.6326,-4.6326,-4.6326,-4.6326,-4.6326,-4.6326,-4.6326,-4.6351,-4.6627,-4.7154,-4.7355,-4.7883,-4.8736,-4.9038,-4.9314,-4.954,-4.959,-4.959,-4.959,-4.959,-4.959,-4.9615,-4.9891,-5.0017,-5.0042,-5.0494,-5.082,-5.087,-5.1197,-5.1423,-5.1574,-5.1649,-5.1774,-5.2051,-5.2327,-5.2226,-5.195,-5.195,-5.2,-5.2176,-5.2251,-5.2452,-5.2528,-5.2779,-5.2854,-5.2929,-5.2836,-5.2836,-5.2491,-5.0928,-5.0032,-4.9296,-4.8072,-4.7029,-4.7169,-4.7524,-4.8004,-4.8552,-4.9241,-4.8656,-4.877,-4.8021,-4.6462,-4.5687,-4.5955,-4.6145,-4.6372,-4.7332,-4.6643,-4.6173,-4.5894,-4.5615,-4.5514,-4.5616,-4.6584,-4.7602,-4.7326,-4.7006,-4.8259,-4.8575,-4.8043,-4.5839,-4.5758,-4.7006,-4.6465,-4.6061,-4.521,-4.474,-4.472,-4.4103,-4.3691,-4.3691,-4.3691,-4.3691,-4.3691,-4.3691,-4.3691,-4.3691,-4.3691,-4.3691,-4.3691,-4.3691,-4.3691,-4.3691,-4.3691,-4.3691,-4.3691,-4.3691,-4.3691,-4.3691,-4.3691,-4.6326,-4.6326,-4.6326,-4.6326,-4.6326,-4.6326,-4.6326,-4.6326,-4.6326,-4.6376,-4.6476,-4.6476,-4.6753,-4.7255,-4.7782,-4.8335,-4.8837,-4.9264,-4.954,-4.959,-4.959,-4.959,-4.959,-4.959,-4.9665,-4.9941,-5.0293,-5.0444,-5.0569,-5.1071,-5.1373,-5.1398,-5.1548,-5.1724,-5.2076,-5.2251,-5.2377,-5.2603,-5.2804,-5.2785,-5.281,-5.2861,-5.2829,-5.2785,-5.2861,-5.2861,-5.2929,-5.2929,-5.2861,-5.2861,-5.2861,-5.2861,-5.2629,-5.1607,-5.1068,-5.0339,-4.9842,-4.8884,-4.8615,-4.9275,-5.0094,-5.0984,-5.168,-5.1943,-5.1892,-5.1248,-4.967,-4.9023,-4.9301,-4.9205,-4.9416,-4.9683,-4.8815,-4.7783,-4.7486,-4.7326,-4.7267,-4.7347,-4.8597,-5.0064,-4.9674,-4.9126,-4.9361,-4.9752,-4.8338,-4.5981,-4.5596,-4.6706,-4.7565,-4.7406,-4.6947,-4.6706,-4.6706,-4.5758,-4.4166,-4.4021,-4.4084,-4.3691,-4.3691,-4.3691,-4.3691,-4.3691,-4.3691,-4.3691,-4.3691,-4.3691,-4.3691,-4.3691,-4.3691,-4.3691,-4.3691,-4.3691,-4.3691,-4.3691,-4.3691,-4.6326,-4.6326,-4.6326,-4.6326,-4.6326,-4.6326,-4.6326,-4.6326,-4.6326,-4.6552,-4.6878,-4.7004,-4.7255,-4.7782,-4.836,-4.8862,-4.9264,-4.9565,-4.9565,-4.959,-4.959,-4.959,-4.964,-4.9715,-4.9916,-5.0318,-5.0795,-5.1071,-5.1197,-5.1649,-5.195,-5.195,-5.2427,-5.2603,-5.2653,-5.2754,-5.2754,-5.2861,-5.2861,-5.2861,-5.2861,-5.2861,-5.2861,-5.2861,-5.2861,-5.2861,-5.2861,-5.2861,-5.2861,-5.2861,-5.2886,-5.2886,-5.2798,-5.2521,-5.2243,-5.2161,-5.1554,-5.1675,-5.1656,-5.209,-5.298,-5.3246,-5.3712,-5.3619,-5.3766,-5.4157,-5.2849,-5.1769,-5.1605,-5.0611,-5.0757,-5.1927,-5.1608,-5.0064,-4.9283,-4.9283,-4.9283,-4.9596,-5.0375,-5.1093,-5.1247,-5.1224,-5.1708,-5.1631,-5.0916,-4.9204,-4.8733,-4.9752,-5.0452,-4.9674,-4.8676,-4.8654,-4.8654,-4.6465,-4.4576,-4.472,-4.472,-4.4166,-4.4084,-4.4883,-4.4883,-4.3774,-4.3774,-4.433,-4.3939,-4.3691,-4.3691,-4.3691,-4.3691,-4.3691,-4.3691,-4.3691,-4.3691,-4.3691,-4.3691]},{"header":{"parameterUnit":"m.s-1","parameterCategory":1,"la1":31.0,"la2":29.5877,"lo1":-88.7671,"lo2":-86.6584,"dx":0.0162,"dy":0.0185,"nx":115,"ny":88,"refTime":"2023-02-05T00:00:00:Z","depth":0,"parameterNumber":3,"parameterNumberName":"V-component_of_WINDS"},"data":[0.0,0.0,0.0,0.0,0.0,0.0,0.0,0.0,0.0,0.0,0.0,0.0,0.0,0.0,0.0,0.0,0.0,0.0,0.0,0.0,0.0,0.0,0.0,0.0,0.0,0.0,0.0,0.0,0.0,0.0,0.0,0.0,0.0,0.0,0.0,0.0,0.0,0.0,0.0,0.0,0.0,0.0,0.0,0.0,0.0,0.0,0.0,0.0,0.0,0.0,0.0,0.0,0.0,0.0,0.0,0.0,0.0,0.0,0.0,0.0,0.0,0.0,0.0,0.0,0.0,0.0,0.0,0.0,0.0,0.0,0.0,0.0,0.0,0.0,0.0,0.0,0.0,0.0,0.0,0.0,0.0,0.0,0.0,0.0,0.0,0.0,0.0,0.0,0.0,0.0,0.0,0.0,0.0,0.0,0.0,0.0,0.0,0.0,0.0,0.0,0.0,0.0,0.0,0.0,0.0,0.0,0.0,0.0,0.0,0.0,0.0,0.0,0.0,0.0,0.0,0.0,0.0,0.0,0.0,0.0,0.0,0.0,0.0,0.0,0.0,0.0,0.0,0.0,0.0,0.0,0.0,0.0,0.0,0.0,0.0,0.0,0.0,0.0,0.0,0.0,0.0,0.0,0.0,0.0,0.0,0.0,0.0,0.0,0.0,0.0,0.0,0.0,0.0,0.0,0.0,0.0,0.0,0.0,0.0,0.0,0.0,0.0,0.0,0.0,0.0,0.0,0.0,0.0,0.0,0.0,0.0,0.0,0.0,0.0,0.0,0.0,0.0,0.0,0.0,0.0,0.0,0.0,0.0,0.0,0.0,0.0,0.0,0.0,0.0,0.0,0.0,0.0,0.0,0.0,0.0,0.0,0.0,0.0,0.0,0.0,0.0,0.0,0.0,0.0,0.0,0.0,0.0,0.0,0.0,0.0,0.0,0.0,0.0,0.0,0.0,0.0,0.0,0.0,0.0,0.0,0.0,0.0,0.0,0.0,0.0,0.0,0.0,0.0,0.0,0.0,0.0,0.0,0.0,0.0,0.0,0.0,0.0,0.0,0.0,0.0,0.0,0.0,0.0,0.0,0.0,0.0,0.0,0.0,0.0,0.0,0.0,0.0,0.0,0.0,0.0,0.0,0.0,0.0,0.0,0.0,0.0,0.0,0.0,0.0,0.0,0.0,0.0,0.0,0.0,0.0,0.0,0.0,0.0,0.0,0.0,0.0,0.0,0.0,0.0,0.0,0.0,0.0,0.0,0.0,0.0,0.0,0.0,0.0,0.0,0.0,0.0,0.0,0.0,0.0,0.0,0.0,0.0,0.0,0.0,0.0,0.0,0.0,0.0,0.0,0.0,0.0,0.0,0.0,0.0,0.0,0.0,0.0,0.0,0.0,0.0,0.0,0.0,0.0,0.0,0.0,0.0,0.0,0.0,0.0,0.0,0.0,0.0,0.0,0.0,0.0,0.0,0.0,0.0,0.0,0.0,0.0,0.0,0.0,0.0,0.0,0.0,0.0,0.0,0.0,0.0,0.0,0.0,0.0,0.0,0.0,0.0,0.0,0.0,0.0,0.0,0.0,0.0,0.0,0.0,0.0,0.0,0.0,0.0,0.0,0.0,0.0,0.0,0.0,0.0,0.0,0.0,0.0,0.0,0.0,0.0,0.0,0.0,0.0,0.0,0.0,0.0,0.0,0.0,0.0,0.0,0.0,0.0,0.0,0.0,0.0,0.0,0.0,0.0,0.0,0.0,0.0,0.0,0.0,0.0,0.0,0.0,0.0,0.0,0.0,0.0,0.0,0.0,0.0,0.0,0.0,0.0,0.0,0.0,0.0,0.0,0.0,0.0,0.0,0.0,0.0,0.0,0.0,0.0,0.0,0.0,0.0,0.0,0.0,0.0,0.0,0.0,0.0,0.0,0.0,0.0,0.0,0.0,0.0,0.0,0.0,0.0,0.0,0.0,0.0,0.0,0.0,0.0,0.0,0.0,0.0,0.0,0.0,0.0,0.0,0.0,0.0,0.0,0.0,0.0,0.0,0.0,0.0,0.0,0.0,0.0,0.0,0.0,0.0,0.0,0.0,0.0,0.0,0.0,0.0,0.0,0.0,0.0,0.0,0.0,0.0,0.0,0.0,0.0,0.0,0.0,0.0,0.0,0.0,0.0,0.0,0.0,0.0,0.0,0.0,0.0,0.0,0.0,0.0,0.0,0.0,0.0,0.0,0.0,0.0,0.0,0.0,0.0,0.0,0.0,0.0,0.0,0.0,0.0,0.0,0.0,0.0,0.0,0.0,0.0,0.0,0.0,0.0,0.0,0.0,0.0,0.0,0.0,0.0,0.0,0.0,0.0,0.0,0.0,0.0,0.0,0.0,0.0,0.0,0.0,0.0,0.0,0.0,0.0,0.0,0.0,0.0,0.0,0.0,0.0,0.0,0.0,0.0,0.0,0.0,0.0,0.0,0.0,0.0,0.0,0.0,0.0,0.0,0.0,0.0,0.0,0.0,0.0,0.0,0.0,0.0,0.0,0.0,0.0,0.0,0.0,0.0,0.0,0.0,0.0,0.0,0.0,0.0,0.0,0.0,0.0,0.0,0.0,0.0,0.0,0.0,0.0,0.0,0.0,0.0,0.0,0.0,0.0,0.0,0.0,0.0,0.0,0.0,0.0,0.0,0.0,0.0,0.0,0.0,0.0,0.0,0.0,0.0,0.0,0.0,0.0,0.0,0.0,0.0,0.0,0.0,0.0,0.0,0.0,0.0,0.0,0.0,0.0,0.0,0.0,0.0,0.0,0.0,0.0,0.0,0.0,0.0,0.0,0.0,0.0,0.0,0.0,0.0,0.0,0.0,0.0,0.0,0.0,0.0,0.0,0.0,0.0,0.0,0.0,0.0,0.0,0.0,0.0,0.0,0.0,0.0,0.0,0.0,0.0,0.0,0.0,0.0,0.0,0.0,0.0,0.0,0.0,0.0,0.0,0.0,0.0,0.0,0.0,0.0,0.0,0.0,0.0,0.0,0.0,0.0,0.0,0.0,0.0,0.0,0.0,0.0,0.0,0.0,0.0,0.0,0.0,0.0,0.0,0.0,0.0,0.0,0.0,0.0,0.0,0.0,0.0,0.0,0.0,0.0,0.0,0.0,0.0,0.0,0.0,0.0,0.0,0.0,0.0,0.0,0.0,0.0,0.0,0.0,0.0,0.0,0.0,0.0,0.0,0.0,0.0,0.0,0.0,0.0,0.0,0.0,0.0,0.0,0.0,0.0,0.0,0.0,0.0,0.0,0.0,0.0,0.0,0.0,0.0,0.0,0.0,0.0,0.0,0.0,0.0,0.0,0.0,0.0,0.0,0.0,0.0,0.0,0.0,0.0,0.0,0.0,0.0,0.0,0.0,0.0,0.0,0.0,0.0,0.0,0.0,0.0,0.0,0.0,0.0,0.0,0.0,0.0,0.0,0.0,0.0,0.0,0.0,0.0,0.0,0.0,0.0,0.0,0.0,0.0,0.0,0.0,0.0,0.0,0.0,0.0,0.0,0.0,0.0,0.0,0.0,0.0,0.0,0.0,0.0,0.0,0.0,0.0,0.0,0.0,0.0,0.0,0.0,0.0,0.0,0.0,0.0,0.0,0.0,0.0,0.0,0.0,0.0,0.0,0.0,0.0,0.0,0.0,0.0,0.0,0.0,0.0,0.0,0.0,0.0,0.0,0.0,0.0,0.0,0.0,0.0,0.0,0.0,0.0,0.0,0.0,0.0,0.0,0.0,0.0,0.0,0.0,0.0,0.0,0.0,0.0,0.0,0.0,0.0,0.0,0.0,0.0,0.0,0.0,0.0,0.0,0.0,0.0,0.0,0.0,0.0,0.0,0.0,0.0,0.0,0.0,0.0,0.0,0.0,0.0,0.0,0.0,0.0,0.0,0.0,0.0,0.0,0.0,0.0,0.0,0.0,0.0,0.0,0.0,0.0,0.0,0.0,0.0,0.0,0.0,0.0,0.0,0.0,0.0,0.0,0.0,0.0,0.0,0.0,0.0,0.0,0.0,0.0,0.0,0.0,0.0,0.0,0.0,0.0,0.0,0.0,0.0,0.0,0.0,0.0,0.0,0.0,0.0,0.0,0.0,0.0,0.0,0.0,0.0,0.0,0.0,0.0,0.0,0.0,0.0,0.0,0.0,0.0,0.0,0.0,0.0,0.0,0.0,0.0,0.0,0.0,0.0,0.0,0.0,0.0,0.0,0.0,0.0,0.0,0.0,0.0,0.0,0.0,0.0,4.8306,0.0,0.0,0.0,0.0,0.0,0.0,0.0,0.0,0.0,0.0,0.0,0.0,0.0,0.0,0.0,0.0,0.0,0.0,0.0,0.0,0.0,0.0,0.0,0.0,0.0,0.0,0.0,0.0,0.0,0.0,0.0,0.0,0.0,0.0,0.0,0.0,0.0,0.0,0.0,0.0,0.0,0.0,0.0,0.0,0.0,0.0,0.0,0.0,0.0,0.0,0.0,0.0,0.0,0.0,0.0,0.0,0.0,0.0,0.0,0.0,0.0,0.0,0.0,0.0,0.0,0.0,0.0,0.0,0.0,0.0,0.0,0.0,0.0,0.0,0.0,0.0,0.0,0.0,0.0,0.0,0.0,0.0,0.0,0.0,0.0,0.0,0.0,0.0,0.0,0.0,0.0,0.0,0.0,0.0,0.0,0.0,0.0,0.0,0.0,0.0,0.0,0.0,0.0,0.0,0.0,0.0,0.0,0.0,0.0,0.0,4.8306,4.8306,4.8306,4.8306,4.8306,0.0,0.0,0.0,0.0,0.0,0.0,0.0,0.0,0.0,0.0,0.0,0.0,0.0,0.0,0.0,0.0,0.0,0.0,0.0,0.0,0.0,0.0,0.0,0.0,0.0,0.0,0.0,0.0,0.0,0.0,0.0,0.0,0.0,0.0,0.0,0.0,0.0,0.0,0.0,0.0,0.0,0.0,0.0,0.0,0.0,0.0,0.0,0.0,0.0,0.0,0.0,0.0,0.0,0.0,0.0,0.0,0.0,0.0,0.0,0.0,0.0,0.0,0.0,0.0,0.0,0.0,0.0,0.0,0.0,0.0,0.0,0.0,0.0,0.0,0.0,0.0,0.0,0.0,0.0,0.0,0.0,0.0,0.0,0.0,0.0,0.0,0.0,0.0,0.0,0.0,0.0,0.0,0.0,0.0,0.0,0.0,0.0,0.0,0.0,0.0,0.0,0.0,0.0,0.0,0.0,0.0,0.0,0.0,0.0,0.0,0.0,0.0,4.8306,4.8306,4.8306,0.0,0.0,0.0,0.0,0.0,0.0,0.0,0.0,0.0,0.0,0.0,0.0,0.0,0.0,0.0,0.0,0.0,0.0,0.0,0.0,0.0,0.0,0.0,0.0,0.0,0.0,0.0,0.0,0.0,0.0,0.0,0.0,0.0,0.0,0.0,0.0,0.0,0.0,0.0,0.0,0.0,0.0,0.0,0.0,0.0,0.0,0.0,0.0,0.0,0.0,0.0,0.0,0.0,0.0,0.0,0.0,0.0,0.0,0.0,0.0,0.0,0.0,0.0,0.0,0.0,0.0,0.0,0.0,0.0,0.0,0.0,0.0,0.0,0.0,0.0,0.0,0.0,0.0,0.0,0.0,0.0,0.0,0.0,0.0,0.0,0.0,0.0,0.0,0.0,0.0,0.0,0.0,0.0,0.0,0.0,0.0,0.0,0.0,0.0,0.0,0.0,0.0,0.0,0.0,0.0,0.0,0.0,0.0,0.0,0.0,4.8306,4.8306,4.8306,0.0,4.8306,0.0,0.0,0.0,0.0,0.0,0.0,0.0,0.0,0.0,0.0,0.0,0.0,0.0,0.0,0.0,0.0,0.0,0.0,0.0,0.0,0.0,0.0,0.0,0.0,0.0,0.0,0.0,0.0,0.0,0.0,0.0,0.0,0.0,0.0,0.0,0.0,0.0,0.0,0.0,0.0,0.0,0.0,0.0,0.0,0.0,0.0,0.0,0.0,0.0,0.0,0.0,0.0,0.0,0.0,0.0,0.0,0.0,0.0,0.0,0.0,0.0,0.0,0.0,0.0,0.0,0.0,0.0,0.0,0.0,0.0,0.0,0.0,0.0,0.0,0.0,0.0,0.0,0.0,0.0,0.0,0.0,0.0,0.0,0.0,0.0,0.0,0.0,0.0,0.0,0.0,0.0,0.0,0.0,0.0,0.0,0.0,0.0,0.0,0.0,0.0,0.0,0.0,0.0,0.0,0.0,0.0,0.0,0.0,0.0,0.0,4.8306,4.8306,4.8306,4.8306,0.0,0.0,0.0,0.0,0.0,0.0,0.0,0.0,0.0,0.0,0.0,0.0,0.0,0.0,0.0,0.0,0.0,0.0,0.0,0.0,0.0,0.0,0.0,0.0,0.0,0.0,0.0,0.0,0.0,0.0,0.0,0.0,0.0,0.0,0.0,0.0,0.0,0.0,0.0,0.0,0.0,0.0,0.0,0.0,0.0,0.0,0.0,0.0,0.0,0.0,0.0,0.0,0.0,0.0,0.0,0.0,0.0,0.0,0.0,0.0,0.0,0.0,0.0,0.0,0.0,0.0,0.0,0.0,0.0,0.0,0.0,0.0,0.0,0.0,0.0,0.0,0.0,0.0,0.0,0.0,0.0,0.0,0.0,0.0,0.0,0.0,0.0,0.0,0.0,0.0,0.0,0.0,0.0,0.0,0.0,0.0,0.0,0.0,0.0,0.0,0.0,0.0,0.0,0.0,0.0,0.0,0.0,0.0,0.0,0.0,4.8306,4.8306,4.8306,4.8306,4.8306,4.8306,0.0,0.0,0.0,0.0,0.0,0.0,0.0,0.0,0.0,0.0,0.0,0.0,0.0,0.0,0.0,0.0,0.0,0.0,0.0,0.0,0.0,0.0,0.0,0.0,0.0,0.0,0.0,0.0,0.0,0.0,0.0,0.0,0.0,0.0,0.0,0.0,0.0,0.0,0.0,0.0,0.0,0.0,0.0,0.0,0.0,0.0,0.0,0.0,0.0,0.0,0.0,0.0,0.0,0.0,0.0,0.0,0.0,0.0,0.0,0.0,0.0,0.0,0.0,0.0,0.0,0.0,0.0,0.0,0.0,0.0,0.0,0.0,0.0,0.0,0.0,0.0,0.0,0.0,0.0,0.0,0.0,0.0,0.0,0.0,0.0,0.0,0.0,0.0,0.0,0.0,0.0,0.0,0.0,0.0,0.0,0.0,0.0,0.0,0.0,0.0,0.0,0.0,0.0,0.0,0.0,0.0,0.0,0.0,4.8306,4.8306,4.8306,4.8306,4.8306,4.8306,0.0,0.0,0.0,0.0,0.0,0.0,0.0,0.0,0.0,0.0,0.0,0.0,0.0,0.0,0.0,0.0,0.0,0.0,0.0,0.0,0.0,0.0,0.0,0.0,0.0,0.0,0.0,0.0,0.0,0.0,0.0,0.0,0.0,0.0,0.0,0.0,0.0,0.0,0.0,0.0,0.0,0.0,0.0,0.0,0.0,0.0,0.0,0.0,0.0,0.0,0.0,0.0,0.0,0.0,0.0,0.0,0.0,0.0,0.0,0.0,0.0,0.0,0.0,0.0,0.0,0.0,0.0,0.0,0.0,0.0,0.0,0.0,0.0,0.0,0.0,0.0,0.0,0.0,0.0,0.0,0.0,0.0,0.0,0.0,0.0,0.0,0.0,0.0,0.0,0.0,0.0,0.0,0.0,0.0,0.0,0.0,0.0,0.0,0.0,0.0,0.0,0.0,0.0,0.0,0.0,0.0,0.0,0.0,0.0,4.8306,4.8306,4.8306,4.8306,4.8306,4.8306,0.0,0.0,0.0,0.0,0.0,0.0,0.0,0.0,0.0,0.0,0.0,0.0,0.0,0.0,0.0,0.0,0.0,0.0,0.0,0.0,0.0,0.0,0.0,0.0,0.0,0.0,0.0,0.0,0.0,0.0,0.0,0.0,0.0,0.0,0.0,0.0,0.0,0.0,0.0,0.0,0.0,0.0,0.0,0.0,0.0,0.0,0.0,0.0,0.0,0.0,0.0,0.0,0.0,0.0,0.0,0.0,0.0,0.0,0.0,0.0,0.0,0.0,0.0,0.0,0.0,0.0,0.0,0.0,0.0,0.0,0.0,0.0,0.0,0.0,0.0,0.0,0.0,0.0,0.0,0.0,0.0,0.0,0.0,0.0,0.0,0.0,0.0,0.0,0.0,0.0,0.0,0.0,0.0,0.0,0.0,0.0,0.0,0.0,0.0,0.0,0.0,0.0,0.0,0.0,0.0,0.0,0.0,0.0,0.0,4.8306,0.0,4.8306,4.8306,4.8306,4.8306,0.0,0.0,0.0,0.0,0.0,0.0,0.0,0.0,0.0,0.0,0.0,0.0,0.0,0.0,0.0,0.0,0.0,0.0,0.0,0.0,0.0,0.0,0.0,0.0,0.0,0.0,0.0,0.0,0.0,0.0,0.0,0.0,0.0,0.0,0.0,0.0,0.0,0.0,0.0,0.0,0.0,0.0,0.0,0.0,0.0,0.0,0.0,0.0,0.0,0.0,0.0,0.0,0.0,0.0,0.0,0.0,0.0,0.0,0.0,0.0,0.0,0.0,0.0,0.0,0.0,0.0,0.0,0.0,0.0,0.0,0.0,0.0,0.0,0.0,0.0,0.0,0.0,0.0,0.0,0.0,0.0,0.0,0.0,0.0,0.0,0.0,0.0,0.0,0.0,0.0,0.0,0.0,0.0,0.0,0.0,0.0,0.0,0.0,0.0,0.0,0.0,0.0,0.0,0.0,0.0,0.0,0.0,0.0,4.8306,4.8306,4.8306,4.8306,4.8306,4.8306,4.8306,0.0,0.0,0.0,0.0,0.0,0.0,0.0,0.0,0.0,0.0,0.0,0.0,0.0,0.0,0.0,0.0,0.0,0.0,0.0,0.0,0.0,0.0,0.0,0.0,0.0,0.0,0.0,0.0,0.0,0.0,0.0,0.0,0.0,0.0,0.0,0.0,0.0,0.0,0.0,0.0,0.0,0.0,0.0,0.0,0.0,0.0,0.0,0.0,0.0,0.0,0.0,0.0,0.0,0.0,0.0,0.0,0.0,0.0,0.0,0.0,0.0,0.0,0.0,0.0,0.0,0.0,0.0,0.0,0.0,0.0,0.0,0.0,0.0,0.0,0.0,0.0,0.0,0.0,0.0,0.0,0.0,0.0,0.0,0.0,0.0,0.0,0.0,0.0,0.0,0.0,0.0,0.0,0.0,0.0,0.0,0.0,0.0,0.0,0.0,0.0,0.0,0.0,0.0,0.0,0.0,0.0,0.0,0.0,0.0,4.8306,4.8306,4.8306,4.8306,4.8306,4.8306,0.0,0.0,0.0,0.0,0.0,0.0,0.0,0.0,0.0,0.0,0.0,0.0,0.0,0.0,0.0,0.0,0.0,0.0,0.0,0.0,0.0,0.0,0.0,0.0,0.0,0.0,0.0,0.0,0.0,0.0,0.0,0.0,0.0,0.0,0.0,0.0,0.0,0.0,0.0,0.0,0.0,0.0,0.0,0.0,0.0,0.0,0.0,0.0,0.0,0.0,0.0,0.0,0.0,0.0,0.0,0.0,0.0,0.0,0.0,0.0,0.0,0.0,0.0,0.0,0.0,0.0,0.0,0.0,0.0,0.0,0.0,0.0,0.0,0.0,0.0,0.0,0.0,0.0,0.0,0.0,0.0,0.0,0.0,0.0,0.0,0.0,0.0,0.0,0.0,0.0,0.0,0.0,0.0,0.0,0.0,0.0,0.0,0.0,0.0,0.0,0.0,0.0,0.0,0.0,0.0,0.0,0.0,0.0,0.0,4.8306,4.8306,4.8306,4.8306,4.8306,4.8306,4.8306,0.0,0.0,0.0,0.0,0.0,0.0,0.0,0.0,0.0,0.0,0.0,0.0,0.0,0.0,0.0,0.0,0.0,0.0,0.0,0.0,0.0,0.0,0.0,0.0,0.0,0.0,0.0,0.0,0.0,0.0,0.0,0.0,0.0,0.0,0.0,0.0,0.0,0.0,0.0,0.0,0.0,0.0,0.0,0.0,0.0,0.0,0.0,0.0,0.0,0.0,0.0,0.0,0.0,0.0,0.0,0.0,0.0,0.0,0.0,0.0,0.0,0.0,0.0,0.0,0.0,0.0,0.0,0.0,0.0,0.0,0.0,0.0,0.0,0.0,0.0,0.0,0.0,0.0,0.0,0.0,0.0,0.0,0.0,0.0,0.0,0.0,0.0,0.0,0.0,0.0,0.0,0.0,0.0,0.0,0.0,0.0,0.0,0.0,0.0,0.0,0.0,0.0,0.0,0.0,0.0,0.0,0.0,0.0,4.8306,4.8306,4.8306,4.8306,4.8306,4.8306,0.0,0.0,0.0,0.0,0.0,0.0,0.0,0.0,0.0,0.0,0.0,0.0,0.0,0.0,0.0,0.0,0.0,0.0,0.0,0.0,0.0,0.0,0.0,0.0,0.0,0.0,0.0,0.0,0.0,0.0,0.0,0.0,0.0,0.0,0.0,0.0,0.0,0.0,0.0,0.0,0.0,0.0,0.0,0.0,0.0,0.0,0.0,0.0,0.0,0.0,0.0,0.0,0.0,0.0,0.0,0.0,0.0,0.0,0.0,0.0,0.0,0.0,0.0,0.0,0.0,0.0,0.0,0.0,0.0,0.0,0.0,0.0,0.0,0.0,0.0,0.0,0.0,0.0,0.0,0.0,0.0,0.0,0.0,0.0,0.0,0.0,0.0,0.0,0.0,0.0,0.0,0.0,0.0,0.0,0.0,0.0,0.0,0.0,0.0,0.0,0.0,0.0,0.0,0.0,0.0,0.0,0.0,0.0,0.0,4.8306,4.8306,4.8306,4.8306,4.8306,4.8306,0.0,0.0,0.0,0.0,0.0,0.0,0.0,0.0,0.0,0.0,0.0,0.0,0.0,0.0,0.0,0.0,0.0,0.0,0.0,0.0,0.0,0.0,0.0,0.0,0.0,0.0,0.0,0.0,0.0,0.0,0.0,0.0,0.0,0.0,0.0,0.0,0.0,0.0,0.0,0.0,0.0,0.0,0.0,0.0,0.0,0.0,0.0,0.0,0.0,0.0,0.0,0.0,0.0,0.0,0.0,0.0,0.0,0.0,0.0,0.0,0.0,0.0,0.0,0.0,0.0,0.0,0.0,0.0,0.0,0.0,0.0,0.0,0.0,0.0,0.0,0.0,0.0,0.0,0.0,0.0,0.0,0.0,0.0,0.0,0.0,0.0,0.0,0.0,0.0,0.0,0.0,0.0,0.0,0.0,0.0,0.0,0.0,0.0,0.0,0.0,0.0,0.0,0.0,0.0,0.0,0.0,0.0,0.0,4.9003,4.9334,4.937,4.937,4.937,4.8673,4.8306,0.0,0.0,0.0,0.0,0.0,0.0,0.0,0.0,0.0,0.0,0.0,0.0,0.0,0.0,0.0,0.0,0.0,0.0,0.0,0.0,0.0,0.0,0.0,0.0,0.0,0.0,0.0,0.0,0.0,0.0,0.0,0.0,0.0,0.0,0.0,0.0,0.0,0.0,0.0,0.0,0.0,0.0,0.0,0.0,0.0,0.0,0.0,0.0,0.0,0.0,0.0,0.0,0.0,0.0,0.0,0.0,0.0,0.0,0.0,0.0,0.0,0.0,0.0,0.0,0.0,0.0,0.0,0.0,0.0,0.0,0.0,0.0,0.0,0.0,0.0,0.0,0.0,0.0,0.0,0.0,0.0,0.0,0.0,0.0,0.0,0.0,0.0,0.0,0.0,0.0,0.0,0.0,0.0,0.0,0.0,0.0,0.0,0.0,0.0,0.0,0.0,0.0,0.0,0.0,0.0,0.0,0.0,0.0,5.0068,5.0802,5.0802,5.0802,5.0765,4.9334,4.8563,0.0,0.0,0.0,0.0,0.0,0.0,0.0,0.0,0.0,0.0,0.0,0.0,0.0,0.0,0.0,0.0,0.0,0.0,0.0,0.0,0.0,0.0,0.0,0.0,0.0,0.0,0.0,0.0,0.0,0.0,0.0,0.0,0.0,0.0,0.0,0.0,0.0,0.0,0.0,0.0,0.0,0.0,0.0,0.0,0.0,0.0,0.0,0.0,0.0,0.0,0.0,0.0,0.0,0.0,0.0,0.0,0.0,0.0,0.0,0.0,0.0,0.0,0.0,0.0,0.0,0.0,0.0,0.0,0.0,0.0,0.0,0.0,0.0,0.0,0.0,0.0,0.0,0.0,0.0,0.0,0.0,0.0,0.0,0.0,0.0,0.0,0.0,0.0,0.0,0.0,0.0,0.0,0.0,0.0,0.0,0.0,0.0,0.0,0.0,0.0,0.0,0.0,0.0,0.0,0.0,0.0,0.0,0.0,5.0618,5.0802,5.0802,5.0802,5.0802,5.0472,5.0288,0.0,0.0,0.0,0.0,0.0,0.0,0.0,0.0,0.0,0.0,0.0,0.0,0.0,0.0,0.0,0.0,0.0,0.0,0.0,0.0,0.0,0.0,0.0,0.0,0.0,0.0,0.0,0.0,0.0,0.0,0.0,0.0,0.0,0.0,0.0,0.0,0.0,0.0,0.0,0.0,0.0,0.0,0.0,0.0,0.0,0.0,0.0,0.0,4.9416,0.0,0.0,0.0,0.0,0.0,0.0,0.0,0.0,0.0,0.0,0.0,0.0,0.0,0.0,0.0,0.0,0.0,0.0,0.0,0.0,0.0,0.0,0.0,0.0,0.0,0.0,0.0,0.0,0.0,0.0,0.0,0.0,0.0,0.0,0.0,0.0,0.0,0.0,0.0,0.0,0.0,0.0,0.0,0.0,0.0,0.0,0.0,0.0,0.0,0.0,0.0,0.0,0.0,0.0,0.0,0.0,0.0,0.0,0.0,5.1536,5.1883,5.194,5.194,5.194,5.194,5.1573,0.0,0.0,0.0,0.0,0.0,0.0,0.0,0.0,0.0,0.0,0.0,0.0,0.0,0.0,0.0,0.0,0.0,0.0,0.0,0.0,0.0,0.0,0.0,0.0,0.0,0.0,0.0,0.0,0.0,0.0,0.0,0.0,0.0,0.0,0.0,0.0,0.0,0.0,0.0,0.0,0.0,0.0,0.0,0.0,0.0,0.0,0.0,0.0,0.0,0.0,0.0,0.0,0.0,0.0,0.0,0.0,0.0,0.0,0.0,0.0,0.0,0.0,0.0,0.0,0.0,0.0,0.0,0.0,0.0,0.0,0.0,0.0,0.0,0.0,0.0,0.0,0.0,0.0,0.0,0.0,0.0,0.0,0.0,0.0,0.0,0.0,0.0,0.0,0.0,0.0,0.0,0.0,0.0,0.0,0.0,0.0,0.0,0.0,0.0,0.0,0.0,0.0,0.0,0.0,0.0,0.0,0.0,5.2197,5.2527,5.3167,5.3203,5.3203,5.3203,5.3203,5.2543,5.1242,0.0,0.0,0.0,0.0,0.0,0.0,0.0,0.0,0.0,0.0,0.0,0.0,0.0,0.0,0.0,0.0,0.0,0.0,0.0,0.0,0.0,0.0,0.0,0.0,0.0,0.0,0.0,0.0,0.0,0.0,0.0,0.0,0.0,0.0,0.0,0.0,0.0,0.0,5.0153,5.0876,0.0,0.0,0.0,0.0,0.0,0.0,0.0,0.0,5.1513,0.0,0.0,0.0,0.0,0.0,0.0,0.0,0.0,0.0,0.0,0.0,0.0,0.0,0.0,0.0,0.0,0.0,0.0,0.0,0.0,0.0,0.0,0.0,0.0,0.0,0.0,0.0,0.0,0.0,0.0,0.0,0.0,0.0,0.0,0.0,0.0,0.0,0.0,0.0,0.0,0.0,0.0,0.0,0.0,0.0,0.0,0.0,0.0,0.0,0.0,0.0,0.0,0.0,0.0,0.0,0.0,5.2983,5.3004,5.3078,5.3203,5.3203,5.3203,5.3203,5.3203,5.3057,5.2858,0.0,0.0,0.0,0.0,0.0,0.0,0.0,0.0,0.0,0.0,0.0,0.0,0.0,0.0,0.0,0.0,0.0,0.0,0.0,0.0,0.0,0.0,0.0,0.0,0.0,0.0,0.0,0.0,0.0,0.0,0.0,0.0,0.0,0.0,0.0,0.0,0.0,0.0,0.0,5.0831,5.0985,0.0,0.0,0.0,0.0,0.0,0.0,0.0,0.0,5.2223,0.0,0.0,0.0,0.0,0.0,0.0,0.0,0.0,0.0,0.0,0.0,0.0,0.0,0.0,0.0,0.0,0.0,0.0,0.0,0.0,0.0,0.0,0.0,0.0,0.0,0.0,0.0,0.0,0.0,0.0,0.0,0.0,0.0,0.0,0.0,0.0,0.0,0.0,0.0,0.0,0.0,0.0,0.0,0.0,0.0,0.0,0.0,0.0,0.0,0.0,0.0,0.0,0.0,0.0,0.0,5.3203,5.3203,5.3203,5.3203,5.3203,5.3203,5.3203,5.3203,5.3203,0.0,0.0,0.0,0.0,0.0,0.0,0.0,0.0,0.0,0.0,0.0,0.0,0.0,0.0,0.0,0.0,0.0,0.0,0.0,0.0,0.0,0.0,0.0,0.0,0.0,0.0,0.0,0.0,0.0,0.0,0.0,0.0,0.0,0.0,0.0,0.0,0.0,0.0,0.0,0.0,5.1962,5.234,5.2301,0.0,0.0,0.0,0.0,0.0,0.0,5.2953,5.3069,0.0,0.0,0.0,0.0,0.0,0.0,0.0,0.0,0.0,0.0,0.0,0.0,0.0,0.0,0.0,0.0,0.0,0.0,0.0,0.0,0.0,0.0,0.0,0.0,0.0,0.0,0.0,0.0,0.0,0.0,0.0,0.0,0.0,0.0,0.0,0.0,0.0,0.0,0.0,0.0,0.0,0.0,0.0,0.0,0.0,0.0,0.0,0.0,0.0,0.0,0.0,0.0,0.0,0.0,0.0,5.3203,5.3203,5.3203,5.3203,5.3203,5.3203,5.3203,5.3203,5.3203,0.0,0.0,0.0,0.0,0.0,0.0,0.0,0.0,0.0,0.0,0.0,0.0,0.0,0.0,0.0,0.0,0.0,0.0,0.0,0.0,0.0,0.0,0.0,0.0,0.0,0.0,0.0,0.0,0.0,0.0,0.0,0.0,0.0,0.0,0.0,0.0,0.0,0.0,0.0,0.0,0.0,5.3565,5.323,5.3203,0.0,0.0,0.0,0.0,5.3643,5.3758,0.0,0.0,0.0,0.0,0.0,0.0,0.0,0.0,0.0,0.0,0.0,0.0,0.0,0.0,0.0,0.0,0.0,0.0,0.0,0.0,0.0,0.0,0.0,0.0,0.0,0.0,0.0,0.0,0.0,0.0,0.0,0.0,0.0,0.0,0.0,0.0,0.0,0.0,0.0,0.0,0.0,0.0,0.0,0.0,0.0,0.0,0.0,0.0,0.0,0.0,0.0,0.0,0.0,0.0,0.0,0.0,5.3203,5.3203,5.3203,5.3203,5.3203,5.3203,5.3203,5.3203,5.3203,0.0,0.0,0.0,0.0,0.0,0.0,0.0,0.0,0.0,0.0,0.0,0.0,0.0,0.0,0.0,0.0,0.0,0.0,0.0,0.0,0.0,0.0,0.0,0.0,0.0,0.0,0.0,0.0,0.0,0.0,0.0,0.0,0.0,0.0,0.0,0.0,0.0,0.0,0.0,0.0,0.0,5.3251,5.3225,5.3203,5.3188,0.0,0.0,5.3225,5.3272,5.3565,0.0,0.0,0.0,0.0,0.0,0.0,0.0,0.0,0.0,0.0,0.0,0.0,0.0,0.0,0.0,0.0,0.0,0.0,0.0,0.0,0.0,0.0,0.0,0.0,0.0,0.0,0.0,0.0,0.0,0.0,0.0,0.0,0.0,0.0,0.0,0.0,0.0,0.0,0.0,0.0,0.0,0.0,0.0,0.0,0.0,0.0,0.0,0.0,0.0,0.0,0.0,0.0,0.0,0.0,0.0,5.3203,5.3203,5.3203,5.3203,5.3203,5.3203,5.3203,5.3203,5.3203,5.3203,0.0,0.0,0.0,0.0,0.0,0.0,0.0,0.0,0.0,0.0,0.0,0.0,0.0,0.0,0.0,0.0,0.0,0.0,0.0,0.0,0.0,0.0,0.0,0.0,0.0,0.0,0.0,0.0,0.0,0.0,0.0,0.0,0.0,0.0,0.0,0.0,0.0,0.0,0.0,0.0,0.0,0.0,5.4473,5.4546,0.0,0.0,0.0,5.4583,5.4546,0.0,0.0,0.0,0.0,0.0,0.0,0.0,0.0,0.0,0.0,0.0,0.0,0.0,0.0,0.0,0.0,0.0,0.0,0.0,0.0,0.0,0.0,0.0,0.0,0.0,0.0,0.0,0.0,0.0,0.0,0.0,0.0,0.0,0.0,0.0,0.0,0.0,0.0,0.0,0.0,0.0,0.0,0.0,0.0,0.0,0.0,0.0,0.0,0.0,0.0,0.0,0.0,0.0,0.0,0.0,0.0,0.0,5.3203,5.3203,5.3203,5.3203,5.3203,5.3203,5.3203,5.3203,0.0,0.0,0.0,0.0,0.0,0.0,0.0,0.0,0.0,0.0,0.0,0.0,0.0,0.0,0.0,0.0,0.0,0.0,0.0,0.0,0.0,0.0,0.0,0.0,0.0,0.0,0.0,5.3334,0.0,0.0,0.0,0.0,0.0,0.0,0.0,0.0,0.0,0.0,0.0,0.0,0.0,0.0,5.4913,5.5522,5.5633,5.5633,0.0,0.0,5.5633,5.5633,5.5633,5.5633,0.0,0.0,0.0,0.0,0.0,0.0,0.0,0.0,0.0,0.0,0.0,0.0,0.0,0.0,0.0,0.0,0.0,0.0,0.0,0.0,0.0,0.0,0.0,0.0,0.0,0.0,0.0,0.0,0.0,0.0,0.0,0.0,0.0,0.0,0.0,0.0,0.0,0.0,0.0,0.0,0.0,0.0,0.0,0.0,0.0,0.0,0.0,0.0,0.0,0.0,0.0,0.0,0.0,0.0,0.0,5.3203,5.3203,5.3203,5.3203,5.3203,5.3203,5.3203,5.3203,5.3203,0.0,0.0,0.0,0.0,0.0,0.0,0.0,0.0,0.0,0.0,0.0,0.0,0.0,0.0,0.0,0.0,0.0,0.0,0.0,0.0,0.0,0.0,0.0,0.0,0.0,0.0,0.0,0.0,0.0,0.0,0.0,0.0,0.0,0.0,0.0,0.0,0.0,0.0,0.0,0.0,0.0,5.55,5.5574,5.5633,5.5633,0.0,0.0,5.5633,5.5633,5.5611,5.5633,5.5611,0.0,0.0,0.0,0.0,0.0,0.0,0.0,0.0,0.0,0.0,0.0,0.0,0.0,0.0,0.0,0.0,0.0,0.0,0.0,0.0,0.0,0.0,0.0,0.0,0.0,0.0,0.0,0.0,0.0,0.0,0.0,0.0,0.0,0.0,0.0,0.0,0.0,0.0,0.0,0.0,0.0,0.0,0.0,0.0,0.0,0.0,0.0,0.0,0.0,0.0,0.0,0.0,0.0,5.4693,5.4656,5.4656,5.4656,5.4693,5.4656,5.4656,5.4656,5.4656,5.4656,0.0,0.0,0.0,0.0,0.0,0.0,0.0,0.0,0.0,0.0,0.0,0.0,0.0,0.0,0.0,0.0,0.0,0.0,0.0,0.0,0.0,0.0,0.0,0.0,0.0,0.0,0.0,0.0,5.4656,5.4803,5.5097,0.0,0.0,0.0,0.0,0.0,0.0,0.0,0.0,0.0,0.0,5.6528,5.7005,5.7079,0.0,0.0,5.7079,5.7079,5.7079,5.7079,5.7079,5.7079,5.7079,0.0,0.0,0.0,0.0,0.0,0.0,0.0,0.0,0.0,0.0,0.0,0.0,0.0,0.0,0.0,0.0,0.0,0.0,0.0,0.0,0.0,0.0,0.0,0.0,0.0,0.0,0.0,0.0,0.0,0.0,0.0,0.0,0.0,0.0,0.0,0.0,0.0,0.0,0.0,0.0,0.0,0.0,0.0,0.0,0.0,0.0,0.0,0.0,0.0,0.0,0.0,0.0,5.5633,5.5633,5.5633,5.5633,5.5633,5.5633,5.5633,5.5633,5.5633,5.5633,0.0,0.0,0.0,0.0,0.0,0.0,0.0,0.0,0.0,0.0,0.0,0.0,0.0,0.0,0.0,0.0,0.0,0.0,0.0,0.0,0.0,0.0,0.0,0.0,0.0,0.0,0.0,0.0,5.5794,5.5941,5.5941,0.0,0.0,0.0,0.0,0.0,0.0,0.0,0.0,0.0,0.0,5.7373,5.7923,5.7997,5.7997,5.7997,5.7997,5.7997,5.7997,5.7997,5.7997,5.7997,0.0,0.0,0.0,0.0,0.0,0.0,0.0,0.0,0.0,0.0,0.0,0.0,0.0,0.0,0.0,0.0,0.0,0.0,0.0,0.0,0.0,0.0,0.0,0.0,0.0,0.0,0.0,0.0,0.0,0.0,0.0,0.0,0.0,0.0,0.0,0.0,0.0,0.0,0.0,0.0,0.0,0.0,0.0,0.0,0.0,0.0,0.0,0.0,0.0,0.0,0.0,0.0,0.0,5.5611,5.5633,5.5647,5.5647,5.5669,5.5611,5.5647,5.5669,5.5633,5.5633,5.5669,0.0,0.0,0.0,0.0,0.0,0.0,0.0,0.0,0.0,0.0,0.0,0.0,0.0,0.0,0.0,0.0,0.0,0.0,0.0,0.0,0.0,0.0,0.0,0.0,0.0,0.0,5.5647,5.6308,5.6785,0.0,0.0,0.0,0.0,0.0,0.0,0.0,0.0,0.0,0.0,5.7997,5.796,5.7997,5.7997,5.7997,5.7997,5.7997,5.7997,5.7997,5.7997,5.7997,0.0,0.0,0.0,0.0,0.0,0.0,0.0,0.0,0.0,0.0,0.0,0.0,0.0,0.0,0.0,0.0,0.0,0.0,0.0,0.0,0.0,0.0,0.0,0.0,0.0,0.0,0.0,5.495,5.517,0.0,0.0,0.0,0.0,0.0,0.0,0.0,0.0,0.0,0.0,0.0,5.7997,5.7997,0.0,0.0,0.0,0.0,0.0,0.0,0.0,0.0,0.0,0.0,0.0,0.0,5.7189,5.7189,5.7189,5.7189,5.7189,5.7189,5.7189,5.7189,5.7189,5.7189,5.7189,0.0,0.0,0.0,0.0,0.0,0.0,0.0,0.0,0.0,0.0,0.0,0.0,0.0,0.0,0.0,0.0,0.0,0.0,0.0,0.0,0.0,0.0,0.0,0.0,0.0,5.7189,0.0,0.0,0.0,0.0,0.0,0.0,0.0,0.0,0.0,0.0,0.0,5.7997,5.7997,5.8474,5.8621,5.807,5.8474,5.8621,0.0,0.0,0.0,0.0,0.0,0.0,0.0,0.0,0.0,0.0,0.0,0.0,0.0,0.0,5.7997,5.7997,5.7997,5.7997,5.7997,0.0,0.0,0.0,0.0,0.0,0.0,0.0,0.0,0.0,0.0,0.0,0.0,0.0,0.0,0.0,0.0,5.6014,0.0,0.0,0.0,0.0,0.0,0.0,0.0,0.0,5.7997,5.7997,5.7997,5.7997,5.7997,0.0,5.7997,5.7997,0.0,0.0,0.0,0.0,0.0,0.0,0.0,0.0,5.7997,5.7997,5.7997,5.7997,5.7997,5.7997,5.7997,5.7997,5.7997,5.7997,5.7997,5.7997,5.7997,0.0,0.0,0.0,0.0,0.0,0.0,0.0,0.0,0.0,0.0,0.0,0.0,0.0,0.0,0.0,0.0,0.0,0.0,0.0,0.0,0.0,0.0,0.0,5.7997,0.0,0.0,0.0,0.0,0.0,0.0,0.0,0.0,0.0,5.7997,5.7997,5.7997,5.7997,5.8474,5.8694,5.8437,0.0,0.0,0.0,0.0,0.0,0.0,0.0,5.9465,5.8914,5.9281,5.9465,5.8914,5.8841,5.8841,5.8841,0.0,0.0,5.8107,5.7997,5.7997,5.7997,5.7593,5.7373,5.7886,5.7593,5.7373,0.0,0.0,0.0,0.0,0.0,0.0,0.0,0.0,5.5684,5.6124,0.0,5.6859,0.0,0.0,0.0,0.0,0.0,0.0,0.0,0.0,5.7997,5.7997,5.7997,5.7997,5.7997,5.7997,5.7997,5.7997,5.7997,5.7997,0.0,0.0,0.0,0.0,0.0,0.0,5.7997,5.7997,5.7997,5.7997,5.7997,5.7997,5.7997,5.7997,5.7997,5.7997,5.7997,5.7997,5.7997,5.7997,5.7997,0.0,0.0,0.0,0.0,0.0,0.0,0.0,0.0,0.0,0.0,0.0,0.0,0.0,0.0,0.0,0.0,0.0,0.0,0.0,0.0,5.7997,0.0,0.0,0.0,0.0,0.0,0.0,0.0,0.0,0.0,0.0,5.8143,5.807,5.8033,5.8033,0.0,0.0,0.0,0.0,5.9575,6.0272,6.0382,6.0382,6.0382,6.0419,6.0419,6.0382,0.0,0.0,6.0382,6.0382,6.0346,6.0382,6.0309,5.9905,5.84,5.818,5.8143,5.8143,5.8143,5.8107,5.8107,5.8217,5.8143,5.4693,0.0,0.0,0.0,0.0,5.6235,5.6455,5.6492,5.7079,5.7446,5.7666,5.7666,0.0,0.0,0.0,0.0,0.0,0.0,5.7997,5.7997,5.7997,5.7997,5.7997,5.7997,5.7997,5.7997,5.7997,5.7997,5.7997,5.7997,5.7997,5.7997,0.0,0.0,0.0,0.0,5.7997,5.7997,5.7997,5.7997,5.7997,5.7997,5.7997,5.7997,5.7997,5.7997,5.7997,5.7997,5.7997,5.7997,5.7997,0.0,0.0,0.0,0.0,0.0,0.0,0.0,0.0,0.0,0.0,0.0,0.0,0.0,0.0,0.0,0.0,0.0,0.0,0.0,5.7997,5.7997,5.7997,0.0,0.0,0.0,0.0,0.0,0.0,0.0,0.0,0.0,5.9612,5.9208,5.8854,0.0,0.0,6.0419,6.0089,6.0566,6.0786,6.0456,0.0,0.0,0.0,6.0896,6.108,6.0493,6.0419,6.0419,6.0419,6.0419,6.0419,6.0419,6.0419,6.0236,5.9869,5.9722,5.9722,5.9722,5.9722,5.9722,5.9722,5.9722,5.9685,5.5794,5.539,5.5868,5.6271,5.6602,5.7079,5.7299,5.7299,5.7813,5.7997,5.7997,5.7997,5.7997,5.7997,5.7997,0.0,0.0,0.0,5.7997,5.7997,5.7997,5.7997,5.7997,5.7997,5.7997,5.7997,5.7997,5.7997,5.7997,5.7997,5.7997,5.7997,0.0,0.0,5.7997,5.7997,5.7997,5.7997,5.7997,5.7997,5.7997,5.7997,5.7997,5.7997,5.7997,5.7997,5.7997,5.7997,5.7997,5.7997,5.7997,5.7997,0.0,0.0,0.0,0.0,0.0,0.0,0.0,0.0,0.0,0.0,0.0,5.7997,5.7997,0.0,0.0,0.0,5.7997,5.7997,5.7997,5.7997,0.0,0.0,0.0,0.0,0.0,0.0,0.0,5.9648,5.9661,5.9869,6.0346,6.0272,6.0052,5.9698,6.0529,6.108,6.0896,0.0,6.152,6.1374,6.1374,6.1374,6.1374,6.1741,6.1924,6.1447,6.1374,6.1374,6.1374,6.1349,6.1374,6.1374,6.1337,6.1374,6.1337,6.1374,6.1092,6.0529,6.0419,6.0419,6.0419,6.0419,6.0419,5.6895,5.6895,5.6895,5.7336,5.796,5.7997,5.796,5.7997,5.7997,5.7997,5.7997,5.7997,5.7997,5.7997,5.7997,0.0,5.7997,5.7997,5.7997,5.7997,5.7997,5.7997,5.7997,5.7997,5.7997,5.7997,5.7997,5.7997,5.7997,5.807,5.8107,5.8107,5.818,5.8143,5.7997,5.7997,5.7997,5.7997,5.7997,5.7997,5.7997,5.7997,5.7997,5.7997,5.7997,5.7997,5.7997,5.7997,5.7997,5.7997,5.7997,5.7997,5.7997,0.0,0.0,0.0,0.0,0.0,0.0,0.0,0.0,0.0,0.0,0.0,0.0,0.0,0.0,0.0,5.7997,0.0,5.8107,5.8107,0.0,0.0,0.0,5.9294,5.9294,5.9979,6.0419,6.0493,0.0,0.0,6.0603,0.0,6.1447,6.0713,6.0603,6.086,6.1594,6.1704,6.1961,6.2597,6.2768,6.2805,6.2658,6.2732,6.2732,6.2658,6.2805,6.2732,6.2842,6.2707,6.278,6.2879,6.2842,6.2768,6.2805,6.2695,6.2377,6.1043,6.0713,6.0639,6.0713,6.0713,6.075,5.7703,5.7703,5.7703,5.7813,5.7997,5.7997,5.7997,5.7997,5.7997,5.7997,5.7997,5.7997,5.7997,5.7997,5.7997,5.7997,5.7997,5.7997,5.7997,5.7997,5.7997,5.7997,5.7997,5.7997,5.7997,5.7997,5.7997,5.7997,5.8033,5.8621,5.8891,5.8951,5.9538,5.9208,5.8033,5.7997,5.7997,5.7997,5.7997,5.7997,5.7997,5.7997,5.7997,5.7997,5.7997,5.7997,5.7997,5.7997,5.7997,5.7997,5.7997,5.7997,5.7997,5.7997,0.0,0.0,0.0,0.0,0.0,0.0,0.0,0.0,0.0,5.7997,5.7997,0.0,5.8657,0.0,5.7997,5.8253,5.8854,5.8891,0.0,0.0,6.0015,6.0126,6.0126,6.0309,6.0639,6.1227,6.1337,6.1557,6.2156,6.2401,6.2475,6.223,6.2218,6.2291,6.2475,6.2548,6.2585,6.2805,6.2879,6.2805,6.2879,6.2805,6.2879,6.2805,6.2842,6.3025,6.3686,6.3209,6.2989,6.3576,6.3246,6.2879,6.2817,6.2805,6.2989,6.3099,6.2695,6.2254,6.2254,6.2254,6.2254,5.7997,5.7997,5.7997,5.7997,5.7997,5.7997,5.7997,5.7997,5.7997,5.7997,5.7997,5.7997,5.7997,5.7997,5.7997,5.7997,5.7997,5.7997,5.818,5.851,5.8547,5.8731,5.9061,5.9061,5.9061,5.9061,5.9061,5.9061,5.9098,5.9515,5.9735,5.9758,6.0199,5.9942,5.9098,5.8694,5.8547,5.8547,5.818,5.7997,5.7997,5.7997,5.7997,5.7997,5.7997,5.7997,5.7997,5.7997,5.7997,5.7997,5.7997,5.7997,5.7997,5.7997,5.7997,0.0,0.0,0.0,0.0,0.0,0.0,0.0,0.0,0.0,0.0,0.0,5.9184,5.9061,5.9061,5.9245,5.9722,5.9735,5.9942,6.0346,6.075,6.0933,6.0933,6.1263,6.163,6.2071,6.2144,6.2291,6.2743,6.2805,6.2805,6.2805,6.3135,6.3246,6.2915,6.3135,6.3392,6.3392,6.3686,6.3881,6.3906,6.3943,6.3906,6.3881,6.3918,6.409,6.453,6.4237,6.409,6.4494,6.4237,6.3906,6.3918,6.3906,6.409,6.4383,6.4273,6.3954,6.3881,6.3906,6.3918,5.7997,5.7997,5.7997,5.7997,5.7997,5.7997,5.7997,5.7997,5.7997,5.7997,5.7997,5.7997,5.7997,5.7997,5.8107,5.8143,5.8143,5.8253,5.8694,5.9331,5.9331,5.9722,6.0382,6.0419,6.0419,6.0419,6.0419,6.0419,6.0419,6.0493,6.0566,6.0566,6.0676,6.0713,6.0676,5.9918,5.9441,5.9368,5.8694,5.8327,5.829,5.829,5.829,5.829,5.829,5.829,5.829,5.8327,5.8253,5.8143,5.8143,5.8107,5.7997,5.8107,5.8143,0.0,5.8253,0.0,0.0,0.0,0.0,0.0,0.0,0.0,0.0,5.8951,5.9698,6.0493,6.0456,6.0456,6.0566,6.0566,6.0603,6.0713,6.1337,6.1741,6.1777,6.2365,6.2805,6.2805,6.2805,6.2805,6.2805,6.2853,6.2989,6.3099,6.3759,6.398,6.3392,6.3796,6.4237,6.4237,6.4824,6.5092,6.5154,6.5228,6.5228,6.5264,6.5191,6.5375,6.5448,6.5338,6.5301,6.5411,6.5301,6.5228,6.5275,6.5264,6.5301,6.5411,6.5411,6.5338,6.5228,6.5154,6.5338,5.7997,5.7997,5.7997,5.7997,5.7997,5.7997,5.7997,5.7997,5.7997,5.7997,5.7997,5.7997,5.7997,5.8033,5.8694,5.8964,5.9024,5.9648,6.0052,6.0138,6.0162,6.0272,6.0419,6.0419,6.0419,6.0419,6.0419,6.0419,6.0419,6.1043,6.1374,6.1374,6.2034,6.234,6.2328,0.0,0.0,0.0,6.0015,5.9942,5.9942,5.9942,5.9942,5.9942,5.9942,0.0,5.9942,5.9942,5.9648,5.9001,5.8964,0.0,0.0,0.0,0.0,0.0,0.0,0.0,0.0,0.0,0.0,0.0,5.9942,5.9942,5.9942,6.0089,6.0529,6.1263,6.0786,6.0676,6.13,6.1374,6.163,6.2291,6.2475,6.2585,6.2585,6.2732,6.2805,6.2805,6.2805,6.2842,6.289,6.3392,6.3833,6.3906,6.4567,6.4971,6.4861,6.4971,6.5081,6.5118,6.5338,6.5375,6.5338,6.5375,6.5485,6.5338,6.5338,6.5595,6.6109,6.5742,6.5632,6.6109,6.5742,6.5375,6.5375,6.5338,6.5595,6.6145,6.6256,6.6072,6.5448,6.5338,6.5338,5.7997,0.0,5.7997,5.7774,0.0,5.7449,5.7449,5.7449,5.7449,5.7449,5.7449,5.7449,5.7668,5.7983,5.8017,5.8503,5.9208,5.921,5.9635,6.0373,5.9996,6.024,6.1017,6.0981,6.1197,6.1594,6.1594,6.1594,6.163,6.1998,6.2181,6.2218,6.2597,6.2805,6.2805,6.2401,6.1594,6.0419,6.0419,6.0419,6.0419,6.0419,6.0419,6.0419,0.0,0.0,0.0,0.0,0.0,0.0,0.0,0.0,0.0,0.0,0.0,5.9832,6.0199,6.0419,6.0419,6.0419,6.0566,6.097,6.1374,6.141,6.1043,6.1006,6.1337,6.2108,6.1814,6.1777,6.2144,6.2218,6.2365,6.2768,6.2805,6.2805,6.2805,6.2805,6.2964,6.3356,6.3429,6.3576,6.3991,6.4383,6.4677,6.4751,6.5375,6.5888,6.5888,6.5888,6.5999,6.6402,6.6476,6.6476,6.6476,6.6476,6.6439,6.6476,6.6476,6.6659,6.699,6.6769,6.6623,6.699,6.6733,6.6476,6.6476,6.6476,6.6623,6.699,6.71,6.699,6.6549,6.6476,6.6512,5.7997,5.7997,5.7997,5.7607,5.6912,5.6912,5.6721,5.651,0.0,0.0,0.0,5.6884,5.7316,5.7954,5.7512,5.7989,5.913,5.865,5.9135,6.038,5.971,6.009,6.1371,6.1371,6.1715,6.235,6.2386,6.235,6.235,6.235,6.2412,6.2386,6.2386,6.2464,6.2567,6.273,6.212,6.0896,6.0823,6.0823,6.0823,6.0823,6.0823,6.0823,6.0823,6.0823,6.0823,6.0823,6.0786,6.0639,6.0603,6.0566,6.0419,6.0529,6.0603,6.0603,6.075,6.0823,6.0823,6.0823,6.1117,6.1777,6.2438,6.2511,6.1851,6.1814,6.2071,6.2743,6.2805,6.2805,6.2805,6.2805,6.2805,6.2805,6.2952,6.3062,6.3062,6.3184,6.3613,6.4163,6.431,6.453,6.5154,6.5411,6.5521,6.5632,6.6219,6.6696,6.6696,6.6696,6.6916,6.743,6.7467,6.7614,6.765,6.7577,6.7687,6.754,6.7577,6.7687,6.7687,6.7687,6.7687,6.7577,6.7687,6.7614,6.765,6.7577,6.7687,6.7687,6.7687,6.7687,6.7687,6.765,6.7614,5.7997,5.7997,5.7997,5.7607,5.6912,5.6912,5.615,5.5059,5.6349,5.6868,5.6894,5.6865,5.7326,5.8013,5.8627,5.9011,5.9242,5.9825,6.018,0.0,6.0286,6.0321,6.0549,6.0549,6.061,6.073,6.073,6.073,6.073,6.0796,6.073,6.073,6.073,6.112,6.177,6.2464,6.2695,6.245,6.245,6.245,6.2475,6.2475,6.2475,6.245,6.2438,6.245,6.2475,6.2438,6.2144,6.1447,6.1447,6.1117,6.0493,6.108,6.141,6.1447,6.2108,6.2475,6.245,6.2475,6.2511,6.2622,6.2707,6.2768,6.2658,6.2658,6.267,6.2805,6.2842,6.2805,6.2805,6.2879,6.2915,6.2915,6.3503,6.3906,6.3906,6.4494,6.4934,6.5118,6.5154,6.5154,6.5448,6.5962,6.6329,6.6439,6.6916,6.7467,6.743,6.754,6.7577,6.765,6.7687,6.7687,6.7687,6.7687,6.7687,6.7687,6.7687,6.7687,6.7687,6.7687,6.7687,6.7687,6.7687,6.7687,6.7687,6.7687,6.7687,6.7687,6.7687,6.7687,6.7687,6.7687,6.7687,5.7401,5.7401,5.7401,5.6953,5.6232,5.5808,5.5244,5.4722,5.5779,5.6253,5.6309,5.6663,5.7262,5.7933,5.7929,5.8376,5.9147,5.9072,5.9279,5.9639,5.9246,5.9279,5.9671,5.9704,5.996,6.0366,6.0397,6.0397,6.0432,6.0791,6.1003,6.1003,6.1428,6.2007,6.281,6.3211,6.3636,6.4101,6.3282,6.2805,6.2805,6.2805,6.2805,6.2805,6.2805,6.2805,6.2805,6.2805,6.2622,6.2254,6.2254,6.2071,6.1741,6.2071,6.2254,6.2254,6.2585,6.2805,6.2805,6.2805,6.2805,6.2842,6.3246,6.3503,6.3503,6.3062,6.2805,6.2842,6.3209,6.3503,6.3539,6.3906,6.4138,6.4163,6.453,6.4751,6.4787,6.5044,6.5485,6.5852,6.5962,6.6145,6.6549,6.6916,6.7136,6.7173,6.753,6.7687,6.7687,6.7687,6.7687,6.7687,6.7687,6.7687,6.7687,6.7687,6.7687,6.7687,6.7687,6.7687,6.7687,6.7687,6.7687,6.7687,6.7687,6.7687,6.7687,6.7687,6.7687,6.7687,6.7687,6.7687,6.7687,6.7687,6.7687,5.6642,5.6642,5.6616,5.6177,5.5443,5.4842,5.4591,5.4703,5.5581,5.5981,5.605,5.6567,5.7222,5.7775,5.7287,5.7665,5.8634,5.8209,5.828,5.8703,5.8209,5.8244,5.8806,5.8978,5.9422,6.0051,6.0221,6.0326,6.0396,6.0922,6.1202,6.1272,6.1963,6.2698,6.3321,6.3502,6.3986,6.4585,6.3411,6.2923,6.3367,6.3392,6.3367,6.3356,6.3392,6.333,6.3392,6.3367,6.3356,6.333,6.3209,6.3099,6.3099,6.2915,6.2805,6.2805,6.2805,6.289,6.3099,6.3282,6.3392,6.3367,6.398,6.4383,6.431,6.3759,6.333,6.3466,6.4016,6.4347,6.442,6.4897,6.5338,6.5338,6.5485,6.5558,6.5595,6.5742,6.6072,6.6659,6.6769,6.7026,6.7504,6.7687,6.765,6.7614,6.7687,6.7687,6.7687,6.7687,6.7687,6.7687,6.7687,6.7687,6.7687,6.7687,6.7687,6.7687,6.7687,6.7687,6.7687,6.7687,6.7687,6.7687,6.7687,6.7687,6.7687,6.7687,6.7687,6.7687,6.7687,6.7687,6.7687,6.7687,6.7687,5.5808,5.5808,5.5808,5.5379,5.4738,5.4629,5.4601,5.4838,5.6093,5.6703,5.6739,5.677,5.7213,5.7821,5.7819,5.7889,5.8029,5.7954,5.7954,5.8063,5.7954,5.7954,5.8165,5.8739,5.9081,5.9261,5.9842,6.0154,6.0154,6.0251,6.0279,6.0319,6.108,6.1641,6.1778,6.2411,6.2829,6.2856,6.2715,6.3412,6.494,6.5081,6.5081,6.5081,6.5081,6.5081,6.4971,6.5081,6.5081,6.5007,6.4347,6.398,6.3906,6.3246,6.2842,6.2879,6.2842,6.3135,6.3906,6.4677,6.4982,6.5081,6.5118,6.5191,6.5191,6.5128,6.5081,6.5118,6.5154,6.5191,6.5191,6.5338,6.5485,6.5558,6.6035,6.6366,6.6439,6.7063,6.7504,6.754,6.7467,6.764,6.765,6.7687,6.7687,6.7687,6.7687,6.7687,6.7687,6.7569,6.7542,6.7633,6.7687,6.766,6.7687,6.7687,6.767,6.7697,6.7724,6.777,6.788,6.7907,6.7724,6.8164,6.7871,6.7944,6.7871,6.7687,6.7797,6.8017,6.7981,6.7797,6.7724,6.7834,6.7871,5.5024,5.5059,5.5024,5.488,5.4595,5.4602,5.5108,5.5953,5.6528,5.7036,5.7408,5.7442,5.7611,5.7881,5.7881,5.7881,5.7881,5.7881,5.8118,5.8524,5.8558,5.8761,5.9201,5.9505,5.9674,5.9674,5.9979,6.008,6.0182,6.0588,6.1028,6.1438,6.1855,6.2235,6.2748,6.3067,6.3514,6.4011,6.4011,6.4365,6.498,6.4693,6.474,6.5249,6.5338,6.5338,6.5338,6.5338,6.5338,6.5301,6.4971,6.4824,6.4824,6.4457,6.4273,6.4273,6.4248,6.4457,6.4787,6.5118,6.5338,6.5338,6.5742,6.5999,6.6035,6.6439,6.6733,6.6659,6.6292,6.5999,6.6035,6.6439,6.6696,6.6769,6.7026,6.7173,6.721,6.7494,6.7687,6.7687,6.7687,6.7687,6.7687,6.7687,6.7687,6.7687,6.7687,6.7596,6.7623,6.7258,6.6939,6.7011,6.7302,6.764,6.7607,6.723,6.7421,6.8046,6.7988,6.7789,6.8797,6.9119,6.9119,6.9018,6.8862,6.8862,6.9192,6.9119,6.9119,6.8954,6.9082,6.9119,6.9119,6.9119,6.9119,5.4296,5.433,5.4502,5.473,5.4905,5.5108,5.5818,5.6765,5.7002,5.7408,5.7848,5.7881,5.8017,5.8152,5.7983,5.7983,5.8186,5.8186,5.8592,5.9268,5.9302,5.9573,6.008,6.0351,6.0419,6.0452,6.0655,6.0757,6.0791,6.1298,6.1873,6.2347,6.2415,6.2736,6.3277,6.3351,6.3612,6.4183,6.4288,6.4427,6.4524,6.4127,6.4274,6.5109,6.523,6.5193,6.5193,6.523,6.5341,6.5569,6.5413,6.5347,6.5605,6.5448,6.5338,6.5338,6.5521,6.5632,6.5632,6.5852,6.5962,6.5999,6.6512,6.6806,6.6916,6.7357,6.7677,6.7614,6.7173,6.6806,6.688,6.7357,6.765,6.7687,6.7687,6.7687,6.765,6.7687,6.7569,6.7405,6.7258,6.723,6.7024,6.6874,6.6845,6.6845,6.6874,6.6959,6.6975,6.6548,6.6325,6.6361,6.7002,6.7364,6.7295,6.7418,6.7613,6.7782,6.7822,6.7909,6.9104,6.9236,6.9302,6.8342,6.9037,6.92,6.8675,6.8971,6.9398,6.9398,6.9486,6.9639,6.9391,6.9775,7.0008,5.3517,5.3686,5.433,5.5041,5.5716,5.6359,5.6731,5.6934,5.7543,5.7848,5.7881,5.7915,5.8287,5.8863,5.8287,5.8321,5.8896,5.8964,5.937,6.0013,6.008,6.008,6.0148,6.0858,6.1231,6.1298,6.1806,6.2144,6.2178,6.2279,6.2347,6.2381,6.2415,6.242,6.2537,6.2576,6.2498,6.2697,6.2736,6.2969,6.3647,6.3723,6.4043,6.4787,6.5021,6.5015,6.5019,6.5021,6.5411,6.6289,6.5531,6.5488,6.6196,6.5663,6.5307,6.537,6.5983,6.6413,6.6459,6.701,6.7403,6.7504,6.7413,6.7587,6.7396,6.7415,6.7424,6.7596,6.7351,6.7341,6.7369,6.7378,6.7569,6.7569,6.766,6.7596,6.7569,6.7515,6.7258,6.6641,6.6464,6.6186,6.5358,6.5131,6.5329,6.5397,6.5264,6.5368,6.5678,6.5876,6.6061,6.6274,6.6698,6.7052,6.655,6.6883,6.7582,6.7939,6.7774,6.7509,6.7405,6.7405,6.7578,6.7717,6.813,6.8166,6.7648,6.7614,6.7959,6.8263,6.8858,6.9012,6.9394,6.9697,6.9952,5.4499,5.4938,5.5209,5.575,5.6393,5.6697,5.707,5.7509,5.7746,5.7881,5.7983,5.8389,5.8761,5.9032,5.9235,5.9438,5.9708,5.9708,6.0114,6.0791,6.0858,6.1129,6.1569,6.1873,6.2009,6.2042,6.2245,6.2415,6.2415,6.2415,6.2415,6.2415,6.2415,6.2415,6.2415,6.2415,6.2415,6.2415,6.2415,6.2576,6.2855,6.2855,6.3049,6.3388,6.4426,6.4999,6.4999,6.4999,6.5163,6.549,6.5169,6.522,6.5469,6.5248,6.5105,6.5141,6.5387,6.5779,6.6366,6.6671,6.7146,6.7606,6.7174,6.6881,6.6729,6.6368,6.5961,6.5992,6.5992,6.5961,6.612,6.6487,6.6881,6.6881,6.6852,6.6641,6.6241,6.6457,6.6523,6.5743,6.549,6.5361,6.5103,6.4999,6.5176,6.5603,6.5676,6.5854,6.6245,6.6216,6.5962,6.6066,6.659,6.6858,6.5963,6.6307,6.6918,6.7588,6.7835,6.8116,6.8115,6.8328,6.8576,6.8364,6.8328,6.8221,6.8115,6.8186,6.8186,6.8364,6.8888,6.8882,6.9376,6.9617,6.9753,5.5412,5.6021,5.6089,5.6494,5.7103,5.7171,5.7442,5.7915,5.8152,5.8254,5.8389,5.9032,5.9505,5.981,6.0283,6.0655,6.0791,6.0622,6.0926,6.1603,6.167,6.1907,6.2313,6.2415,6.2415,6.2381,6.2415,6.2415,6.2415,6.2415,6.2415,6.2415,6.2415,6.2415,6.2415,6.2415,6.2415,6.2415,6.2415,6.2415,6.2415,6.2415,6.2415,6.2576,6.3574,6.4148,6.4148,6.4148,6.4323,6.4529,6.4563,6.4698,6.4966,6.4999,6.4999,6.4999,6.5032,6.5229,6.5842,6.5935,6.6181,6.6758,6.6338,6.5935,6.5904,6.5326,6.5065,6.4999,6.4999,6.4999,6.5032,6.5329,6.5653,6.5842,6.5935,6.5716,6.5131,6.5586,6.5458,6.4732,6.4288,6.4253,6.4463,6.4497,6.481,6.5508,6.5613,6.5857,6.6166,6.6176,6.5852,6.592,6.6505,6.6679,6.6317,6.6529,6.6704,6.7281,6.7506,6.8002,6.8363,6.8763,6.8978,6.8868,6.883,6.883,6.883,6.883,6.8868,6.894,6.8846,6.8711,6.9103,6.946,6.9566,5.6156,5.6765,5.6799,5.7205,5.7746,5.778,5.7848,5.8084,5.866,5.893,5.9099,5.9776,6.0486,6.1095,6.1231,6.167,6.1975,6.1569,6.1637,6.2245,6.2313,6.2313,6.2415,6.2415,6.2415,6.2415,6.2415,6.2415,6.2415,6.2415,6.2415,6.2415,6.2415,6.2415,6.2415,6.2415,6.2415,6.2415,6.2415,6.2415,6.2415,6.2415,6.2415,6.2415,6.2576,6.262,6.2503,6.2542,6.2935,6.3574,6.3683,6.4078,6.4631,6.4766,6.4866,6.4766,6.4866,6.4933,6.4999,6.4999,6.5032,6.5261,6.5065,6.4999,6.4966,6.4833,6.4698,6.4665,6.4732,6.4833,6.4631,6.4218,6.4183,6.4833,6.4999,6.4933,6.4833,6.4935,6.4666,6.3897,6.333,6.2871,6.3374,6.3781,6.4171,6.475,6.4948,6.5051,6.5369,6.5725,6.5752,6.5921,6.6391,6.6724,6.6727,6.6779,6.6821,6.6904,6.6942,6.7216,6.7379,6.7719,6.7971,6.7999,6.8348,6.8348,6.8458,6.8458,6.8152,6.8164,6.8211,6.8605,6.8895,6.9227,6.9472,5.69,5.7543,5.7543,5.7679,5.7881,5.7881,5.8152,5.866,5.893,5.9302,5.9844,6.0588,6.1095,6.14,6.1806,6.2178,6.2347,6.2144,6.2178,6.2381,6.2415,6.2415,6.2415,6.2415,6.2415,6.2415,6.2415,6.2415,6.2415,6.2415,6.2415,6.2415,6.2415,6.2415,6.2415,6.2415,6.2415,6.2415,6.2415,6.2415,6.2415,6.2415,6.2415,6.2415,6.2415,6.2415,6.2415,6.2415,6.2537,6.2817,6.2817,6.2935,6.3199,6.3202,6.3202,6.3202,6.3202,6.3501,6.4042,6.4148,6.4357,6.4698,6.4461,6.4148,6.4042,6.3574,6.3314,6.324,6.3202,6.3202,6.3127,6.3011,6.3237,6.4007,6.4113,6.3899,6.3602,6.3758,6.384,6.3708,6.3764,6.4005,6.4174,6.4275,6.4546,6.5189,6.5358,6.5459,6.6,6.617,6.644,6.6508,6.6779,6.688,6.6981,6.7117,6.7218,6.7286,6.7252,6.7252,6.7218,6.7354,6.7489,6.7658,6.7963,6.8132,6.8199,6.8199,6.8098,6.8199,6.8709,6.8869,6.8861,6.9022,6.9307,5.7476,5.7881,5.7881,5.7881,5.7915,5.8152,5.8558,5.9099,5.9641,6.0114,6.0655,6.1366,6.1704,6.1806,6.2178,6.2381,6.2415,6.2415,6.2415,6.2415,6.2415,6.2415,6.2415,6.2415,6.2415,6.2415,6.2415,6.2415,6.2415,6.2415,6.2415,6.2415,6.2415,6.2415,6.2415,6.2415,6.2415,6.2415,6.2415,6.2415,6.2415,6.2415,6.2415,6.2415,6.2415,6.2415,6.2415,6.2415,6.2415,6.2415,6.2415,6.2415,6.2415,6.242,6.2415,6.2415,6.242,6.2697,6.3162,6.3202,6.3425,6.3793,6.3501,6.3237,6.3124,6.262,6.242,6.2415,6.2459,6.2415,6.242,6.2454,6.2761,6.3536,6.3374,6.3106,6.2866,6.3463,6.3869,6.4045,6.4275,6.4681,6.4918,6.5019,6.5324,6.5899,6.6102,6.617,6.6711,6.6779,6.6812,6.6812,6.6812,6.6981,6.7218,6.7421,6.759,6.7692,6.776,6.7861,6.7929,6.8166,6.8368,6.8402,6.8605,6.8639,6.8707,6.8808,6.8774,6.9079,6.9214,6.9073,6.8999,6.9024,6.9194,5.7881,5.7881,5.7881,5.7915,5.8084,5.866,5.9099,5.9438,6.0588,6.1231,6.1501,6.2009,6.2313,6.2381,6.2381,6.2415,6.2415,6.2415,6.2415,6.2415,6.2415,6.2415,6.2415,6.2415,6.2415,6.2415,6.2415,6.2415,6.2415,6.2415,6.2415,6.2415,6.2415,6.2415,6.2415,6.2415,6.2415,6.2415,6.2415,6.2415,6.2415,6.2415,6.2415,6.2415,6.2415,6.2415,6.2415,6.2415,6.2415,6.2415,6.2415,6.2415,6.2415,6.2415,6.2415,6.2415,6.2415,6.2454,6.242,6.2576,6.2542,6.2659,6.262,6.2415,6.2498,6.2498,6.2415,6.2415,6.2415,6.2448,6.2482,6.255,6.2894,6.3362,6.3289,6.3103,6.3531,6.4241,6.4613,6.4681,6.4715,6.4986,6.5662,6.573,6.6068,6.6508,6.6711,6.6745,6.6812,6.688,6.6914,6.7015,6.7184,6.7557,6.7963,6.803,6.8267,6.8673,6.8639,6.8605,6.8673,6.891,6.935,6.935,6.9316,6.9282,6.9383,6.9586,6.9654,6.9755,6.9654,6.9316,6.935,6.9586,6.962,5.7881,5.7881,5.7881,5.822,5.8693,5.8964,5.9674,6.0655,6.1095,6.1637,6.2042,6.2279,6.2415,6.2415,6.2415,6.2415,6.2415,6.2415,6.2415,6.2415,6.2415,6.2415,6.2415,6.2415,6.2415,6.2415,6.2415,6.2415,6.2415,6.2415,6.2415,6.2415,6.2415,6.2415,6.2415,6.2415,6.2415,6.2415,6.2415,6.2415,6.2415,6.2415,6.2415,6.2415,6.2415,6.2415,6.2415,6.2415,6.2415,6.2415,6.2415,6.2415,6.2415,6.2415,6.2415,6.2415,6.2415,6.2415,6.2415,6.2415,6.2415,6.2415,6.2415,6.2415,6.2415,6.2415,6.2415,6.2415,6.2415,6.2651,6.3057,6.3226,6.3599,6.414,6.4106,6.4072,6.4377,6.4952,6.5392,6.5425,6.5865,6.6203,6.6339,6.6474,6.6542,6.6745,6.688,6.688,6.7015,6.7421,6.7658,6.7861,6.8098,6.847,6.8741,6.8774,6.9045,6.962,6.9654,6.9451,6.9485,6.9553,7.0128,7.0601,7.0398,7.0331,7.0567,7.0804,7.0737,7.0432,7.05,7.0364,7.0601,7.0804,7.0737,5.7881,5.7915,5.822,5.8626,5.9099,5.9674,6.0486,6.1264,6.1637,6.1975,6.2347,6.2415,6.2415,6.2415,6.2415,6.2415,6.2415,6.2415,6.2415,6.2415,6.2415,6.2415,6.2415,6.2415,6.2415,6.2415,6.2415,6.2415,6.2415,6.2415,6.2415,6.2415,6.2415,6.2415,6.2415,6.2415,6.2415,6.2415,6.2415,6.2415,6.2415,6.2415,6.2415,6.2415,6.2415,6.2415,6.2415,6.2415,6.2415,6.2415,6.2415,6.2415,6.2415,6.2415,6.2415,6.2415,6.2415,6.2415,6.2415,6.2415,6.2415,6.2415,6.2415,6.2415,6.2415,6.2415,6.2448,6.2854,6.2854,6.326,6.3835,6.4241,6.458,6.4986,6.5324,6.5358,6.5121,6.573,6.6102,6.6271,6.6542,6.6812,6.6812,6.6812,6.6846,6.688,6.7184,6.7252,6.7387,6.7963,6.8436,6.8605,6.8808,6.9113,6.9451,6.9553,6.9755,7.0331,7.0432,7.0263,7.0229,7.0229,7.0635,7.1109,7.1244,7.1312,7.1312,7.1312,7.1176,7.1041,7.1278,7.1312,7.1312,7.1312,7.1312,5.7949,5.8084,5.8727,5.9099,5.9505,6.0689,6.1298,6.1569,6.2076,6.2347,6.2415,6.2415,6.2415,6.2415,6.2415,6.2415,6.2415,6.2415,6.2415,6.2415,6.2415,6.2415,6.2415,6.2415,6.2415,6.2415,6.2415,6.2415,6.2415,6.2415,6.2415,6.2415,6.2415,6.2415,6.2415,6.2415,6.2415,6.2415,6.2415,6.2415,6.2415,6.2415,6.2415,6.2415,6.2415,6.2415,6.2415,6.2415,6.2415,6.2415,6.2415,6.2415,6.2415,6.2415,6.2415,6.2415,6.2415,6.2415,6.2415,6.2415,6.2415,6.2415,6.2415,6.2482,6.255,6.2651,6.2888,6.3565,6.3632,6.4005,6.4647,6.5324,6.5696,6.5865,6.6373,6.6373,6.6136,6.6406,6.6812,6.6812,6.6812,6.6812,6.6846,6.688,6.6981,6.7286,6.759,6.7996,6.8233,6.8741,6.9079,6.9214,6.9451,6.9688,7.0026,7.0331,7.0635,7.0973,7.1007,7.0939,7.0939,7.0973,7.1109,7.1312,7.1312,7.1312,7.1312,7.1312,7.1312,7.1312,7.1312,7.1312,7.1312,7.1312,7.1312,5.8254,5.8795,5.8964,5.9708,6.0757,6.1197,6.1637,6.2144,6.2313,6.2415,6.2415,6.2415,6.2415,6.2415,6.2415,6.2415,6.2415,6.2415,6.2415,6.2415,6.2415,6.2415,6.2415,6.2415,6.2415,6.2415,6.2415,6.2415,6.2415,6.2415,6.2415,6.2415,6.2415,6.2415,6.2415,6.2415,6.2415,6.2415,6.2415,6.2415,6.2415,6.2415,6.2415,6.2415,6.2415,6.2415,6.2415,6.2415,6.2415,6.2415,6.2415,6.2415,6.2415,6.2415,6.2415,6.2415,6.2415,6.2415,6.2415,6.2415,6.2415,6.2482,6.2584,6.2651,6.326,6.326,6.3632,6.4174,6.4377,6.4681,6.5392,6.6136,6.6406,6.6542,6.6643,6.6745,6.6643,6.6711,6.6812,6.6812,6.6812,6.6812,6.688,6.7354,6.7557,6.7726,6.8199,6.8741,6.9147,6.9519,6.9755,6.9958,7.0195,7.0432,7.0534,7.0804,7.0973,7.121,7.1278,7.1312,7.1312,7.1312,7.1312,7.1312,7.1312,7.1312,7.1312,7.1312,7.1312,7.1312,7.1312,7.1312,7.1312,7.1312,7.1312,5.8321,5.9032,5.9404,6.0216,6.1231,6.167,6.2009,6.2347,6.2415,6.2415,6.2415,6.2415,6.2415,6.2415,6.2415,6.2415,6.2415,6.2415,6.2415,6.2415,6.2415,6.2415,6.2415,6.2415,6.2415,6.2415,6.2415,6.2415,6.2415,6.2415,6.2415,6.2415,6.2415,6.2415,6.2415,6.2415,6.2415,6.2415,6.2415,6.2415,6.2415,6.2415,6.2415,6.2415,6.2415,6.2415,6.2415,6.2415,6.2415,6.2415,6.2415,6.2415,6.2415,6.2415,6.2415,6.2415,6.2415,6.2415,6.2415,6.2719,6.2956,6.2922,6.3193,6.3599,6.3937,6.4038,6.4377,6.4884,6.5155,6.5392,6.6136,6.6474,6.6779,6.6812,6.6812,6.6812,6.6812,6.6812,6.6812,6.6812,6.6812,6.7049,6.732,6.7827,6.8199,6.8402,6.9079,6.962,6.9789,7.0161,7.0534,7.0804,7.1041,7.1176,7.1176,7.121,7.1176,7.1278,7.1278,7.1312,7.1312,7.1312,7.1312,7.1312,7.1312,7.1312,7.1312,7.1312,7.1312,7.1312,7.1312,7.1312,7.1312,7.1312,7.1312,5.8389,5.9235,5.9844,6.0622,6.1501,6.211,6.2381,6.2381,6.2415,6.2415,6.2415,6.2415,6.2415,6.2415,6.2415,6.2415,6.2415,6.2415,6.2415,6.2415,6.2415,6.2415,6.2415,6.2415,6.2415,6.2415,6.2415,6.2415,6.2415,6.2415,6.2415,6.2415,6.2415,6.2415,6.2415,6.2415,6.2415,6.2415,6.2415,6.2415,6.2415,6.2415,6.2415,6.2415,6.2415,6.2415,6.2415,6.2415,6.2415,6.2415,6.2516,6.255,6.2516,6.2415,6.2415,6.2415,6.255,6.2685,6.2854,6.326,6.3666,6.37,6.4174,6.458,6.4715,6.4816,6.5155,6.5561,6.5899,6.6068,6.6711,6.6812,6.6812,6.6812,6.6812,6.6812,6.6846,6.688,6.7049,6.7049,6.7218,6.7421,6.7929,6.8436,6.8774,6.918,6.9857,7.0364,7.0534,7.0703,7.1007,7.1142,7.1244,7.1312,7.1312,7.1312,7.1312,7.1312,7.1312,7.1312,7.1312,7.1312,7.1312,7.1312,7.1312,7.1312,7.1312,7.1312,7.1312,7.1312,7.1312,7.1312,7.1312,7.1312,7.1312,5.8693,5.9945,6.0047,6.0892,6.211,6.2347,6.2415,6.2415,6.2415,6.2415,6.2415,6.2415,6.2415,6.2415,6.2415,6.2415,6.2415,6.2415,6.2415,6.2415,6.2415,6.2415,6.2415,6.2415,6.2415,6.2415,6.2415,6.2415,6.2415,6.2415,6.2415,6.2415,6.2415,6.2415,6.2415,6.2415,6.2415,6.2415,6.2415,6.2415,6.2415,6.2415,6.2448,6.2482,6.255,6.255,6.2516,6.2448,6.2415,6.2448,6.299,6.326,6.3226,6.2821,6.2584,6.2685,6.3057,6.3328,6.3429,6.4005,6.4343,6.4444,6.4681,6.5019,6.5324,6.5527,6.5831,6.6271,6.6542,6.6677,6.6779,6.6812,6.6812,6.6812,6.688,6.688,6.6981,6.7354,6.776,6.7895,6.7895,6.7996,6.8605,6.9147,6.9519,6.9925,7.0466,7.0804,7.0939,7.1041,7.1176,7.1278,7.1278,7.1312,7.1312,7.1312,7.1312,7.1312,7.1312,7.1312,7.1312,7.1312,7.1312,7.1515,7.1413,7.1312,7.1312,7.1312,7.1312,7.1312,7.1312,7.1312,7.1312,7.1312,7.1312,5.9099,6.0114,6.0554,6.1366,6.2279,6.2415,6.2415,6.2415,6.2415,6.2415,6.2415,6.2415,6.2415,6.2415,6.2415,6.2415,6.2341,6.2415,6.2415,6.2415,6.2415,6.2415,6.2415,6.2415,6.2415,6.2415,6.2415,6.2415,6.2415,6.2415,6.2415,6.2415,6.2415,6.2415,6.2415,6.2415,6.2415,6.2415,6.2415,6.2415,6.2415,6.2415,6.255,6.2888,6.3024,6.3159,6.3497,6.3531,6.3565,6.3632,6.3903,6.4038,6.3971,6.3802,6.3531,6.3599,6.3869,6.4072,6.4174,6.4749,6.5121,6.5222,6.5459,6.5865,6.6136,6.6305,6.6406,6.6677,6.6812,6.6812,6.6812,6.6846,6.6812,6.688,6.7117,6.7354,6.7523,6.8098,6.8538,6.8842,6.8774,6.8977,6.9451,6.9925,7.0331,7.0703,7.1075,7.121,7.1312,7.1312,7.1312,7.1312,7.1312,7.1312,7.1345,7.1447,7.1481,7.1447,7.1582,7.1582,7.1616,7.1751,7.1853,7.1988,7.1785,7.1616,7.1345,7.1379,7.1345,7.1379,7.1447,7.1481,7.1379,7.1312,7.1481,5.9438,6.0182,6.096,6.1738,6.2347,6.2415,6.2263,6.211,6.2302,6.2223,6.203,6.1991,6.1991,6.1951,6.1716,6.1595,6.1716,6.1756,6.1951,6.1991,6.2302,6.2415,6.2415,6.2415,6.2415,6.2415,6.2415,6.2415,6.2415,6.2415,6.2415,6.2415,6.2415,6.2415,6.2415,6.2415,6.2415,6.2415,6.2415,6.2415,6.2584,6.2787,6.3091,6.3666,6.3734,6.4005,6.4377,6.441,6.441,6.4512,6.4681,6.4816,6.485,6.4952,6.5053,6.5019,6.4918,6.485,6.4986,6.5493,6.5899,6.5933,6.644,6.6711,6.6779,6.6677,6.6779,6.6812,6.6812,6.6812,6.6846,6.6948,6.7049,6.7218,6.7692,6.8166,6.8368,6.8774,6.9417,6.9586,6.9586,6.9857,7.0297,7.0466,7.0804,7.0872,7.1244,7.1244,7.1312,7.1312,7.1312,7.1312,7.1312,7.1312,7.1413,7.165,7.1718,7.1785,7.209,7.2293,7.2293,7.2326,7.2462,7.2631,7.2428,7.2225,7.1853,7.1751,7.209,7.2191,7.1887,7.1853,7.2124,7.2191,7.2259,5.9438,6.0182,6.0994,6.1738,6.2308,6.2302,6.1716,6.0995,6.1797,6.1756,6.0828,6.0828,6.0828,6.0628,5.9784,5.939,5.961,6.0332,6.0828,6.0912,6.1635,6.1991,6.2263,6.2415,6.229,6.2358,6.2443,6.2415,6.2584,6.2584,6.2448,6.2482,6.2618,6.2482,6.2719,6.2753,6.2415,6.2448,6.2482,6.2787,6.3362,6.3903,6.4241,6.441,6.4478,6.4613,6.485,6.4884,6.485,6.485,6.529,6.5527,6.5662,6.6237,6.6474,6.6339,6.6,6.5561,6.5696,6.617,6.6542,6.6508,6.6745,6.6812,6.6812,6.6812,6.6812,6.6812,6.6846,6.6914,6.7083,6.7455,6.7692,6.803,6.847,6.8842,6.9079,6.9586,7.0161,7.0331,7.0331,7.0669,7.1041,7.1142,7.1244,7.1278,7.1312,7.1312,7.1312,7.1312,7.1312,7.1312,7.1582,7.1616,7.1819,7.1988,7.2191,7.2259,7.2563,7.2902,7.2935,7.2969,7.324,7.3308,7.3138,7.3206,7.3206,7.3206,7.3206,7.2969,7.2665,7.2868,7.324,7.3172,7.2935,5.9438,6.0782,6.0832,6.1058,6.1283,6.067,6.0075,5.9784,6.0118,6.0075,5.9653,5.9566,5.9566,5.939,5.8947,5.8857,5.8902,5.9346,5.9566,5.961,6.0161,6.0417,6.0459,6.1028,6.1532,6.2089,6.2737,6.3396,6.3322,6.3113,6.3057,6.3091,6.3429,6.37,6.3497,6.3632,6.3666,6.3666,6.37,6.3835,6.414,6.4478,6.4816,6.5189,6.5222,6.5425,6.5696,6.5865,6.5865,6.5899,6.6237,6.6305,6.6373,6.6609,6.6779,6.6745,6.6508,6.6339,6.6373,6.6643,6.6779,6.6812,6.6812,6.6812,6.6812,6.6846,6.6846,6.6812,6.7218,6.7387,6.7557,6.8132,6.8436,6.8774,6.9282,6.9519,6.9857,7.0432,7.0872,7.0973,7.1041,7.121,7.1312,7.1278,7.1278,7.1278,7.1312,7.1312,7.1312,7.1312,7.1312,7.1312,7.1684,7.2022,7.2293,7.2563,7.2902,7.3037,7.3071,7.3375,7.3477,7.3646,7.395,7.4322,7.4458,7.4525,7.4593,7.4119,7.3646,7.351,7.3443,7.3646,7.3815,7.3544,7.3341,5.9223,6.0591,6.0271,6.0161,6.0043,5.917,5.8632,5.836,5.8767,5.8677,5.8405,5.8314,5.8223,5.7932,5.7792,5.7652,5.7807,5.8223,5.8314,5.8405,5.8664,5.903,5.9548,6.0185,6.0815,6.147,6.2065,6.2638,6.3031,6.3233,6.3116,6.3681,6.3657,6.4166,6.4505,6.4478,6.441,6.441,6.4647,6.4816,6.4918,6.5121,6.5527,6.5797,6.6034,6.6237,6.6711,6.6745,6.6745,6.6745,6.6711,6.6711,6.6745,6.6779,6.6812,6.6812,6.6711,6.6711,6.6711,6.6812,6.6812,6.6812,6.6812,6.6812,6.6846,6.6914,6.7083,6.7184,6.7827,6.8132,6.8368,6.891,6.9248,6.9586,7.0026,7.0263,7.05,7.0872,7.1142,7.1142,7.1176,7.1244,7.1312,7.1312,7.1312,7.1312,7.1312,7.1345,7.1413,7.1481,7.165,7.1751,7.2259,7.2665,7.2868,7.3172,7.351,7.3815,7.3849,7.4052,7.4289,7.4492,7.4796,7.5168,7.5405,7.5337,7.5134,7.4559,7.4052,7.4322,7.4458,7.4289,7.4187,7.3984,7.3984,5.8577,5.8972,5.8915,5.8902,5.8902,5.8857,5.8085,5.7229,5.8223,5.7993,5.7181,5.7086,5.6541,5.5869,5.5869,5.5819,5.5651,5.6638,5.7039,5.748,5.8162,5.8727,5.9119,5.9543,6.017,6.0747,6.1394,6.1458,6.1331,6.2169,6.3035,6.4236,6.3557,6.3818,6.4137,6.4296,6.4346,6.4489,6.495,6.5387,6.5639,6.6019,6.6542,6.6609,6.6711,6.6779,6.6812,6.6812,6.6812,6.6812,6.6812,6.6812,6.6812,6.6812,6.6812,6.6812,6.6812,6.6812,6.6812,6.6812,6.6812,6.6812,6.688,6.6981,6.7015,6.7557,6.776,6.7929,6.8571,6.8944,6.9214,6.962,7.006,7.0263,7.0567,7.0804,7.0939,7.1041,7.1244,7.1278,7.1312,7.1312,7.1312,7.1312,7.1312,7.1312,7.1616,7.165,7.1819,7.1921,7.2225,7.2496,7.3037,7.3375,7.3477,7.3849,7.4356,7.4627,7.4728,7.4999,7.5303,7.5506,7.5371,7.5473,7.5574,7.5642,7.5676,7.5168,7.4965,7.5371,7.5439,7.5033,7.4965,7.4931,7.5033,5.7155,5.7621,5.6896,5.6991,5.7621,5.6896,5.6329,5.6017,5.6378,5.6347,5.5967,5.5869,5.5651,5.528,5.5209,5.5209,5.5229,5.5571,5.5918,5.6169,5.6776,5.731,5.7814,5.8882,5.9627,6.0355,6.0915,6.1726,6.2236,6.1544,6.2205,6.2941,6.2825,6.3186,6.3505,6.3735,6.3678,6.3956,6.4586,6.517,6.5444,6.6246,6.6812,6.6812,6.6812,6.6812,6.6812,6.6812,6.6812,6.6812,6.6812,6.6812,6.6812,6.6812,6.6812,6.6812,6.6812,6.6846,6.688,6.6846,6.6812,6.6914,6.7184,6.7489,6.7523,6.8199,6.8538,6.8876,6.9316,6.9755,6.9857,7.0398,7.0906,7.0973,7.1075,7.1244,7.1312,7.1312,7.1312,7.1312,7.1312,7.1312,7.1312,7.1312,7.1312,7.1345,7.1684,7.2022,7.2225,7.2529,7.2902,7.324,7.3747,7.4086,7.4221,7.4695,7.5236,7.5371,7.5506,7.5574,7.5676,7.5676,7.5574,7.5676,7.5676,7.5676,7.5676,7.5676,7.5676,7.5676,7.5676,7.5574,7.5608,7.5676,7.5676,5.6118,5.6317,5.5551,5.567,5.6299,5.5551,5.5209,5.5209,5.528,5.5209,5.5209,5.5209,5.5209,5.5209,5.5209,5.5209,5.5209,5.531,5.5379,5.572,5.6101,5.6428,5.7097,5.7931,5.9063,5.986,6.047,6.1189,6.1321,6.0784,6.0978,6.1452,6.1927,6.2031,6.3052,6.2972,6.2972,6.3259,6.3732,6.4322,6.4505,6.5036,6.5514,6.5636,6.5811,6.6105,6.6235,6.644,6.6812,6.6812,6.6812,6.6812,6.6812,6.6812,6.6812,6.6812,6.6846,6.6914,6.7083,6.7151,6.7151,6.7286,6.7895,6.8166,6.8436,6.8944,6.9383,6.9485,7.006,7.05,7.05,7.0973,7.1176,7.1176,7.1176,7.1312,7.1312,7.1312,7.1312,7.1312,7.1312,7.1413,7.1921,7.2022,7.2056,7.209,7.2394,7.2699,7.2868,7.324,7.3713,7.4086,7.4458,7.4728,7.4965,7.5236,7.5439,7.5506,7.5608,7.5642,7.5676,7.5676,7.5676,7.5676,7.5676,7.5676,7.5676,7.5676,7.5676,7.5676,7.5676,7.5676,7.5676,7.5676,7.5676,5.5651,5.525,5.5229,5.5229,5.5381,5.5229,5.5209,5.5209,5.5209,5.5209,5.5209,5.5209,5.5209,5.5209,5.5209,5.5209,5.5239,5.5269,5.5508,5.6038,5.6406,5.7004,5.7656,5.8347,5.8799,5.9027,5.9539,5.9743,5.9523,5.9576,5.9576,5.9576,6.0023,6.0588,6.2682,6.2908,6.2956,6.2924,6.2908,6.302,6.3068,6.3402,6.3718,6.423,6.4856,6.5304,6.5855,6.644,6.677,6.6812,6.6812,6.6812,6.6812,6.6914,6.6948,6.6948,6.6981,6.7286,6.7793,6.7861,6.7963,6.803,6.8605,6.9011,6.9214,6.9688,7.0161,7.0229,7.0737,7.1109,7.1244,7.1278,7.1312,7.1312,7.1312,7.1312,7.1312,7.1312,7.1312,7.1582,7.1548,7.1616,7.236,7.2834,7.2868,7.3003,7.3206,7.3375,7.3544,7.3984,7.4492,7.4695,7.5033,7.5168,7.5337,7.5506,7.5642,7.5676,7.5676,7.5676,7.5676,7.5676,7.5676,7.5676,7.5676,7.5676,7.5676,7.5676,7.5676,7.5676,7.5676,7.5676,7.5676,7.5676,7.5676,5.534,5.5209,5.5209,5.5209,5.5209,5.5209,5.5209,5.5209,5.5209,5.5209,5.5209,5.5209,5.5209,5.5209,5.5209,5.5209,5.5269,5.5748,5.6128,5.6308,5.6944,5.7603,5.8171,5.856,5.886,5.9039,5.9099,5.9099,5.9207,5.9099,5.9099,5.9099,5.9153,5.9553,6.018,6.0411,6.0359,6.0567,6.1071,6.1696,6.1796,6.2439,6.3212,6.3872,6.4414,6.4959,6.5559,6.6148,6.6473,6.655,6.6541,6.6583,6.6761,6.6972,6.7438,6.7649,6.7818,6.8402,6.8808,6.9011,6.9147,6.9147,6.935,6.9823,6.9891,7.0534,7.0838,7.0906,7.1109,7.1312,7.1312,7.1312,7.1312,7.1312,7.1312,7.1312,7.1312,7.1312,7.1413,7.1921,7.209,7.2462,7.3037,7.3713,7.3883,7.3916,7.4086,7.4153,7.4255,7.4796,7.5303,7.5337,7.5506,7.5574,7.5676,7.5676,7.5676,7.5676,7.5676,7.5676,7.5676,7.5676,7.5676,7.5676,7.5676,7.5676,7.5676,7.5676,7.5676,7.5676,7.5676,7.5676,7.5676,7.5676,7.5676,5.5209,5.5209,5.5209,5.5209,5.5209,5.5209,5.5209,5.5209,5.5209,5.5209,5.5209,5.5209,5.5209,5.5209,5.5209,5.5418,5.5538,5.5927,5.6705,5.6855,5.7633,5.8171,5.856,5.886,5.9009,5.9099,5.9099,5.9099,5.9099,5.9099,5.9099,5.9099,5.9099,5.9207,5.9285,5.9339,5.9315,5.9606,6.0128,6.0359,6.0536,6.1071,6.1846,6.2487,6.3132,6.3747,6.4597,6.5204,6.5647,6.5814,6.5913,6.6013,6.6357,6.6957,6.7502,6.7825,6.8769,6.9296,6.962,7.0161,7.0195,7.0026,7.0364,7.0534,7.0601,7.0973,7.1176,7.1244,7.1312,7.1312,7.1312,7.1312,7.1379,7.1379,7.1413,7.1447,7.1751,7.1785,7.2022,7.2496,7.2902,7.3308,7.3781,7.439,7.4897,7.4931,7.4999,7.4965,7.4931,7.5337,7.5676,7.5676,7.5676,7.5676,7.5676,7.5676,7.5676,7.5676,7.5676,7.5676,7.5676,7.5676,7.5676,7.5676,7.5676,7.5676,7.5676,7.5676,7.5676,7.5676,7.5676,7.5676,7.5676,7.5676,7.5676,5.5209,5.5209,5.5209,5.5209,5.5209,5.5209,5.5209,5.5209,5.5209,5.5209,5.5209,5.5209,5.5209,5.5209,5.5209,5.5538,5.6098,5.6248,5.6974,5.7723,5.8171,5.859,5.886,5.9069,5.9099,5.9099,5.9099,5.9099,5.9099,5.9099,5.9099,5.9099,5.9099,5.9099,5.9099,5.9099,5.9099,5.9261,5.9285,5.9553,5.9683,5.9553,6.0128,6.0722,6.1368,6.2035,6.2759,6.334,6.395,6.4256,6.4304,6.4591,6.5206,6.6255,6.6748,6.7698,6.9199,6.9961,7.0331,7.0906,7.1075,7.0906,7.1075,7.1278,7.1244,7.121,7.1278,7.1312,7.1312,7.1312,7.1312,7.1413,7.1515,7.1548,7.165,7.1921,7.2326,7.2597,7.2868,7.324,7.3612,7.4018,7.4525,7.5134,7.5371,7.5405,7.5371,7.5405,7.5371,7.5405,7.5676,7.5676,7.5676,7.5676,7.5676,7.5676,7.5676,7.5676,7.5676,7.5676,7.5676,7.5676,7.5676,7.5676,7.5676,7.5676,7.5676,7.5676,7.5676,7.5676,7.5676,7.5676,7.5676,7.5676,7.5676,5.5209,5.5209,5.5209,5.5209,5.5209,5.5209,5.5209,5.5209,5.5209,5.5209,5.5209,5.5209,5.5209,5.5209,5.5209,5.5628,5.6137,5.6675,5.7334,5.7962,5.856,5.886,5.9039,5.9099,5.9099,5.9099,5.9099,5.9099,5.9099,5.9099,5.9099,5.9099,5.9099,5.9099,5.9159,5.9129,5.9189,5.9219,5.9249,5.9219,5.9219,5.9249,5.962,6.0394,6.1015,6.1805,6.2682,6.3431,6.408,6.437,6.4534,6.4775,6.4906,6.588,6.6695,6.8606,7.0001,7.1007,7.1041,7.1176,7.1222,7.1143,7.1143,7.1267,7.1312,7.1222,7.1267,7.1312,7.1447,7.1515,7.1684,7.1819,7.1988,7.2124,7.2293,7.2699,7.3071,7.3274,7.3578,7.4086,7.4458,7.4728,7.5236,7.5371,7.5574,7.5642,7.5676,7.5676,7.5676,7.5676,7.5676,7.5676,7.5676,7.5676,7.5676,7.5676,7.5676,7.5676,7.5676,7.5676,7.5676,7.5676,7.5676,7.5676,7.5676,7.5676,7.5676,7.5676,7.5676,7.5676,7.5676,7.5676,7.5676,7.5676,7.5676,5.5209,5.5209,5.5209,5.5209,5.5209,5.5209,5.5209,5.5209,5.5209,5.5209,5.5209,5.5209,5.5209,5.5239,5.5478,5.5957,5.6615,5.7244,5.7902,5.853,5.889,5.9009,5.9099,5.9099,5.9099,5.9099,5.9099,5.9099,5.9129,5.9099,5.9099,5.9099,5.9099,5.9308,5.9458,5.9608,5.9757,5.9757,5.9727,5.9548,5.9548,5.9727,6.0469,6.0898,6.1508,6.2236,6.282,6.3412,6.3579,6.3745,6.3807,6.3941,6.4434,6.5574,6.7225,6.9037,7.0381,7.1075,7.1244,7.1244,7.1007,7.0654,7.0482,7.0436,7.0666,7.0837,7.1098,7.1312,7.1582,7.1819,7.209,7.2326,7.2597,7.2834,7.3206,7.3578,7.3747,7.3883,7.4356,7.4931,7.527,7.5473,7.5642,7.5628,7.5676,7.5676,7.5676,7.5676,7.5676,7.5676,7.5676,7.5676,7.5676,7.5676,7.5676,7.5676,7.5676,7.5676,7.5676,7.5676,7.5676,7.5676,7.5676,7.5676,7.5676,7.5676,7.5676,7.5676,7.5676,7.5676,7.5676,7.5676,7.5676,7.5676,7.5676,5.5209,5.5209,5.5209,5.5209,5.5209,5.5209,5.5209,5.5209,5.5209,5.5209,5.5209,5.5209,5.5239,5.5478,5.5888,5.6496,5.7124,5.7752,5.8291,5.9069,5.9069,5.9099,5.9099,5.9099,5.9099,5.9099,5.9099,5.9099,5.9129,5.9249,5.9338,5.9189,5.9398,5.9697,6.0116,6.0176,6.0356,6.0595,6.0505,6.0356,6.0356,6.0685,6.1104,6.107,6.1216,6.1387,6.1417,6.1455,6.1553,6.2028,6.2412,6.2792,6.3817,6.5334,6.7253,6.8421,6.9585,7.0123,7.0263,7.0216,6.9855,6.9394,6.9105,6.9463,6.9978,7.0563,7.0909,7.1695,7.209,7.2394,7.2665,7.2653,7.2801,7.3178,7.3575,7.4134,7.4546,7.46,7.4661,7.5099,7.533,7.5354,7.4406,7.4256,7.4406,7.4981,7.5306,7.5258,7.5484,7.5484,7.5628,7.5628,7.5676,7.5676,7.5676,7.5676,7.5676,7.5676,7.5676,7.5676,7.5676,7.5676,7.5676,7.5676,7.5676,7.5676,7.5676,7.5676,7.5676,7.5676,7.5676,7.5676,7.5676,7.5676,7.5676,5.5209,5.5209,5.5209,5.5209,5.5209,5.5209,5.5209,5.5209,5.5209,5.5209,5.5209,5.5239,5.5478,5.5897,5.6158,5.6765,5.7723,5.8112,5.853,5.8919,5.9099,5.9099,5.9099,5.9099,5.9099,5.9099,5.9099,5.9189,5.9308,5.9548,5.9877,5.9937,6.0176,6.0595,6.0835,6.0864,6.1014,6.1373,6.1493,6.1253,6.1074,6.0984,6.1134,6.1313,6.1493,6.1822,6.1972,6.2331,6.254,6.2897,6.2897,6.2987,6.3222,6.4758,6.562,6.6312,6.7705,6.8405,6.8667,6.8699,6.8386,6.8248,6.8226,6.9089,6.9764,7.0235,7.0942,7.1867,7.2493,7.2785,7.2969,7.2882,7.3025,7.3502,7.3897,7.4522,7.5147,7.5037,7.4911,7.4929,7.5127,7.4456,7.3379,7.307,7.3173,7.3431,7.3871,7.4156,7.4654,7.4884,7.5388,7.5484,7.5628,7.5676,7.5676,7.5676,7.5676,7.5676,7.5676,7.5676,7.5676,7.5676,7.5676,7.5676,7.5676,7.5676,7.5676,7.5676,7.5676,7.5676,7.5676,7.5676,7.5676,7.5676,7.5676,5.5209,5.5209,5.5209,5.5209,5.5209,5.5209,5.5209,5.5209,5.5209,5.5209,5.5209,5.5239,5.5568,5.6196,5.6436,5.7064,5.8082,5.8441,5.877,5.9039,5.9099,5.9099,5.9099,5.9099,5.9099,5.9129,5.9458,5.9608,5.9638,6.0176,6.0565,6.0625,6.1014,6.1283,6.1463,6.1553,6.1702,6.2032,6.2361,6.2241,6.1912,6.1912,6.1972,6.2181,6.2271,6.251,6.26,6.2899,6.2989,6.3079,6.3107,6.3107,6.3394,6.4457,6.5056,6.5567,6.647,6.7164,6.7208,6.7245,6.7144,6.7134,6.731,6.8214,6.8373,6.8901,7.0196,7.1028,7.1274,7.1569,7.1749,7.1681,7.2689,7.3358,7.3625,7.4074,7.4273,7.4256,7.3653,7.2952,7.3225,7.3431,7.2567,7.2355,7.2757,7.4256,7.4306,7.3431,7.382,7.4073,7.4687,7.5015,7.4981,7.5436,7.5676,7.5676,7.5676,7.5676,7.5676,7.5676,7.5676,7.5676,7.5676,7.5676,7.5676,7.5676,7.5676,7.5676,7.5676,7.5676,7.5676,7.5676,7.5676,7.5676,7.5676,5.5209,5.5209,5.5209,5.5209,5.5209,5.5209,5.5209,5.5209,5.5209,5.5269,5.5388,5.5388,5.5718,5.6316,5.6944,5.7603,5.8201,5.871,5.9039,5.9099,5.9099,5.9099,5.9099,5.9099,5.9189,5.9518,5.9937,6.0116,6.0266,6.0864,6.1224,6.1253,6.1433,6.1642,6.2061,6.2271,6.2421,6.269,6.2929,6.3047,6.3077,6.3137,6.2959,6.3047,6.3137,6.3137,6.3079,6.3079,6.3137,6.3137,6.3137,6.3137,6.3279,6.4015,6.4346,6.4868,6.5546,6.6214,6.6606,6.6897,6.6628,6.6443,6.6745,6.7085,6.7322,6.8009,6.9314,7.0012,7.0246,7.0599,7.0738,7.079,7.1863,7.2881,7.3121,7.3225,7.3309,7.3258,7.2388,7.1333,7.1605,7.1982,7.1821,7.1551,7.2514,7.4123,7.4406,7.3668,7.307,7.3173,7.3515,7.3668,7.3668,7.4306,7.5354,7.5484,7.5402,7.5676,7.5676,7.5676,7.5676,7.5676,7.5676,7.5676,7.5676,7.5676,7.5676,7.5676,7.5676,7.5676,7.5676,7.5676,7.5676,7.5676,7.5676,5.5209,5.5209,5.5209,5.5209,5.5209,5.5209,5.5209,5.5209,5.5209,5.5478,5.5867,5.6017,5.6316,5.6944,5.7633,5.8231,5.871,5.9069,5.9069,5.9099,5.9099,5.9099,5.9159,5.9249,5.9488,5.9967,6.0535,6.0864,6.1014,6.1553,6.1912,6.1912,6.248,6.269,6.275,6.2869,6.2869,6.3137,6.3137,6.3137,6.3137,6.3137,6.3137,6.3137,6.3137,6.3137,6.3137,6.3137,6.3137,6.3137,6.3166,6.3166,6.3342,6.3571,6.38,6.427,6.4958,6.5111,6.5525,6.5928,6.5718,6.5754,6.6181,6.6958,6.7141,6.7328,6.8409,6.9327,6.9741,7.0465,7.0505,6.9697,7.0224,7.1333,7.1875,7.1875,7.1875,7.1659,7.1114,7.0648,7.0536,7.0504,7.0199,7.0255,7.0727,7.1929,7.2249,7.1551,7.1059,7.1605,7.2335,7.2302,7.2302,7.382,7.5112,7.4981,7.4981,7.5354,7.5402,7.4884,7.4884,7.5628,7.5628,7.5258,7.5532,7.5676,7.5676,7.5676,7.5676,7.5676,7.5676,7.5676,7.5676,7.5676,7.5676]}]]